GFSMW_sfc_temp_000.txt.gz
Temp
71 73 72 71 71 72 73 75 75 74 73 70 68 66 67 66 67 70 72 72 72 72 70 69 68 68 67 66 66 64 62 62 60 58 57 58 60 60 62 60 62 63 62
68 69 69 67 67 67 68 69 73 74 73 71 70 69 69 70 71 71 72 73 72 72 71 70 68 68 67 66 66 65 63 63 60 59 54 54 55 61 65 66 66 66 66
65 66 66 65 63 63 63 67 68 70 73 72 70 68 68 67 66 68 68 69 71 71 70 70 69 68 68 67 66 66 63 61 59 64 61 51 51 51 57 62 65 65 58
65 65 65 63 62 62 63 65 68 69 72 71 69 67 65 63 66 67 68 68 69 71 71 70 69 69 69 68 67 68 66 66 63 62 66 64 59 51 52 55 56 59 61
64 64 64 65 64 62 62 63 66 68 69 68 67 65 65 66 66 67 67 67 68 71 70 70 69 69 70 70 68 69 69 68 65 63 63 62 61 61 57 54 58 59 61
64 64 65 65 62 61 62 62 64 65 66 66 66 65 63 63 63 63 64 65 66 67 67 69 68 68 68 68 68 68 68 66 66 65 64 63 60 59 58 56 56 57 62
62 62 61 61 61 60 61 64 63 63 64 64 64 64 64 63 62 63 63 64 64 65 66 66 67 68 68 68 68 68 67 66 65 65 64 65 64 64 61 58 57 55 59
62 61 61 60 60 61 61 62 63 62 63 63 63 63 63 62 63 63 64 64 65 65 67 67 67 67 68 68 68 68 67 67 65 65 65 65 65 66 65 61 58 55 57
61 60 60 60 60 60 61 61 62 62 63 63 62 62 63 62 61 62 62 62 63 68 67 65 66 67 69 70 70 68 68 67 67 65 65 65 66 66 65 64 63 59 54
61 60 60 60 60 60 61 62 62 62 62 62 62 63 62 63 63 62 62 62 63 63 63 63 63 64 65 66 66 67 68 67 67 67 66 66 66 66 65 63 63 62 58
59 59 60 61 61 61 61 61 61 62 61 61 61 60 61 62 62 62 63 63 63 63 63 63 63 63 62 64 64 66 66 65 66 66 65 65 66 65 64 63 63 61 60
59 60 60 60 60 60 61 60 60 60 60 60 60 59 60 59 58 59 60 61 61 63 63 64 64 64 63 63 61 63 64 63 63 64 64 65 66 64 64 63 62 61 62
58 60 59 59 60 60 59 59 58 58 59 59 58 57 57 56 56 57 59 61 60 61 61 62 61 62 63 63 63 63 63 63 63 63 63 64 64 63 64 63 62 62 61
59 57 56 56 57 58 57 57 57 57 57 57 55 55 55 55 56 57 58 58 59 59 59 60 61 61 62 62 62 63 60 58 61 61 61 62 62 63 64 63 61 60 59
57 56 55 55 55 54 54 54 54 55 56 55 54 54 54 55 55 55 56 57 57 58 58 59 59 60 60 63 59 59 59 57 58 59 60 60 59 55 58 61 61 60 58
56 56 56 54 52 50 52 53 52 53 54 52 53 54 54 54 53 53 54 55 55 56 56 57 57 57 60 57 56 56 56 56 55 55 57 59 55 57 57 56 55 58 58
54 54 51 50 50 50 51 49 50 52 52 51 52 52 52 51 51 52 52 52 52 53 53 54 55 55 56 56 56 53 53 54 54 54 55 56 58 55 57 58 56 54 55
51 50 49 48 48 49 49 48 49 49 49 49 49 49 49 49 50 50 50 50 51 51 52 53 53 53 55 54 52 51 54 52 52 52 53 55 55 56 56 56 55 57 57
49 48 47 47 47 47 47 46 45 45 46 46 46 47 47 47 47 47 47 48 49 49 50 52 52 52 53 52 51 52 51 50 50 53 54 54 53 53 53 51 52 54 55
50 46 46 46 45 45 44 43 42 42 42 44 45 46 46 46 45 45 46 47 48 49 50 50 51 52 50 51 51 51 50 47 48 49 49 50 50 51 51 50 49 49 52
46 47 47 43 42 43 42 40 40 39 42 44 44 44 45 44 45 45 45 45 46 47 47 47 49 48 48 49 51 51 49 47 45 44 46 48 49 48 49 48 47 47 51
46 46 42 41 42 44 41 38 37 42 43 43 42 42 43 44 45 42 43 43 43 43 44 45 45 47 47 49 49 49 49 48 43 42 44 46 46 46 46 47 48 48 48
42 43 41 41 42 43 40 37 39 41 41 40 40 40 41 41 42 40 40 40 41 41 42 42 41 41 44 45 47 48 48 46 43 43 44 45 45 45 46 46 47 47 40
40 41 39 38 38 40 40 38 39 40 39 37 37 38 38 39 39 40 40 39 39 39 40 39 38 38 40 41 43 44 44 44 42 43 44 45 46 47 45 45 44 37 36
39 39 37 36 36 36 36 37 39 39 37 37 37 37 37 37 37 38 38 38 40 41 39 38 38 37 37 40 45 44 42 41 42 43 43 41 40 40 40 37 34 34 35
37 36 35 34 34 35 35 37 38 37 35 35 35 35 35 35 35 35 36 41 42 42 42 42 42 42 44 44 44 43 43 43 44 41 39 37 36 36 36 34 32 32 32

GFSMW_sfc_temp_003.txt.gz
Temp
63 65 64 62 62 62 63 64 68 68 70 63 64 63 67 62 63 64 66 66 66 66 64 66 63 61 63 64 63 62 60 61 56 56 59 58 59 60 63 64 63 64 63
63 63 62 60 60 60 60 63 65 66 67 67 66 65 63 63 65 65 66 66 66 66 65 66 66 64 64 64 62 62 62 62 58 59 52 55 56 60 64 64 62 62 64
60 59 59 58 58 59 59 63 64 65 66 67 66 65 64 63 62 62 63 66 67 68 67 69 67 66 64 65 64 63 62 61 58 60 60 52 51 49 53 59 64 64 63
58 59 60 59 58 58 59 62 63 64 67 65 64 63 61 61 62 63 64 65 66 68 69 69 68 66 65 65 65 66 64 64 62 58 62 63 55 50 50 52 54 57 61
58 59 59 60 59 58 58 59 62 63 63 63 62 60 59 60 61 62 62 63 64 65 66 67 67 66 66 66 67 68 66 65 63 63 63 59 61 60 57 55 60 53 57
58 59 59 60 59 57 58 59 60 61 61 61 61 60 59 59 59 59 59 60 62 63 64 64 65 66 66 66 67 67 68 66 65 65 65 62 58 59 56 55 57 59 62
57 57 57 57 57 57 57 60 59 59 60 60 60 59 59 58 58 58 58 58 59 60 62 63 65 67 67 67 67 66 65 65 65 65 64 65 63 64 63 59 58 59 63
56 57 56 56 56 57 57 58 59 59 60 59 59 59 59 58 58 58 58 58 58 59 61 61 61 62 66 68 67 66 65 65 64 64 64 65 65 65 63 61 59 57 59
56 57 56 56 56 57 58 58 59 59 59 59 58 58 58 58 58 57 57 57 59 64 63 61 60 62 62 62 61 62 63 65 65 65 65 64 65 64 65 64 63 58 53
56 56 56 57 58 57 57 57 57 57 57 57 57 58 57 57 57 57 56 57 60 60 60 59 59 60 61 61 61 61 62 61 62 63 62 63 64 63 63 63 63 61 57
55 55 56 57 57 57 55 55 55 56 57 57 57 56 56 56 57 57 57 58 59 59 60 60 60 60 60 60 60 60 60 60 60 61 60 61 62 62 62 62 62 60 59
55 56 57 56 54 54 54 54 55 55 54 55 54 54 54 54 54 55 56 58 57 58 58 59 58 59 59 60 59 59 60 59 59 59 59 59 61 59 61 60 60 61 60
55 54 53 53 52 52 52 52 53 53 54 54 53 53 53 53 52 53 55 56 57 57 57 57 57 58 58 58 59 59 59 58 60 57 57 58 58 58 58 59 58 59 60
55 52 51 50 49 50 50 50 50 51 52 52 51 51 51 52 52 53 54 54 55 55 55 56 56 57 57 57 58 56 56 56 56 56 56 57 57 56 57 57 57 58 57
51 51 49 46 46 48 48 49 49 50 50 49 49 49 49 50 51 51 51 52 53 53 54 54 54 55 56 58 55 55 55 53 52 53 55 56 55 52 54 55 55 55 54
51 49 48 45 45 44 46 47 46 47 48 47 47 48 48 48 48 48 49 50 50 50 51 51 51 52 55 54 54 54 52 53 51 51 52 53 52 54 55 55 54 54 53
48 47 45 45 45 45 45 43 44 45 45 45 46 46 46 46 46 47 47 47 47 48 48 48 50 50 51 54 54 53 53 51 49 49 49 50 55 53 55 54 53 54 54
46 45 43 43 44 44 43 43 44 43 43 43 43 44 44 44 45 45 44 44 45 45 46 47 48 48 51 52 52 51 50 48 48 48 48 49 48 49 49 50 49 49 51
44 44 45 44 43 43 43 42 41 40 41 40 41 42 42 42 42 42 42 43 44 44 45 46 47 46 48 50 50 50 48 47 47 48 47 47 46 49 49 47 45 46 47
47 45 44 45 44 43 40 39 38 37 37 39 40 41 41 41 40 40 41 42 42 43 44 44 45 47 47 47 48 48 47 44 45 44 45 47 47 48 48 45 43 41 43
45 46 44 41 39 40 38 37 36 35 38 39 40 40 40 39 40 40 40 40 40 41 40 41 43 43 44 44 47 47 45 43 43 42 42 43 46 46 46 47 45 44 46
42 43 41 38 39 39 37 35 33 37 37 37 38 38 38 39 41 38 38 38 38 37 37 38 40 42 42 45 45 45 46 46 42 41 42 42 44 44 46 46 47 47 46
43 42 37 37 39 38 36 33 34 36 36 35 35 36 37 37 38 36 36 36 36 35 36 37 37 37 40 40 44 44 45 45 42 42 42 43 44 45 43 44 44 43 39
40 39 38 37 37 38 36 34 35 36 35 34 34 35 35 36 36 36 36 35 34 34 35 35 35 35 37 38 40 41 41 42 41 41 40 43 44 43 41 40 40 36 35
40 39 36 34 35 34 33 35 36 34 33 33 34 34 34 34 34 35 34 34 36 37 35 35 35 34 34 38 42 41 39 39 40 41 40 39 38 36 36 35 36 36 35
37 35 35 34 33 32 32 34 34 33 32 33 33 33 34 33 33 32 33 38 39 39 40 40 39 39 41 42 41 41 41 41 41 37 35 33 34 33 34 33 33 34 35

GFSMW_sfc_temp_006.txt.gz
Temp
58 60 59 59 59 59 60 61 64 64 64 61 60 60 64 62 61 63 64 64 64 64 63 64 64 61 61 63 62 60 59 59 56 54 59 60 60 60 62 63 63 63 64
58 59 59 57 57 57 58 60 61 62 62 62 63 63 62 61 62 63 64 64 64 65 64 64 65 64 62 62 62 60 60 60 57 56 57 55 60 61 62 63 62 63 64
57 57 56 55 55 55 56 60 60 61 61 63 63 62 62 61 61 61 62 63 64 65 65 66 65 65 62 63 62 61 59 60 64 60 58 52 52 50 53 55 60 61 61
56 56 56 56 55 55 56 58 59 60 62 60 60 59 58 58 59 60 61 62 63 63 64 65 65 65 64 62 63 64 62 62 59 63 61 62 61 54 56 57 53 54 58
55 55 55 57 55 55 55 57 58 60 59 58 58 56 56 56 57 57 58 59 61 62 62 62 62 63 64 65 65 64 63 64 62 61 61 59 59 60 56 54 59 62 58
54 55 55 57 56 55 56 56 58 58 58 58 57 56 55 55 56 55 56 56 58 59 60 61 61 61 62 63 65 65 64 64 63 63 62 61 58 58 57 55 57 58 63
54 54 54 54 55 55 55 58 57 56 57 56 56 56 55 54 54 54 54 54 56 56 60 58 59 59 60 61 62 62 62 62 62 62 62 64 62 63 62 60 58 58 62
54 54 54 54 55 56 55 55 55 55 55 55 55 55 55 54 54 54 54 54 54 55 56 58 59 59 60 60 59 57 58 60 60 60 61 61 62 63 63 60 58 56 59
53 54 54 55 55 54 53 54 54 54 54 54 54 54 53 53 53 53 53 53 55 60 58 57 56 57 58 58 58 58 57 57 56 56 57 58 60 61 61 61 61 57 53
53 53 54 55 53 53 52 52 53 52 52 53 52 53 52 52 52 53 52 54 56 56 56 56 57 57 57 57 57 57 58 57 57 57 56 57 58 58 59 59 59 59 56
52 53 53 52 52 51 51 51 51 51 51 51 51 50 50 51 51 51 52 53 53 54 54 55 55 56 56 56 56 56 56 56 56 55 56 55 56 56 57 57 58 57 57
53 52 51 50 49 49 49 48 49 49 49 50 49 49 50 50 50 50 52 53 52 53 53 54 54 54 55 55 54 54 55 53 53 54 54 54 56 54 55 55 55 55 56
51 50 49 48 47 47 47 47 47 47 48 48 48 48 47 47 48 48 50 51 51 51 51 52 51 52 52 53 54 54 52 53 53 53 52 52 52 52 52 53 52 53 55
51 48 46 45 45 46 46 46 46 47 47 47 46 45 45 45 46 47 47 48 49 48 49 49 50 50 51 52 53 53 52 51 52 51 51 51 51 50 50 50 50 52 52
49 47 44 43 43 44 44 44 44 45 46 45 44 44 44 45 45 45 45 46 46 47 47 47 47 48 50 52 51 50 50 50 49 48 49 50 49 49 51 51 49 50 48
47 45 45 42 41 40 42 44 43 44 44 42 42 43 43 43 42 43 43 44 44 44 45 45 45 46 49 50 51 51 49 50 49 47 48 49 49 50 51 51 50 49 46
45 45 43 43 43 42 43 41 41 42 42 41 41 42 42 41 41 42 42 41 41 42 42 43 44 43 45 49 50 50 47 48 48 47 46 46 49 46 46 47 49 47 48
44 43 42 42 41 42 41 41 41 40 39 39 39 40 40 39 40 40 39 39 40 40 40 41 42 42 44 47 48 48 45 44 44 44 44 44 43 44 45 44 43 44 45
42 42 42 42 41 41 40 39 38 37 38 38 37 39 39 38 38 37 37 38 38 38 39 41 40 40 41 46 47 46 42 41 41 43 43 44 43 45 46 43 41 41 43
43 42 43 44 41 38 38 37 35 35 35 36 37 38 38 37 36 36 36 38 38 38 39 39 39 41 40 44 45 44 41 39 40 41 42 45 44 45 45 41 40 38 41
45 45 42 41 39 37 36 34 33 33 35 36 36 36 36 36 36 36 37 36 36 36 35 36 37 38 39 40 44 44 41 39 39 39 39 40 43 44 44 44 42 40 43
42 42 38 41 41 40 35 33 31 34 34 34 35 35 35 36 38 34 34 35 34 33 33 34 35 38 38 41 41 43 43 43 38 37 38 39 42 43 44 44 44 43 42
42 42 41 40 40 36 33 31 32 33 33 32 32 33 34 34 34 32 33 32 33 32 32 33 33 34 36 37 41 42 42 41 39 38 39 41 41 42 41 41 42 41 36
40 40 39 38 35 34 34 32 32 33 32 30 31 32 32 33 33 33 34 32 31 31 31 32 31 32 34 35 37 38 37 39 37 38 37 39 40 40 39 38 38 36 35
40 39 37 33 32 32 31 32 32 31 30 29 30 31 32 31 32 33 32 32 33 34 33 33 33 32 31 34 39 39 37 35 37 37 34 33 32 31 32 33 34 35 34
38 34 32 31 30 30 30 30 32 30 29 30 31 31 31 31 31 31 31 36 37 38 38 38 37 36 38 39 39 39 37 38 38 33 29 28 28 28 30 30 31 33 34

GFSMW_sfc_temp_009.txt.gz
Temp
56 57 56 56 57 58 58 58 60 59 60 60 59 58 59 60 59 60 62 63 62 62 60 62 62 61 60 62 62 58 57 58 57 57 59 61 61 60 61 62 63 62 63
54 55 55 54 54 54 56 57 59 59 59 59 60 60 60 60 61 61 62 62 62 62 61 61 62 62 60 60 60 59 58 58 58 57 56 54 58 57 60 61 61 61 63
53 53 53 53 53 53 53 57 57 59 59 59 60 60 60 60 59 59 60 61 62 62 61 61 61 61 59 60 61 59 58 57 60 60 57 52 52 53 55 54 59 60 60
52 53 54 53 53 53 54 56 57 59 60 58 58 55 54 55 55 56 57 58 59 60 60 60 60 60 61 59 60 63 62 60 57 60 61 61 60 55 55 60 56 58 59
53 53 54 55 53 53 53 54 56 57 56 56 54 53 53 53 53 54 55 55 57 57 57 57 57 57 59 59 60 61 62 63 60 60 60 60 58 58 55 53 59 63 60
52 52 53 55 54 53 53 54 55 55 55 55 54 53 52 52 53 52 53 53 54 55 57 58 56 54 54 55 56 57 58 59 60 60 60 59 57 57 56 55 56 57 60
51 52 52 53 53 52 52 55 53 53 53 53 53 52 51 51 50 50 50 51 53 54 55 54 55 55 55 54 54 53 53 54 54 55 57 58 58 59 58 57 56 55 60
51 51 52 52 51 52 51 51 51 51 52 51 51 51 51 51 51 50 50 51 51 52 53 54 55 55 55 55 55 53 51 52 51 51 53 54 56 57 57 56 54 52 54
51 51 52 51 50 49 50 50 50 50 50 50 50 49 49 49 49 49 49 49 50 55 54 53 53 54 54 54 54 54 53 53 52 51 50 51 54 55 55 56 55 53 49
51 51 51 50 49 49 49 49 50 49 49 49 48 49 48 48 48 48 48 49 50 51 51 51 52 52 53 53 53 52 53 53 53 53 52 51 53 53 53 53 54 54 51
50 50 49 48 48 48 48 47 48 48 47 48 47 46 46 46 46 47 47 48 48 49 49 50 50 50 50 51 50 51 52 51 51 51 51 50 52 51 51 52 52 51 51
50 49 48 47 47 46 46 46 46 46 46 47 46 45 45 46 45 45 46 47 46 47 47 48 47 47 48 48 48 48 50 49 48 49 49 49 52 49 50 49 49 49 49
49 47 46 46 45 45 44 44 44 45 45 45 44 44 43 43 42 43 44 45 45 45 45 45 45 45 46 46 47 48 48 47 47 48 48 48 48 46 46 46 46 48 49
49 47 44 44 43 44 44 43 43 44 44 44 43 42 42 41 41 41 42 43 43 43 43 43 44 44 45 46 47 46 46 46 47 47 48 47 46 46 46 46 43 44 43
46 45 43 42 42 42 42 42 42 43 43 42 41 40 40 40 40 39 40 41 41 42 42 42 42 43 44 47 45 45 44 44 44 45 46 46 46 47 49 46 43 42 41
46 44 43 40 40 39 40 41 41 41 41 40 39 40 39 39 38 39 39 39 39 39 40 40 40 40 44 46 47 46 44 43 42 41 43 44 45 45 48 47 47 46 41
44 43 42 41 41 40 40 39 39 40 39 38 38 38 38 37 37 38 38 37 37 37 37 38 39 39 40 44 45 46 44 41 40 40 40 41 44 43 42 44 46 45 45
43 42 41 40 40 40 40 40 42 39 37 36 36 37 36 36 36 36 35 35 36 36 36 36 38 37 39 43 44 45 41 40 40 40 39 39 39 41 42 42 42 40 40
41 41 41 40 39 39 43 41 37 35 35 35 34 35 35 35 35 34 34 35 35 35 35 37 36 35 36 41 43 42 39 38 38 40 40 39 39 43 44 41 38 37 38
42 41 40 41 43 41 38 37 37 34 32 34 34 34 34 34 33 33 33 35 34 35 36 35 35 37 36 40 41 41 39 36 37 37 37 41 41 43 43 39 37 34 36
41 41 42 41 40 40 39 37 36 32 33 34 34 33 33 32 32 32 33 33 32 33 32 33 34 34 36 37 40 41 39 37 35 34 36 37 41 41 42 42 38 36 39
40 40 38 40 40 40 39 36 31 32 32 32 32 32 31 33 35 31 31 31 31 30 30 30 32 34 35 38 39 41 41 41 36 35 35 36 40 40 41 40 40 41 40
38 40 38 37 40 39 36 30 31 31 31 30 29 30 30 31 31 28 30 30 30 29 29 30 30 31 34 35 38 39 40 40 37 36 37 39 39 38 36 37 38 38 34
37 38 39 38 37 35 32 30 30 31 29 27 27 29 28 31 31 30 31 30 28 28 29 30 30 30 31 32 34 35 36 38 36 34 34 35 36 36 34 33 33 33 33
40 39 37 35 31 30 29 29 30 29 28 28 28 28 29 27 29 30 30 30 31 32 32 31 32 30 29 32 38 37 36 35 34 36 31 29 29 27 28 29 31 31 31
38 36 32 29 29 28 28 29 30 29 27 28 29 29 29 28 29 29 29 35 36 37 37 37 36 35 37 38 38 38 38 37 38 32 27 25 26 26 26 27 27 29 30

GFSMW_sfc_temp_012.txt.gz
Temp
53 54 54 54 55 55 55 55 58 56 58 58 57 57 58 59 59 60 60 61 60 60 59 58 59 59 57 59 62 62 58 58 57 56 58 59 60 60 60 61 60 61 62
52 53 53 52 52 52 54 57 57 57 57 58 58 59 58 59 59 59 60 60 60 60 60 58 58 58 57 57 57 57 59 59 60 56 56 53 57 57 60 60 60 60 61
52 51 51 51 51 51 52 55 55 57 57 57 58 58 58 57 56 56 57 57 58 59 58 57 57 57 57 57 57 58 58 57 60 60 56 53 53 58 61 55 58 59 59
51 52 53 52 52 51 53 54 55 55 56 54 55 53 52 51 51 52 53 55 55 56 57 56 55 54 55 54 55 58 57 57 57 60 61 59 57 54 53 62 57 58 58
51 51 52 53 52 52 51 51 54 54 53 54 52 52 51 50 51 51 52 52 54 54 55 55 53 53 53 52 51 52 53 53 53 54 55 55 55 56 54 51 56 61 61
50 51 52 52 51 50 51 51 53 52 52 53 51 50 49 49 50 50 50 51 52 52 53 54 53 52 52 52 52 51 50 50 51 51 52 51 50 51 51 50 51 52 57
49 50 50 50 50 49 50 52 51 50 50 50 50 49 48 47 47 47 48 48 50 50 51 51 51 52 52 52 52 50 49 49 49 49 49 51 51 52 52 50 50 51 54
48 50 50 49 48 49 49 49 49 49 49 49 48 47 47 48 48 47 47 47 48 48 50 50 50 50 51 51 51 50 48 49 48 47 48 49 51 51 51 50 49 47 49
48 49 48 48 47 47 47 48 48 48 47 47 47 45 46 45 45 45 45 46 46 51 49 47 47 48 49 49 49 48 48 49 48 46 46 47 49 49 50 51 50 47 43
48 48 48 47 46 47 46 47 47 46 46 46 45 45 44 44 44 44 43 44 45 45 45 46 46 46 46 47 46 47 47 47 47 49 46 47 48 48 49 49 49 48 46
49 48 47 46 46 45 45 45 45 45 45 45 44 43 44 43 43 42 42 42 42 43 43 44 44 44 44 45 44 45 46 46 45 45 45 45 47 47 47 47 46 45 45
49 47 45 45 45 44 44 44 44 44 44 44 43 42 42 41 40 40 40 41 40 42 42 42 42 42 43 43 43 42 43 43 42 43 43 44 48 44 44 44 43 43 45
47 45 44 44 43 43 43 43 43 42 42 42 41 40 39 38 38 38 40 41 40 40 41 41 40 41 41 41 42 42 42 42 42 43 43 42 43 42 42 41 41 45 45
46 44 43 42 43 43 42 41 41 41 41 41 40 38 38 37 37 38 38 39 39 38 39 39 39 40 40 41 42 42 42 42 42 42 41 41 41 41 41 41 41 43 39
45 44 43 40 40 40 40 40 40 40 40 39 38 37 38 37 37 36 36 37 37 38 38 38 38 38 40 43 41 42 41 41 40 40 40 41 42 44 44 42 40 40 39
45 44 42 40 38 38 39 39 39 39 39 38 39 37 37 36 36 36 36 36 36 36 36 36 36 36 40 43 44 43 40 40 39 37 39 39 41 41 44 44 45 44 39
44 42 40 40 39 39 39 37 37 38 38 39 36 36 36 35 35 35 34 34 34 33 34 34 35 35 36 41 43 43 40 38 37 37 37 38 41 40 39 41 43 43 44
42 41 40 39 38 38 38 38 40 40 37 35 34 35 34 33 33 32 32 31 33 32 33 33 34 34 36 40 41 42 38 37 37 37 37 37 37 38 39 38 36 35 38
40 40 39 38 37 38 41 41 38 34 34 36 34 33 33 32 32 31 30 31 31 32 32 34 33 32 33 39 40 40 37 36 36 37 37 36 36 40 42 37 35 35 35
40 39 38 39 39 37 36 35 34 36 36 35 32 32 32 31 30 29 30 31 31 32 33 32 32 34 33 37 39 39 37 35 35 35 36 39 39 41 41 37 35 31 32
39 39 39 37 36 37 39 34 33 35 33 32 31 31 31 29 30 29 30 31 30 30 29 30 31 31 33 34 39 40 37 35 34 33 34 36 39 39 39 39 34 33 37
38 38 36 38 40 39 34 32 35 31 30 30 30 29 29 31 33 28 29 28 28 28 28 29 29 32 33 37 37 39 40 39 35 33 35 35 36 38 38 36 37 37 37
37 37 36 36 35 34 36 31 30 29 29 28 27 28 29 29 29 26 28 28 28 28 27 28 28 30 32 33 37 38 38 38 36 35 35 36 36 36 34 35 35 35 30
35 36 37 37 37 36 31 29 29 29 28 25 26 27 26 29 28 29 29 27 27 26 29 29 29 29 30 31 32 34 34 36 35 34 31 34 34 34 33 31 30 28 29
37 38 37 35 34 29 28 28 29 28 27 26 27 27 28 25 27 28 27 28 29 30 30 31 31 29 28 31 36 36 35 34 35 35 32 29 27 26 26 27 27 27 27
37 36 34 31 28 27 27 28 28 28 25 26 28 28 28 26 28 27 27 34 35 36 36 36 35 34 36 37 37 37 37 36 37 31 27 25 24 24 25 24 25 25 27

GFSMW_sfc_temp_015.txt.gz
Temp
59 59 60 60 62 62 63 62 63 63 67 66 66 67 65 66 66 66 67 67 67 67 67 67 67 66 65 65 65 64 63 63 66 58 59 63 67 68 69 70 69 68 68
58 58 58 59 59 60 61 62 62 62 63 65 65 66 66 65 64 64 64 65 65 64 65 63 63 64 64 64 64 63 61 62 65 59 58 55 62 69 66 69 69 69 70
57 57 57 57 58 57 58 60 61 61 61 63 65 65 64 63 62 61 61 61 63 62 62 61 61 61 61 60 60 60 59 57 61 63 57 53 53 56 64 67 69 69 68
56 56 57 57 57 57 58 59 59 60 60 62 61 59 59 57 58 59 60 60 60 60 60 60 59 59 59 58 58 60 58 57 55 58 63 59 58 52 52 64 65 68 68
56 55 55 56 56 56 56 57 58 57 58 59 59 58 56 57 57 57 57 58 59 59 58 58 57 57 58 57 57 57 56 57 54 54 54 55 56 57 53 49 56 61 64
55 55 55 55 55 55 56 56 56 55 56 56 56 55 55 55 55 54 54 55 56 56 56 56 56 56 56 55 56 56 55 54 54 54 54 52 50 51 50 49 51 52 58
54 54 54 54 54 54 55 56 55 53 55 55 54 54 53 53 52 52 52 53 53 53 53 54 54 54 54 54 54 52 52 52 51 51 52 53 52 53 52 50 49 50 55
54 54 54 53 53 53 53 54 53 52 53 53 52 53 52 52 52 51 51 51 51 52 52 52 52 52 52 52 52 51 51 51 50 50 50 51 51 52 52 50 46 44 47
52 53 52 53 52 52 52 52 52 51 51 51 51 51 51 50 49 50 50 50 50 51 50 50 50 50 50 50 50 49 50 50 51 50 49 49 50 51 51 51 50 46 40
52 52 52 51 51 51 51 51 51 50 50 50 50 49 49 49 49 49 48 47 48 48 48 48 48 48 49 49 48 48 49 49 48 50 47 48 49 49 50 50 50 49 43
52 51 51 50 50 50 50 49 50 49 48 49 48 48 47 47 47 47 47 47 47 47 46 46 46 47 46 47 47 47 48 46 46 47 46 46 48 47 47 48 48 46 45
52 51 49 48 48 48 48 48 48 47 47 47 47 46 46 46 45 45 45 46 45 46 45 45 45 45 45 45 45 44 45 45 44 45 45 44 46 44 45 46 44 44 44
49 48 47 47 47 47 47 47 46 46 46 46 46 45 44 44 44 44 44 44 44 44 44 43 43 43 43 43 44 45 44 44 44 45 43 43 43 42 43 43 42 43 44
49 47 46 46 46 46 46 45 45 45 45 45 44 43 43 43 42 43 43 42 43 42 42 42 42 42 42 42 44 44 44 44 44 44 43 42 42 41 42 42 42 43 41
47 46 45 45 45 44 44 44 44 44 44 43 42 42 42 42 42 41 41 41 41 41 41 40 41 41 41 43 42 43 42 42 42 42 42 42 42 42 43 42 41 41 39
47 46 45 44 43 43 43 43 43 43 43 42 41 41 40 40 40 40 40 39 39 40 39 39 39 39 40 41 42 42 42 41 40 39 41 42 41 42 42 42 43 42 37
47 46 44 43 43 43 43 42 42 42 41 40 40 39 39 38 38 38 38 38 37 38 37 38 38 38 38 40 41 41 41 40 40 39 40 40 42 41 40 41 42 40 41
45 44 43 42 42 42 42 42 42 41 39 39 38 38 37 37 37 37 36 36 37 36 37 37 37 37 38 39 40 40 40 40 39 39 40 39 38 40 40 40 35 39 39
44 43 43 41 41 41 42 41 39 39 38 38 37 36 36 36 36 35 35 36 36 36 36 36 36 35 35 38 38 40 39 38 38 40 40 38 39 40 41 35 36 36 37
42 41 41 41 41 40 40 40 38 37 37 36 35 36 36 35 34 35 35 36 36 35 35 35 35 35 35 36 38 39 39 37 37 37 38 39 39 40 38 37 35 31 33
40 41 41 40 39 40 41 38 37 36 35 35 35 35 35 34 35 35 35 34 34 34 33 33 34 35 35 36 38 39 38 37 34 34 36 38 39 37 39 39 35 33 36
39 39 38 38 42 41 39 36 35 35 34 33 33 33 34 34 35 33 33 33 32 31 31 32 32 35 36 37 37 38 39 39 36 35 37 37 36 38 37 36 36 36 35
38 39 39 39 38 37 37 34 34 33 32 32 32 32 33 33 33 32 32 32 31 30 30 31 31 32 35 35 37 37 37 38 36 37 36 37 37 37 35 34 35 34 30
37 37 37 37 37 37 35 33 32 32 31 30 31 32 32 34 34 32 32 31 30 29 31 31 31 31 33 33 35 35 35 37 35 34 35 35 35 35 33 32 32 30 30
37 37 37 38 36 33 32 31 32 31 31 31 31 31 32 30 30 31 31 31 33 33 32 32 32 30 30 33 36 36 35 35 34 35 33 31 30 28 29 29 29 29 29
36 35 36 35 32 30 30 31 31 31 29 30 31 31 31 30 30 30 30 33 34 36 36 36 35 35 36 36 37 37 36 36 36 32 28 26 27 26 26 26 26 27 27

GFSMW_sfc_temp_018.txt.gz
Temp
69 70 71 73 73 74 74 75 75 76 78 78 76 75 72 73 73 73 73 73 73 73 72 72 72 72 71 71 71 70 69 69 71 68 68 70 73 74 76 76 75 76 77
69 69 70 71 72 72 73 73 73 74 75 75 75 74 72 71 71 70 70 71 71 70 70 69 69 69 69 68 67 67 65 66 68 63 62 61 66 73 71 71 72 74 76
68 68 69 69 69 69 70 70 71 71 73 74 73 72 72 71 69 68 68 68 69 68 68 67 67 67 66 65 65 64 62 60 64 66 60 56 56 59 66 68 70 72 72
69 68 68 67 67 67 69 69 70 70 71 72 71 69 68 64 66 67 67 67 67 66 65 65 65 65 65 63 63 64 62 61 58 61 64 62 60 53 53 64 65 68 67
68 66 65 65 66 66 66 67 68 68 68 69 69 68 65 65 66 66 65 65 65 64 63 63 62 62 62 62 61 60 60 61 58 57 57 58 59 59 54 51 56 62 64
67 66 64 65 64 65 65 65 65 65 66 66 66 64 63 63 63 62 63 63 64 63 61 61 61 61 59 59 59 59 58 58 56 57 57 55 53 52 52 51 52 54 59
65 63 63 64 64 63 63 64 64 62 64 64 63 63 62 61 60 61 61 60 61 60 58 59 59 59 58 58 58 56 55 55 53 54 55 56 54 55 53 51 52 51 55
66 65 64 64 63 62 63 63 62 61 62 61 61 61 61 60 60 59 59 59 58 58 57 57 57 57 57 57 57 55 54 55 55 54 54 54 54 54 53 51 49 45 48
64 64 63 64 63 62 62 61 60 60 60 60 60 60 60 59 57 58 58 56 56 56 56 56 56 56 56 56 55 54 54 55 55 53 54 53 53 54 54 53 51 45 40
64 63 63 62 62 61 60 60 61 59 58 59 59 58 58 58 57 57 55 55 55 55 55 55 55 55 55 54 54 54 54 53 53 53 52 51 52 52 52 50 50 49 46
63 63 62 61 60 60 60 59 59 58 57 57 57 57 56 55 56 55 54 54 54 54 53 53 53 53 52 53 52 52 52 50 50 51 50 49 51 49 49 49 48 47 46
64 63 61 59 58 58 58 58 58 57 56 56 55 54 54 54 54 53 53 53 52 53 52 52 51 51 51 51 50 49 50 49 48 49 48 47 49 47 47 47 46 46 47
61 61 59 58 58 57 57 57 57 55 55 54 54 54 53 53 52 52 52 52 51 51 51 50 49 49 48 48 49 49 48 48 48 48 47 46 46 45 45 45 45 46 45
60 59 58 58 58 57 56 56 55 54 53 52 52 51 50 51 51 50 50 50 50 49 49 49 48 48 47 47 48 47 47 47 47 47 46 46 45 44 43 44 43 43 42
59 58 57 57 56 55 55 54 53 53 52 51 50 49 49 49 49 49 48 49 48 48 48 46 47 47 47 48 44 44 44 44 45 45 45 45 44 43 44 43 41 40 40
59 58 57 57 55 54 53 52 51 50 51 50 48 47 47 47 47 47 47 47 47 47 46 46 46 45 46 44 42 42 42 43 43 43 44 45 43 44 43 43 43 42 39
59 56 56 55 53 53 53 51 51 50 49 48 47 46 46 45 46 46 46 45 45 46 45 45 45 44 44 43 41 41 42 42 43 43 42 43 45 43 41 43 43 42 40
57 56 55 52 52 52 51 51 50 49 47 46 46 45 44 44 45 45 45 45 45 45 44 44 44 43 43 41 40 39 42 42 43 43 42 42 41 41 42 42 39 38 41
56 54 54 52 50 50 51 50 48 45 46 45 44 44 44 43 44 44 44 44 44 43 43 43 42 41 41 40 39 40 41 41 41 42 42 41 40 41 41 38 34 36 39
52 50 50 50 51 50 50 48 44 44 45 44 43 44 44 43 43 43 43 43 43 42 42 41 42 40 40 40 39 40 40 38 40 40 40 41 41 41 40 37 38 32 35
48 49 49 49 49 49 47 43 42 44 44 43 43 43 44 43 43 43 43 42 41 41 41 40 41 41 41 40 40 39 39 38 37 37 39 41 40 39 39 39 37 35 36
46 48 48 47 48 47 45 41 43 43 43 42 42 42 43 42 42 41 42 41 40 39 39 38 38 40 41 40 39 39 39 39 36 36 39 39 38 38 37 37 37 37 36
46 48 48 46 44 43 45 44 43 42 41 41 41 42 42 42 42 41 39 39 39 37 37 36 36 37 39 40 39 39 39 38 37 39 38 37 37 36 36 36 36 35 33
46 46 46 43 41 43 42 42 42 41 40 40 41 41 41 40 41 40 40 38 37 36 35 35 35 35 36 37 38 38 38 38 38 36 36 37 36 35 35 34 34 34 32
45 45 45 45 44 42 41 41 40 40 39 40 40 40 40 40 39 39 39 37 38 36 34 34 34 34 33 35 37 36 37 36 36 35 35 34 33 30 31 32 32 32 31
44 43 44 43 41 40 40 40 40 39 38 38 39 39 38 39 38 37 37 38 37 37 36 36 35 36 36 37 37 37 36 36 36 33 31 29 29 28 29 29 29 29 28

GFSMW_sfc_temp_021.txt.gz
Temp
74 75 76 77 77 78 78 78 79 79 80 79 77 75 72 73 72 73 74 73 73 73 72 71 72 71 70 70 69 68 66 66 68 64 65 67 68 71 71 70 70 70 72
73 73 75 76 76 75 76 75 76 78 78 77 75 74 73 72 71 71 71 72 71 70 70 68 68 68 67 67 65 65 62 63 65 60 59 56 61 68 66 66 68 69 70
71 72 72 72 73 72 73 73 74 74 74 74 73 73 72 71 70 69 68 69 69 68 67 66 66 65 65 63 63 62 60 58 61 63 57 52 51 55 61 63 65 66 65
73 72 71 70 70 70 72 72 73 73 74 75 73 71 68 65 67 68 68 68 67 65 65 64 64 63 63 61 61 62 60 59 56 58 61 58 57 50 49 60 60 63 63
72 70 69 69 69 69 69 70 70 70 72 72 71 69 67 67 67 68 67 67 67 65 63 63 62 61 61 60 59 58 58 59 56 55 55 55 56 56 51 47 52 57 60
71 69 68 68 66 67 67 67 68 68 69 68 68 67 65 65 64 64 64 64 65 63 61 61 61 60 59 57 58 58 56 55 55 54 54 53 51 50 49 47 48 48 54
68 66 65 65 65 65 65 67 67 65 67 66 66 65 64 63 62 62 62 61 61 60 58 59 59 58 58 58 57 55 54 53 53 53 53 54 53 53 51 49 47 46 51
68 66 67 66 65 65 66 66 65 64 65 64 64 64 63 62 62 61 60 59 58 58 58 58 58 58 58 57 57 54 54 53 53 52 52 52 53 53 52 49 46 42 44
67 67 67 66 65 65 65 64 63 63 63 63 63 62 62 61 59 60 60 58 58 58 57 57 56 56 56 56 55 54 53 54 53 52 52 51 52 52 51 51 49 43 36
67 67 66 66 66 65 64 64 64 62 61 62 61 61 60 60 59 59 57 56 57 57 56 55 55 55 55 55 54 53 53 52 52 52 51 50 51 50 50 49 48 46 42
67 66 66 66 64 64 63 62 61 60 60 60 60 59 58 58 58 57 56 55 56 55 55 54 54 53 53 53 52 51 51 50 50 50 49 48 49 48 48 47 46 45 44
67 67 66 64 62 62 62 61 61 60 59 59 58 57 57 57 56 55 55 55 54 55 53 53 52 52 51 51 50 49 49 48 47 48 47 47 49 46 46 45 44 43 44
66 66 64 62 62 61 61 60 60 58 58 58 57 56 55 54 54 54 53 53 53 52 52 51 50 49 49 49 49 49 47 47 47 47 46 45 45 44 44 43 42 42 43
65 64 63 62 62 61 60 60 58 58 56 56 55 53 52 52 52 52 52 51 51 50 50 50 49 49 49 48 48 47 45 45 45 45 45 45 44 43 42 42 41 41 38
63 63 62 62 61 60 59 59 57 56 55 54 52 51 51 51 51 50 50 50 50 49 49 48 48 49 48 49 46 44 43 42 42 43 45 45 45 44 44 43 40 38 36
63 63 62 62 61 59 58 56 54 53 54 52 50 50 50 49 49 49 48 48 48 48 48 47 47 47 47 47 45 44 41 41 41 41 43 44 44 44 44 44 43 42 37
64 62 62 61 60 58 57 54 54 53 52 50 49 49 49 48 47 48 47 47 47 47 47 47 47 46 45 45 44 43 40 40 41 41 42 42 45 43 41 42 42 42 42
64 62 61 60 58 58 56 54 53 51 50 48 48 48 47 46 47 47 46 46 47 46 46 45 45 44 45 44 43 42 40 41 41 41 41 41 40 40 40 39 36 36 37
62 61 60 57 55 53 53 52 50 48 47 47 47 47 46 45 45 45 45 45 45 44 44 44 43 43 43 43 42 41 40 39 39 41 41 40 39 41 41 37 32 34 36
57 56 55 54 53 52 52 50 48 47 47 46 46 46 46 45 44 44 44 45 44 43 43 43 44 43 42 43 42 41 39 37 38 38 39 40 40 41 40 36 35 30 32
52 53 52 52 51 51 51 48 46 46 46 46 46 46 46 45 45 44 44 44 43 42 42 41 43 42 43 42 42 41 39 38 36 34 36 38 40 39 39 39 35 33 35
49 51 51 49 50 50 49 45 45 46 46 45 44 44 45 45 44 43 43 43 42 40 40 40 39 41 42 42 41 41 40 40 35 34 36 37 37 38 38 37 37 37 36
49 51 50 48 48 47 48 46 45 45 44 44 44 44 44 44 44 42 41 40 40 39 38 37 36 37 39 39 40 40 39 39 36 37 37 36 37 37 36 36 36 35 30
48 50 49 46 44 45 44 45 44 44 43 43 43 43 42 42 42 42 42 40 39 37 36 34 33 34 35 36 37 37 36 37 36 35 33 36 36 36 34 33 33 31 30
48 49 48 46 45 45 44 44 43 43 41 42 42 42 42 41 40 41 41 39 40 38 34 34 34 31 31 34 37 37 35 34 35 35 33 32 30 28 29 29 29 29 29
47 47 47 46 44 44 43 43 43 41 40 39 40 40 39 40 40 39 39 41 40 40 39 38 37 37 37 38 37 37 36 36 36 32 29 27 27 26 27 26 26 27 27

GFSMW_sfc_temp_024.txt.gz
Temp
66 67 66 66 66 68 68 68 68 69 69 67 66 65 62 61 61 62 64 63 63 62 59 58 59 58 57 57 58 56 54 53 54 51 54 54 58 56 57 60 60 60 64
63 64 65 64 65 64 65 66 67 68 68 67 65 65 62 61 60 61 61 62 60 60 61 56 56 56 54 54 53 52 50 51 52 48 48 44 50 53 57 57 57 59 57
62 62 61 61 61 61 62 64 64 64 64 65 66 64 61 59 57 57 57 58 59 58 57 56 54 53 53 51 50 50 49 46 49 50 46 41 40 47 51 54 55 55 58
64 63 61 60 59 59 61 63 64 64 64 63 61 59 56 54 55 56 57 57 58 56 56 55 54 52 51 49 49 53 48 47 45 47 53 47 45 42 42 48 52 54 54
64 61 60 61 60 59 58 59 61 61 61 61 60 57 55 55 55 55 55 56 55 55 54 54 52 51 50 49 48 48 47 47 45 45 44 45 45 46 43 39 43 49 50
62 60 60 60 57 57 57 57 58 58 59 58 57 55 54 53 53 52 52 52 52 51 52 53 51 50 49 48 48 47 46 45 45 45 44 44 41 42 42 41 42 42 47
60 58 56 56 56 56 57 58 57 56 57 56 55 55 53 52 51 50 50 49 49 48 48 49 49 48 48 49 48 46 44 44 43 43 44 44 44 46 45 43 41 40 44
59 58 56 56 55 56 56 56 56 55 55 54 53 53 53 51 51 50 49 48 48 47 49 48 48 48 49 48 47 45 44 45 42 42 42 43 45 45 45 43 40 37 39
58 58 57 56 55 55 55 55 54 54 54 53 52 51 51 50 49 49 49 48 48 53 48 47 47 47 47 47 46 43 43 43 43 42 41 42 44 44 44 43 43 38 32
59 58 58 57 56 56 55 55 54 53 53 52 52 51 50 50 49 48 47 48 48 48 47 46 46 46 46 46 44 43 43 43 42 45 43 43 44 43 44 42 42 40 37
59 59 58 57 55 54 54 53 52 52 51 51 50 49 49 49 49 47 47 46 47 46 46 46 45 45 44 44 42 42 43 43 41 42 43 42 43 42 42 42 41 39 38
60 59 57 56 53 53 52 52 52 51 50 51 49 48 48 48 46 46 46 47 45 46 45 45 44 44 43 42 41 41 41 40 40 40 41 41 44 40 41 40 39 38 38
58 57 56 54 52 52 52 51 51 49 50 50 48 47 46 45 44 44 45 45 44 43 43 43 42 42 43 42 41 42 39 39 39 39 39 39 39 39 39 38 37 38 40
59 57 55 53 52 52 51 50 49 49 49 48 47 45 44 44 43 44 44 44 43 42 42 42 42 42 42 43 43 41 39 38 39 39 39 39 39 39 38 39 38 40 37
57 56 54 53 51 51 50 49 48 48 48 46 45 43 44 44 44 43 43 43 42 42 42 41 41 41 42 46 42 41 38 37 37 37 38 39 41 44 43 41 39 37 35
57 56 55 53 51 49 49 49 47 47 47 45 44 45 44 44 43 42 42 41 40 40 40 39 39 39 44 46 46 44 39 37 36 35 37 39 41 41 43 43 43 41 36
56 56 54 53 52 50 49 46 45 46 45 44 44 45 44 43 42 41 40 39 38 38 37 37 38 37 37 45 46 45 40 36 36 36 36 37 40 39 37 39 41 37 39
56 54 53 51 50 49 47 46 46 44 44 43 46 45 43 41 40 39 38 37 37 36 36 36 36 36 39 44 45 44 38 36 36 36 36 36 36 37 38 37 34 34 34
53 52 51 49 48 46 46 45 43 43 43 43 43 42 41 39 38 37 35 36 35 35 34 36 36 35 37 43 44 42 37 36 35 37 37 36 36 39 41 36 31 31 33
51 49 48 48 47 45 45 43 42 41 41 41 41 40 40 38 36 35 35 35 35 36 38 37 36 38 36 41 43 42 38 35 35 35 35 37 38 40 40 35 33 29 30
47 47 46 45 43 45 45 41 40 39 40 41 40 40 38 37 36 35 35 34 34 34 33 34 34 33 35 37 42 41 38 35 34 31 32 34 38 38 38 39 33 32 35
45 46 44 44 44 44 42 40 38 39 40 39 39 37 36 39 40 34 33 33 32 31 31 31 32 34 34 38 38 40 40 39 34 32 33 34 37 38 38 36 36 37 35
45 45 44 42 41 41 40 38 37 39 39 37 35 35 36 36 36 33 32 31 31 30 30 31 30 31 33 33 37 38 39 38 35 34 35 36 37 36 34 34 35 34 28
42 44 42 39 37 38 39 38 38 38 37 34 34 35 34 35 34 34 33 31 30 30 31 31 30 30 31 31 33 35 34 36 34 34 31 34 34 34 32 30 30 28 28
43 43 40 38 37 37 37 37 38 36 33 33 32 33 33 32 31 32 31 30 31 33 33 32 31 30 30 32 38 37 35 34 34 34 30 28 27 25 26 27 27 28 27
41 40 39 37 37 37 37 36 36 34 33 31 31 31 30 30 30 30 32 38 39 40 39 39 37 36 38 39 38 38 37 36 36 30 26 24 24 24 25 25 24 25 26

GFSMW_sfc_temp_027.txt.gz
Temp
61 63 63 64 63 63 64 64 64 65 67 65 63 62 58 60 60 60 60 59 58 58 55 54 54 53 52 51 53 51 49 49 49 46 49 48 51 50 51 56 52 55 57
58 60 61 61 61 59 60 61 62 62 64 64 61 59 58 57 57 56 56 57 56 56 56 52 51 51 50 49 48 47 46 47 47 44 42 41 45 48 53 50 54 51 52
59 57 56 57 57 58 59 60 61 62 63 63 63 61 58 55 54 53 53 54 55 54 53 52 50 49 48 46 46 46 45 43 44 45 43 38 36 43 46 51 49 50 51
59 58 57 55 56 55 57 59 60 61 61 61 59 56 53 51 52 52 52 52 53 52 52 52 50 48 47 46 46 49 44 43 41 43 49 44 41 37 37 44 48 49 50
59 58 57 57 56 55 54 55 56 57 57 56 56 55 51 51 51 51 50 50 50 51 51 50 48 47 46 45 45 44 43 43 42 41 41 41 40 40 37 36 39 46 47
57 57 57 57 54 53 53 53 56 54 55 54 53 52 50 50 49 48 48 48 48 47 48 50 47 46 46 45 44 44 43 42 42 41 41 40 39 39 38 37 39 39 43
56 55 54 54 52 52 52 54 54 52 52 53 52 50 49 48 47 47 46 46 46 45 45 46 45 44 45 45 44 43 42 41 40 39 39 41 40 41 42 40 38 37 41
55 54 54 53 52 53 52 52 52 51 51 50 49 49 49 47 47 47 46 45 45 45 45 45 45 45 45 44 43 41 40 42 39 39 38 39 40 42 41 40 37 34 36
54 53 54 53 51 50 51 51 51 50 50 49 48 47 47 47 46 45 45 44 45 50 45 44 44 44 44 43 42 40 40 39 39 38 37 37 41 41 41 40 40 35 30
54 54 54 53 51 52 50 50 50 50 49 48 48 48 47 46 46 45 44 44 44 44 44 43 43 42 42 42 40 39 40 39 38 40 37 38 40 40 41 39 38 38 35
54 54 54 54 52 51 51 49 49 49 48 47 46 46 46 46 45 44 44 43 43 43 43 42 42 42 41 41 39 39 40 38 37 36 38 38 39 38 39 39 38 37 36
55 54 54 52 51 50 50 49 48 47 47 47 46 45 45 44 43 43 43 43 42 42 42 42 42 41 42 41 39 38 38 36 35 36 35 36 40 36 37 37 37 36 37
54 53 52 51 51 49 49 47 47 46 46 46 45 44 43 42 41 41 42 43 42 41 42 41 41 41 41 39 38 38 37 36 35 35 35 35 35 34 35 36 36 37 39
54 52 51 50 50 49 49 47 45 46 45 45 43 42 41 41 41 41 42 41 41 40 40 41 40 40 39 39 39 38 36 35 36 35 35 35 35 35 36 37 37 38 35
53 52 50 50 49 48 46 46 45 45 45 43 42 41 42 42 41 41 41 41 40 41 40 39 38 38 39 44 41 40 37 34 33 34 36 36 38 41 41 39 36 35 34
53 52 52 50 48 47 46 47 44 44 44 42 41 42 42 42 40 40 40 39 39 38 37 36 36 35 41 44 45 44 39 35 33 33 35 36 38 38 41 41 41 40 35
52 52 52 50 49 47 47 44 43 43 42 42 42 43 44 41 40 40 38 37 36 34 34 34 34 33 33 44 45 44 40 35 32 34 34 35 38 37 35 38 40 39 39
54 53 51 50 48 46 45 44 43 42 41 41 43 44 42 40 39 37 36 34 34 33 33 33 33 32 36 43 43 43 38 34 33 33 34 34 34 34 36 36 34 33 33
53 50 49 47 46 45 45 43 41 41 41 41 40 41 40 38 37 34 33 33 32 32 31 33 32 31 32 41 42 41 36 35 34 35 35 35 34 37 40 35 31 30 30
48 46 46 45 44 43 44 42 39 39 40 40 40 39 39 36 34 33 32 33 32 33 34 33 32 35 31 38 40 39 35 33 33 33 33 37 36 39 38 34 32 27 29
45 46 45 43 42 42 42 39 38 38 39 40 39 38 37 35 34 33 32 31 31 31 29 29 29 30 31 33 39 39 36 34 32 30 31 33 37 36 38 38 31 30 34
43 44 42 42 41 40 40 36 35 37 38 38 37 36 34 36 37 32 31 30 29 28 27 27 28 29 30 36 37 39 39 38 34 32 32 33 35 37 36 34 35 36 34
42 43 41 39 37 38 38 35 35 37 36 36 34 33 34 34 33 30 30 28 28 27 29 29 29 30 32 30 37 38 39 39 35 33 34 35 35 34 32 33 34 33 27
40 40 39 37 35 36 36 35 36 36 35 32 32 32 31 33 31 31 30 27 27 26 30 30 30 29 31 31 33 35 34 36 33 33 30 32 32 32 31 29 29 28 27
40 39 38 36 34 34 34 34 35 34 32 31 30 29 30 29 28 29 28 27 29 32 31 31 31 29 29 32 38 36 34 34 34 33 28 27 26 24 25 27 27 27 26
38 37 35 34 33 34 33 34 34 33 31 29 29 29 29 27 28 26 27 35 37 38 38 38 36 34 37 38 37 37 36 36 35 29 25 23 23 23 24 24 24 25 25

GFSMW_sfc_temp_030.txt.gz
Temp
59 59 60 60 60 60 61 61 61 61 64 63 60 57 54 59 59 59 57 56 55 54 52 51 51 50 49 47 49 47 46 45 45 44 44 45 47 47 49 48 49 50 51
56 58 58 57 59 58 59 60 60 60 61 61 58 57 55 54 57 54 54 53 53 53 53 50 48 48 47 46 45 44 43 43 43 41 39 38 42 46 51 46 49 46 50
56 55 55 55 55 55 57 58 59 59 60 61 60 58 57 54 52 50 50 51 52 52 50 49 48 47 45 44 43 43 42 40 42 42 41 36 34 39 42 47 44 49 45
57 55 54 53 54 54 55 57 59 59 59 60 58 57 54 51 49 49 48 49 50 50 50 49 47 46 44 43 43 46 42 41 39 41 46 42 40 34 34 40 45 42 47
58 55 55 55 54 54 53 55 56 56 55 55 55 54 50 49 48 48 47 47 47 48 49 48 46 45 44 43 42 42 41 40 39 38 38 38 38 38 34 33 36 43 44
56 54 53 54 51 51 52 53 54 52 53 54 52 51 49 48 47 45 45 45 45 45 46 47 44 43 43 42 41 41 40 40 39 38 38 37 36 35 34 34 35 36 40
53 52 52 52 51 51 51 53 53 50 51 51 50 49 48 47 46 45 44 44 44 43 43 44 43 42 42 42 41 40 39 39 37 36 37 38 37 38 38 36 34 34 38
54 53 53 52 51 51 50 51 51 49 50 49 47 47 47 45 45 45 44 44 43 43 43 42 42 42 42 41 40 39 38 39 36 36 35 36 36 37 38 36 33 30 33
53 52 52 52 51 50 50 50 50 48 48 48 47 45 45 45 44 44 43 43 43 48 42 42 41 41 41 40 39 38 37 37 36 35 34 34 36 36 37 37 36 32 26
51 51 52 51 50 50 48 48 49 48 47 46 46 45 44 44 43 43 42 43 42 42 41 41 40 40 40 40 38 37 37 36 36 38 34 34 35 36 36 35 35 35 31
50 51 51 51 49 49 49 47 48 47 46 46 44 44 43 43 43 42 42 42 41 41 41 40 39 39 39 39 37 37 37 36 35 34 34 34 35 35 35 35 35 34 33
51 51 51 49 48 48 47 47 46 46 45 45 44 43 43 42 41 41 41 41 40 40 39 39 39 39 39 38 37 36 35 34 34 34 33 33 38 33 33 33 33 33 34
50 50 49 49 48 47 46 46 45 44 44 44 43 42 41 41 40 40 41 41 40 39 39 39 38 38 38 37 36 35 35 34 34 33 32 32 33 32 32 33 33 34 37
50 49 49 48 47 47 46 45 44 44 43 43 41 40 40 40 39 40 40 40 39 38 38 38 38 38 37 37 37 36 35 34 34 34 33 33 32 32 32 35 34 36 33
49 49 48 47 46 45 44 44 44 43 43 41 40 40 40 40 40 39 39 39 39 38 37 37 36 35 36 41 39 38 35 33 32 32 33 34 37 40 40 38 36 35 32
50 50 49 47 45 45 44 45 43 42 42 40 40 40 40 41 40 39 38 37 36 36 36 34 33 33 39 42 44 43 37 34 32 32 34 34 37 36 40 40 40 39 34
50 49 49 48 47 45 45 43 42 42 40 40 40 40 43 42 39 38 37 36 34 33 32 32 32 31 31 42 43 43 38 33 31 31 32 33 37 36 33 36 39 38 38
51 50 49 47 46 45 44 42 42 41 40 39 40 43 42 39 37 36 34 33 33 31 31 31 31 30 33 41 41 41 34 32 32 32 31 31 32 33 36 35 32 32 31
51 50 49 45 44 43 43 42 40 39 39 39 41 40 39 37 35 34 32 32 31 30 30 31 30 28 29 39 40 39 33 33 32 33 31 32 33 37 39 33 30 30 29
46 45 44 44 43 42 43 41 38 38 38 40 38 37 37 35 33 32 31 31 30 30 31 30 29 33 29 36 39 38 34 31 32 32 31 36 36 38 38 34 31 25 27
42 44 44 42 41 41 41 38 37 37 37 37 37 36 35 33 33 31 30 29 29 29 27 28 27 27 29 30 38 39 36 33 32 31 32 32 36 37 37 37 29 29 33
41 42 41 39 39 40 40 36 34 35 36 36 35 34 33 35 35 30 29 28 27 26 25 25 26 28 28 35 37 39 39 39 33 31 31 31 36 36 35 33 34 35 33
40 41 40 37 36 36 37 34 33 35 34 33 32 32 32 31 30 28 27 26 26 25 24 27 27 29 31 28 36 38 39 38 34 32 34 35 34 33 31 32 33 33 26
38 39 38 35 33 34 35 34 34 34 33 31 30 29 29 30 28 29 28 25 24 24 29 29 28 27 29 30 32 34 33 35 33 33 30 32 31 31 30 29 29 27 27
37 38 36 34 32 32 32 33 33 33 31 29 29 28 29 26 26 27 25 25 26 30 30 28 29 27 28 31 36 36 34 33 34 32 27 26 25 24 25 26 26 26 26
36 35 33 33 31 31 31 31 32 31 29 29 29 28 27 25 27 25 24 33 36 37 37 37 34 33 35 37 36 37 36 35 34 28 23 22 22 22 23 23 23 24 25

GFSMW_sfc_temp_033.txt.gz
Temp
58 59 59 59 58 58 59 59 59 59 63 61 60 58 58 59 58 59 59 57 54 52 50 48 48 47 46 45 46 45 43 43 43 41 43 43 45 45 45 45 45 46 48
55 57 57 56 57 57 57 57 58 57 59 59 56 56 56 57 55 54 55 52 51 51 51 47 46 46 45 44 43 42 41 41 41 39 37 36 40 43 49 44 46 44 44
55 55 54 55 55 55 55 56 56 57 57 58 58 56 57 56 55 53 48 49 50 49 48 47 46 45 43 42 41 41 40 38 40 40 39 34 32 36 40 43 42 45 41
57 57 53 53 53 54 54 55 57 57 58 59 58 58 55 51 47 46 46 47 48 48 48 47 45 44 42 41 42 43 39 39 37 39 44 39 37 33 31 38 43 40 44
57 55 54 55 53 52 52 54 55 56 54 55 56 54 50 49 46 46 45 45 45 46 47 46 44 43 41 40 40 39 39 38 37 36 36 35 36 35 31 31 34 40 42
56 55 52 52 50 50 51 53 54 51 52 53 51 52 49 47 46 43 43 43 43 44 44 45 43 41 41 40 39 39 39 37 37 36 35 35 34 33 31 31 32 33 37
53 50 51 51 50 50 50 52 53 49 50 50 49 49 48 47 45 43 43 43 43 42 42 42 41 40 40 40 39 38 37 37 35 34 34 35 35 35 34 33 32 31 35
52 52 52 51 51 50 50 51 50 48 48 48 46 45 46 45 44 43 43 42 42 42 41 41 40 40 40 39 38 37 36 37 35 34 33 34 34 34 34 33 30 27 30
52 52 51 51 50 49 49 49 48 47 47 46 46 43 44 44 43 42 42 41 42 45 41 40 39 39 39 39 37 36 36 35 34 33 33 33 34 34 33 33 32 29 24
51 50 50 49 49 48 47 47 49 47 45 45 45 44 42 42 42 42 41 41 41 41 40 39 38 38 38 38 36 35 36 35 34 36 33 32 33 33 32 32 32 32 28
48 49 49 49 48 47 47 46 46 45 44 44 43 43 41 41 41 41 40 40 40 39 39 38 38 37 37 37 35 35 36 34 33 33 33 32 33 32 32 32 32 31 31
49 48 48 47 47 46 45 45 45 44 43 43 43 41 41 41 40 40 40 40 39 39 38 37 37 37 36 36 34 33 34 33 32 32 31 32 37 31 31 31 30 31 32
47 47 46 46 45 45 44 44 44 43 43 43 42 40 39 39 39 39 39 39 38 37 37 37 36 36 36 35 34 34 33 33 32 32 31 32 31 30 31 31 31 31 35
48 47 46 45 45 44 44 43 42 43 42 42 40 39 38 38 38 38 38 38 37 36 35 35 35 35 34 35 35 35 33 32 33 33 32 31 31 30 31 33 34 35 32
46 47 45 44 43 43 43 43 42 42 42 40 39 38 38 38 38 39 38 37 36 35 35 35 34 33 35 39 36 36 34 32 31 31 31 33 35 39 39 37 34 33 31
47 47 46 43 43 43 42 43 41 41 41 39 38 38 38 39 40 40 36 35 34 34 33 32 32 31 37 41 43 41 34 31 30 30 31 31 36 35 39 39 39 38 34
47 47 45 45 45 44 44 42 41 40 39 39 38 39 40 40 40 38 35 34 32 31 31 31 30 29 29 41 42 42 34 30 29 29 31 32 35 35 32 35 38 37 36
48 48 46 45 44 44 43 41 41 40 39 38 39 40 40 39 36 34 32 31 31 30 30 30 29 28 32 40 41 41 32 30 29 30 30 29 30 31 35 34 31 30 31
49 48 47 45 43 42 42 41 38 38 38 37 38 41 40 35 33 32 30 30 30 30 28 29 28 27 28 38 39 38 32 31 30 30 31 32 32 36 39 34 29 30 30
47 44 43 43 42 41 42 40 37 37 37 38 40 39 35 33 32 30 30 30 28 30 30 29 28 30 27 35 38 38 34 31 32 31 31 36 35 38 38 34 30 25 27
42 43 43 42 40 41 41 38 36 36 37 37 36 34 33 32 31 30 29 27 27 28 25 26 25 26 28 29 38 39 35 33 33 31 31 32 36 37 37 37 29 29 33
40 41 39 38 39 40 40 36 35 35 35 34 33 32 31 34 33 28 27 26 26 24 24 24 26 28 27 34 36 38 39 39 32 31 31 31 36 36 35 33 34 35 33
39 40 38 37 36 36 39 35 32 33 33 32 30 30 30 30 29 26 26 24 24 23 23 26 26 27 30 27 36 37 38 38 34 33 35 35 34 33 30 31 33 32 26
38 39 38 36 32 33 34 33 32 33 31 29 28 28 28 28 26 29 28 23 23 23 28 28 27 26 28 28 30 32 31 35 33 33 30 31 31 30 29 28 28 26 26
37 38 36 34 31 31 31 31 32 31 29 28 29 28 28 25 25 27 24 23 25 28 28 27 27 26 26 30 36 35 33 33 34 32 27 25 24 23 24 24 25 25 25
35 34 32 32 29 30 30 30 31 30 29 28 29 28 27 24 26 23 23 32 35 36 36 36 34 32 35 36 36 36 36 35 34 27 22 21 21 21 22 22 22 23 23

GFSMW_sfc_temp_036.txt.gz
Temp
60 59 60 59 58 57 58 57 57 58 62 60 59 59 56 56 58 58 58 57 55 52 50 47 47 46 45 43 45 43 41 41 41 40 41 41 43 43 43 44 43 44 45
54 57 57 55 56 57 57 56 56 57 60 61 56 55 55 55 55 54 53 54 54 50 49 46 45 45 44 43 41 40 40 39 39 37 36 35 39 41 46 41 43 41 42
57 54 54 54 54 55 55 55 55 55 55 56 56 55 55 55 54 53 52 51 49 48 47 45 44 43 42 40 39 39 39 37 38 38 37 33 31 33 38 40 40 41 39
55 55 54 52 53 54 54 54 55 54 55 57 57 56 55 53 53 51 50 48 46 46 46 45 44 42 41 40 41 41 37 38 35 37 42 38 36 31 30 36 40 37 42
57 55 54 57 53 53 52 52 53 54 53 55 57 54 50 49 50 48 47 44 44 45 45 44 42 41 40 39 39 38 37 37 36 35 34 34 34 33 29 30 32 38 40
53 56 54 53 51 50 50 52 53 50 51 53 54 54 51 49 47 43 43 42 42 42 42 43 41 40 39 39 38 37 37 36 35 35 34 33 32 31 29 28 31 31 34
50 49 49 50 49 49 50 51 52 49 54 54 53 53 50 48 45 43 42 42 41 40 40 40 40 39 39 39 38 37 36 35 34 33 33 33 33 33 32 29 29 29 33
48 50 51 52 51 50 51 52 51 48 51 50 46 46 47 45 44 43 42 41 40 40 40 39 39 39 39 38 37 36 35 35 33 33 32 33 33 33 32 30 28 26 27
47 49 50 51 50 50 50 50 49 47 47 46 46 44 44 43 42 41 41 40 40 43 39 39 38 38 38 37 36 35 34 33 33 32 32 31 32 32 32 31 30 27 23
47 48 49 48 49 49 48 48 49 47 45 44 45 43 42 42 41 41 39 39 39 39 39 38 38 37 37 36 35 34 34 33 33 35 32 31 31 31 31 30 30 30 27
48 48 47 47 46 47 47 46 46 46 44 44 43 42 41 40 40 40 39 38 38 38 38 37 37 36 35 35 33 33 34 33 32 32 31 31 32 30 30 30 30 29 29
46 46 45 45 46 45 45 45 45 44 43 43 42 41 40 40 39 38 38 38 37 37 37 37 36 35 35 34 32 32 33 32 31 31 30 30 36 30 30 30 29 29 30
44 44 45 45 44 44 44 44 44 42 42 42 41 39 38 38 37 37 37 38 37 36 36 36 35 34 34 33 33 33 32 31 31 30 30 30 29 28 29 29 29 30 33
44 45 44 43 43 43 43 42 41 42 41 41 40 38 37 37 36 37 37 37 36 36 35 34 34 33 33 33 34 34 32 31 31 31 30 30 30 29 29 30 31 34 31
44 44 43 42 42 41 41 42 41 41 41 40 38 37 36 37 36 36 36 36 36 34 34 33 32 32 33 38 35 34 32 30 29 30 30 31 33 38 38 36 33 33 31
46 45 44 42 41 41 41 41 40 40 41 39 37 37 37 37 36 36 36 36 34 33 32 31 30 30 36 40 43 41 32 31 30 29 30 30 34 33 39 38 39 38 33
47 45 44 43 43 42 42 40 40 39 39 38 37 37 38 37 36 37 37 34 31 30 30 29 29 28 28 40 42 42 34 30 28 28 29 31 35 34 31 34 37 37 37
47 45 44 43 42 42 41 40 40 39 38 37 37 38 37 36 37 36 33 31 29 29 28 28 28 27 30 39 40 40 31 29 28 29 28 28 29 30 34 34 31 29 30
48 46 46 43 42 41 41 40 38 37 37 36 36 37 37 37 36 32 29 29 28 27 27 28 27 25 26 37 39 38 30 30 29 30 29 29 32 36 38 33 29 30 30
47 44 42 42 41 40 41 39 37 37 36 36 36 37 38 35 31 29 29 28 27 29 30 28 27 30 26 34 38 38 32 29 31 31 31 36 35 38 38 34 30 25 27
42 42 42 41 40 41 41 37 36 35 35 36 36 36 35 30 29 28 27 26 26 27 24 26 24 25 27 28 37 38 34 31 32 31 31 32 36 38 37 37 29 28 33
41 40 38 38 39 41 40 36 34 34 34 33 34 32 30 33 31 27 26 25 24 23 23 23 25 27 26 33 35 38 38 38 32 31 31 32 37 36 35 32 33 35 33
38 39 38 36 35 37 41 37 30 33 32 32 29 29 29 28 28 25 24 24 23 22 22 25 25 27 30 26 35 36 37 38 34 32 34 35 34 33 30 31 32 32 25
37 38 38 36 33 33 34 34 32 32 31 28 27 27 27 26 25 29 27 23 22 22 27 26 26 25 27 27 29 31 31 35 33 34 30 31 31 30 29 27 27 26 25
38 38 36 33 31 33 32 32 31 31 29 27 28 27 27 24 24 26 23 22 24 27 28 27 27 25 26 30 35 35 33 33 34 32 27 24 23 22 23 23 24 25 25
35 34 33 32 30 31 29 29 30 30 28 28 28 28 26 23 26 23 22 32 34 36 36 36 33 32 34 36 36 36 36 35 33 27 21 20 20 20 21 21 21 23 23

GFSMW_sfc_temp_039.txt.gz
Temp
65 67 67 68 67 66 65 65 65 66 66 65 65 64 62 59 60 59 60 59 58 58 56 56 55 55 54 54 55 55 53 52 52 54 56 56 55 56 57 57 57 55 54
61 64 65 65 65 66 64 63 64 64 66 67 64 63 58 56 56 57 57 58 56 55 56 55 54 54 53 53 53 53 52 51 50 49 49 48 54 55 56 54 54 53 54
61 64 63 63 62 62 62 62 62 63 63 60 59 57 55 55 54 54 52 53 55 54 54 53 53 52 53 50 50 50 49 49 49 49 50 47 46 45 52 53 53 53 51
61 64 63 62 61 62 61 61 60 60 60 61 60 59 57 55 56 52 51 51 52 52 53 52 52 52 51 50 50 50 49 49 46 49 49 48 47 43 42 49 51 50 49
60 61 62 63 63 60 59 59 59 59 60 61 62 61 57 53 52 50 49 48 49 52 51 51 50 50 49 49 49 48 48 48 47 46 46 45 46 44 41 39 43 46 48
59 61 63 62 59 58 57 56 57 57 58 59 59 57 54 52 49 48 47 46 50 49 49 49 49 49 48 48 47 47 46 46 45 45 44 44 43 42 40 38 39 39 44
56 56 55 56 55 55 55 56 56 54 57 58 57 57 55 53 50 49 48 49 48 48 47 49 49 48 47 47 47 46 45 44 44 44 44 44 43 43 41 39 38 37 40
55 54 56 56 56 55 55 56 55 54 56 57 56 54 53 51 49 48 50 50 49 47 47 47 48 47 47 46 46 45 45 44 44 42 43 43 43 43 41 39 36 34 38
55 53 53 55 55 54 55 55 54 53 54 53 51 50 50 49 49 49 50 48 48 47 47 47 46 46 46 45 44 44 44 44 44 43 42 41 42 42 42 41 39 35 30
52 52 53 53 54 55 54 54 54 52 51 51 50 49 49 49 48 49 47 47 47 47 46 46 46 45 45 44 44 43 43 43 43 43 41 41 41 41 41 40 39 38 35
52 51 51 52 51 51 52 51 50 49 48 49 49 48 47 47 48 47 46 46 46 46 45 45 45 44 43 43 43 42 42 41 41 41 40 39 40 40 40 39 39 37 37
48 48 47 47 49 49 50 51 50 48 47 48 48 46 46 46 46 45 45 46 45 45 44 44 43 43 42 42 41 41 41 40 39 39 38 38 40 38 39 38 37 36 37
44 45 46 47 47 48 49 49 48 46 46 47 46 45 45 45 44 44 44 44 44 43 43 43 42 41 40 40 41 41 40 40 39 38 37 37 37 36 37 37 36 36 37
44 45 45 45 46 47 48 46 45 45 45 46 45 44 43 43 43 43 43 43 43 42 41 41 40 39 39 40 41 41 40 40 39 38 38 37 37 36 36 36 37 37 36
43 44 43 44 45 45 46 45 44 45 45 44 43 42 42 42 42 41 41 41 42 41 40 39 39 38 39 42 42 42 41 39 38 38 38 38 38 39 39 38 37 37 35
44 43 44 44 44 44 44 44 44 44 45 43 41 41 41 41 41 41 40 40 39 39 39 38 37 37 39 40 42 43 41 39 37 36 38 38 37 37 39 39 39 38 35
44 43 43 44 44 44 45 43 43 44 43 41 41 41 41 40 40 40 40 39 38 38 37 37 36 36 36 39 41 42 40 38 37 37 37 36 37 37 36 37 38 38 37
45 44 45 44 44 45 44 43 43 42 41 40 41 41 40 39 39 39 38 37 37 36 36 36 35 34 36 38 40 40 39 38 37 37 36 35 35 36 36 37 33 33 36
47 47 46 44 44 43 44 42 41 41 41 40 40 40 40 39 39 37 37 36 36 35 35 35 34 33 34 36 38 39 38 37 36 37 37 36 36 38 39 35 32 34 34
47 44 44 44 44 43 44 42 40 41 39 40 39 40 40 39 37 36 35 34 34 35 35 34 34 32 33 35 38 38 37 35 36 37 37 37 37 38 38 36 34 30 31
44 45 45 44 42 43 43 40 41 39 39 39 39 38 38 36 35 34 34 33 33 32 32 32 33 33 34 35 37 38 37 36 35 35 35 36 37 37 38 37 33 31 34
42 43 41 40 42 43 43 41 37 38 39 38 37 36 36 36 34 33 32 32 31 31 30 30 33 34 33 34 36 37 38 38 35 34 35 35 37 36 35 34 33 35 34
40 41 40 38 39 42 43 37 36 38 37 36 35 34 33 33 33 32 31 32 30 29 30 31 31 32 34 33 35 36 37 38 36 35 36 36 35 33 31 31 33 32 29
38 39 39 37 36 40 40 37 37 36 35 33 32 32 32 31 31 33 32 30 29 29 31 30 30 31 31 32 34 35 36 36 34 35 34 33 31 30 30 29 29 29 28
38 39 37 35 33 35 35 36 35 34 32 31 32 32 31 30 30 31 30 30 31 32 32 32 32 30 30 32 36 35 35 35 35 34 30 28 26 25 26 26 27 27 27
36 35 34 33 33 33 32 32 33 34 32 31 31 31 30 29 30 29 29 32 35 35 35 35 34 34 35 35 35 35 36 35 34 29 25 24 24 23 23 23 24 25 25

GFSMW_sfc_temp_042.txt.gz
Temp
75 77 78 80 80 80 80 81 80 79 79 78 77 77 74 71 69 69 68 69 68 66 62 67 67 67 65 64 65 63 61 60 61 62 65 65 64 63 64 65 65 62 61
73 76 77 79 79 79 79 79 78 78 77 78 77 77 71 64 60 62 62 65 64 61 59 65 65 64 63 62 62 62 60 59 59 57 57 58 61 64 63 63 62 61 62
70 73 76 77 77 77 78 77 77 76 76 76 75 69 64 60 57 58 59 59 62 63 62 64 64 63 62 59 59 59 58 57 57 57 56 55 55 54 62 60 60 60 59
70 71 73 76 77 77 77 77 75 74 75 72 68 66 66 61 58 59 55 54 57 62 62 63 62 61 60 59 58 59 58 58 55 57 57 54 54 50 50 58 58 58 56
70 70 71 72 77 76 75 73 73 72 71 70 71 70 67 65 59 55 53 52 55 57 58 61 60 59 59 58 57 56 56 58 56 54 54 54 53 52 48 45 52 55 56
69 70 72 72 73 75 71 70 70 69 70 70 70 70 66 59 55 54 49 49 51 55 59 59 59 58 57 56 55 55 54 55 54 54 53 50 49 49 47 45 47 47 51
69 68 69 69 70 71 68 68 68 67 68 69 70 68 63 58 56 52 50 51 55 53 57 58 58 57 55 55 55 53 52 52 52 51 52 51 50 49 47 45 45 44 48
69 69 69 68 68 68 67 67 67 65 67 67 67 66 62 59 54 53 51 52 54 58 57 57 57 55 55 55 54 53 53 51 52 49 50 49 50 49 48 45 42 40 44
66 67 69 68 69 68 67 67 66 65 66 65 65 63 58 54 54 51 53 54 55 56 56 56 55 55 54 53 52 53 53 52 51 50 49 48 49 48 48 47 45 41 36
64 66 68 67 68 68 67 67 66 64 64 63 63 59 54 53 52 54 53 56 57 56 55 55 54 53 53 52 52 52 51 50 51 49 48 48 48 47 47 46 45 44 40
60 63 66 67 66 66 65 64 64 62 60 60 58 56 52 52 53 55 57 56 56 55 54 54 53 52 52 51 52 51 50 48 48 48 46 45 46 45 46 45 44 43 42
57 59 62 63 62 61 62 61 60 60 58 56 56 52 52 53 55 56 55 56 55 55 54 53 52 51 50 50 50 49 48 47 46 46 45 44 45 44 44 44 42 42 42
55 54 56 57 59 59 59 59 57 53 55 54 51 51 54 55 54 54 54 54 53 52 52 51 50 49 48 48 49 48 47 47 46 45 44 43 43 42 43 42 41 41 41
52 53 55 56 57 55 54 53 50 50 50 50 50 52 54 53 53 53 53 52 52 51 50 49 48 47 47 47 46 47 47 47 46 45 44 43 42 41 41 41 41 41 39
49 50 52 53 52 50 49 48 48 49 49 48 49 51 52 52 51 50 51 51 50 49 48 47 46 47 46 47 45 46 47 45 45 45 44 44 42 40 40 40 39 39 38
47 49 50 49 47 47 46 46 46 47 48 47 47 49 49 50 49 49 49 48 47 47 46 46 45 45 45 41 42 43 45 45 43 42 43 43 42 41 41 41 40 39 35
47 48 47 47 46 46 46 45 46 48 47 48 49 49 49 48 48 48 47 46 45 46 45 44 44 44 44 40 41 42 43 43 43 42 42 41 42 41 40 40 40 40 40
49 48 46 46 47 47 47 47 48 50 50 49 48 49 48 46 47 46 45 44 45 45 45 44 44 43 43 38 40 40 43 43 42 42 41 40 40 40 40 39 36 36 39
52 49 48 48 50 50 51 51 51 50 49 47 47 47 47 46 46 44 43 44 44 44 44 43 42 41 42 38 38 40 42 41 41 42 42 41 40 40 40 37 33 37 38
52 50 51 52 52 51 52 50 49 48 46 46 46 47 47 46 44 42 43 43 44 43 43 42 42 39 41 39 38 39 41 39 40 41 42 41 40 40 39 37 36 34 36
50 52 52 51 50 51 51 48 47 45 46 46 45 44 44 42 42 44 44 43 42 42 42 41 42 41 40 40 38 38 39 39 38 38 39 40 39 39 39 38 36 34 36
47 47 44 45 47 49 47 45 42 42 42 42 40 40 41 42 43 43 42 41 41 41 40 40 41 42 42 39 38 38 38 39 38 37 38 39 38 37 36 36 35 35 35
45 48 47 47 49 48 45 39 39 40 40 39 39 40 42 42 42 42 41 42 41 40 39 38 38 39 40 40 38 38 39 39 38 37 38 38 37 35 34 34 34 33 33
45 46 46 45 44 43 41 39 39 40 40 40 41 41 41 41 41 41 41 41 40 38 37 37 36 37 38 38 39 38 39 39 37 37 37 36 35 34 34 33 34 33 32
44 46 44 44 41 40 39 40 40 43 42 42 41 40 40 40 40 39 40 40 40 37 36 36 36 34 34 36 37 37 36 37 36 36 34 33 32 31 31 31 31 32 32
42 42 42 41 40 39 38 40 43 44 42 40 40 40 40 40 39 39 39 35 35 35 35 35 35 36 36 36 35 35 36 36 35 31 30 29 29 28 28 27 27 28 28

GFSMW_sfc_temp_045.txt.gz
Temp
79 81 82 83 84 86 86 85 86 85 84 83 81 82 80 73 68 70 76 76 75 72 70 69 69 69 68 67 67 64 63 60 61 62 63 63 63 63 63 63 64 63 62
75 78 80 81 81 82 83 83 84 84 83 83 82 82 77 65 64 67 73 73 70 68 67 66 67 67 65 64 64 63 60 60 59 56 57 56 58 62 62 63 62 61 61
73 76 78 80 79 80 82 82 83 83 82 82 81 80 67 61 58 59 60 61 63 62 62 62 64 64 64 61 61 60 59 57 58 58 55 53 53 53 61 60 61 60 59
73 75 76 78 79 80 82 82 82 82 81 80 78 72 64 59 57 56 57 58 63 62 63 64 64 63 62 60 59 60 59 58 54 57 57 54 53 49 48 58 58 60 57
74 74 75 75 78 79 79 79 81 80 79 78 76 70 67 67 59 54 55 54 57 61 62 60 60 61 60 59 58 58 57 57 55 53 53 53 53 53 47 44 50 54 56
73 74 75 75 76 76 77 77 77 77 77 75 72 70 70 62 55 51 50 51 54 58 60 59 60 60 58 57 57 56 55 55 53 53 52 50 48 48 47 45 45 45 51
72 72 72 72 73 73 74 75 75 74 74 72 73 72 70 61 56 52 49 50 52 53 54 59 59 58 57 57 56 54 52 52 51 51 51 51 50 50 48 45 43 43 47
71 70 72 72 72 72 73 73 73 72 72 72 72 73 66 63 57 56 54 53 54 54 58 60 59 57 57 56 55 53 53 51 51 50 50 49 50 50 48 45 42 38 42
68 68 69 72 73 72 72 72 71 71 71 71 72 67 65 60 57 56 57 55 55 57 56 57 57 56 56 56 53 53 53 52 52 51 50 49 49 49 48 47 45 40 34
66 66 68 71 74 73 73 72 72 70 70 70 69 65 61 58 55 56 54 54 55 56 56 56 56 55 55 54 54 52 52 51 51 50 49 48 48 48 47 46 45 44 39
64 64 67 70 72 73 71 71 70 68 67 67 64 61 57 55 54 53 54 53 55 55 56 56 55 54 53 53 53 52 51 49 49 49 48 47 47 45 45 45 44 42 41
63 62 65 68 69 69 68 68 67 66 65 63 60 56 55 54 54 54 54 55 55 57 56 56 55 53 52 52 51 50 50 48 47 47 46 45 47 44 44 44 42 41 42
62 60 62 63 64 63 64 65 64 62 61 60 57 54 54 53 53 53 54 55 55 54 54 54 52 51 50 50 50 49 49 48 48 47 45 44 44 42 42 42 41 41 42
59 58 59 60 60 61 62 61 60 59 58 57 55 53 53 52 53 53 55 54 54 52 52 52 50 49 49 48 48 48 47 47 48 47 46 45 43 42 41 40 39 40 38
55 54 55 57 57 58 59 56 56 56 55 54 53 51 52 52 54 53 53 53 52 51 50 49 48 48 47 48 44 46 46 46 46 46 46 45 44 43 42 40 38 38 36
49 50 53 54 53 51 51 51 51 50 52 51 49 50 51 52 51 51 51 50 49 48 48 47 47 46 47 41 42 43 43 44 44 43 44 44 43 43 43 42 42 41 36
48 49 50 50 48 47 48 47 48 49 47 47 48 49 50 50 50 50 49 47 47 47 46 46 46 45 45 41 41 42 42 42 43 42 42 42 43 42 41 41 42 41 41
48 49 48 47 46 47 46 47 48 46 47 46 47 49 50 49 49 48 46 46 46 46 46 45 45 44 45 40 40 41 41 42 42 43 42 41 40 41 40 39 35 35 36
50 49 48 46 45 44 46 47 46 46 47 46 48 50 49 48 47 45 45 45 45 45 45 44 43 43 43 40 39 39 40 41 40 42 42 41 40 42 42 38 33 34 36
47 44 44 43 41 42 44 43 43 44 45 48 49 50 49 47 45 44 44 45 45 43 43 43 44 43 41 43 40 39 39 37 39 40 40 42 41 42 41 37 35 31 33
45 46 46 43 44 47 50 49 50 48 49 49 49 47 46 44 44 44 44 44 43 42 43 42 44 44 43 41 40 40 37 37 37 36 37 39 40 40 40 39 35 33 35
51 53 52 52 54 55 52 48 45 46 45 43 42 41 42 44 45 43 43 42 42 42 42 42 41 43 43 42 41 39 39 39 37 36 37 37 39 39 38 37 36 37 36
41 44 46 45 46 45 44 39 40 41 40 40 40 41 43 44 44 43 42 42 42 41 40 38 38 39 40 41 41 41 40 40 37 37 38 38 38 37 36 36 36 36 32
44 45 46 45 42 42 41 40 40 41 41 41 42 42 42 42 42 40 41 41 40 39 37 37 36 36 37 38 38 37 37 38 37 36 35 36 36 36 35 34 34 32 32
48 49 47 42 39 39 39 40 41 43 42 42 41 41 40 41 40 40 41 41 40 37 35 35 34 33 32 35 36 36 35 35 36 35 32 32 32 30 30 30 30 30 30
46 43 40 38 38 39 39 41 45 44 42 40 40 40 40 41 40 40 40 36 36 36 36 35 34 34 36 36 35 35 36 36 36 31 29 28 28 27 27 27 27 27 27

GFSMW_sfc_temp_048.txt.gz
Temp
70 71 72 71 72 74 73 76 74 74 75 70 73 73 72 71 70 69 72 71 67 64 61 60 60 59 57 56 57 53 52 49 49 49 50 50 53 53 52 53 53 53 54
65 68 69 69 70 71 71 72 73 74 75 76 72 73 62 61 60 64 68 67 64 61 60 59 58 57 56 55 57 53 51 49 49 46 46 44 47 51 53 51 53 51 51
65 67 67 68 67 70 69 72 71 72 74 72 70 61 59 57 55 57 57 59 57 56 57 56 58 58 56 53 54 53 51 47 47 48 45 42 40 42 48 49 49 50 47
66 66 66 65 69 68 71 69 71 72 71 71 70 63 62 57 52 52 53 56 55 57 59 57 56 58 53 51 50 52 50 48 46 46 51 45 43 39 37 44 46 47 49
62 63 64 66 67 65 65 72 69 73 70 74 72 62 58 53 53 54 53 54 55 57 58 57 54 54 51 52 49 49 48 47 45 44 43 43 42 42 38 35 39 43 45
60 61 63 64 62 63 63 64 66 67 68 71 67 62 58 53 50 50 49 50 52 54 56 57 54 53 50 49 48 47 46 45 44 44 43 42 40 39 37 34 35 36 40
58 59 59 60 61 62 61 63 65 65 66 65 63 63 56 53 50 49 49 51 52 52 54 54 53 50 50 50 48 45 44 43 42 42 42 42 42 42 40 37 34 33 37
58 57 57 59 60 61 61 61 63 64 64 64 62 61 56 52 50 50 52 50 51 52 55 53 53 53 50 48 46 44 43 43 41 42 41 41 41 41 40 37 34 32 32
58 55 58 59 61 60 61 62 62 62 63 63 62 59 56 52 50 50 53 52 53 55 54 53 52 50 49 48 46 44 44 43 42 41 41 40 40 40 39 38 37 32 29
55 56 57 58 61 61 61 62 62 61 62 62 61 58 54 53 51 54 53 53 55 54 53 50 51 50 48 47 46 45 45 43 41 42 41 40 40 39 38 37 36 35 31
55 55 55 57 60 60 60 60 61 61 61 62 58 53 51 52 53 53 53 53 54 53 53 51 51 49 47 46 45 44 44 42 41 41 40 40 40 37 36 36 35 34 32
56 54 54 55 57 59 59 59 62 63 60 57 52 50 50 51 52 52 52 53 53 54 52 52 49 48 46 45 44 43 43 41 40 40 39 39 43 36 36 34 34 33 33
56 53 52 55 56 55 58 59 61 57 54 52 50 49 50 51 52 52 53 53 53 51 51 49 47 45 45 45 43 43 42 41 40 40 38 38 37 34 34 33 32 32 37
55 51 50 53 53 53 56 57 55 54 51 49 49 50 51 51 52 52 52 51 51 49 48 45 44 45 45 44 43 43 41 40 40 40 39 38 37 35 33 34 32 34 31
51 50 49 52 53 53 54 53 53 50 50 49 50 49 51 51 51 50 50 47 48 46 45 43 43 43 43 45 40 40 39 38 37 38 39 39 40 44 42 39 32 32 31
47 47 49 52 51 51 51 51 49 48 50 49 49 50 49 49 48 48 47 45 43 43 44 42 43 40 46 43 43 42 38 37 36 35 36 37 41 40 44 43 43 41 35
47 48 48 48 47 48 48 47 47 49 49 48 48 48 48 47 46 46 45 42 42 41 42 41 40 41 40 42 42 42 37 35 34 34 35 36 41 39 35 39 42 40 41
48 48 47 46 46 47 47 47 47 47 46 46 46 47 47 45 45 44 42 41 42 40 39 41 41 41 42 42 41 41 35 34 34 34 34 33 33 34 38 36 29 30 31
47 46 46 45 45 45 46 45 45 44 44 43 44 46 45 44 44 42 41 39 38 41 41 41 40 36 35 41 41 39 33 33 31 35 34 35 34 39 42 36 29 31 31
45 42 43 44 43 43 45 43 43 42 41 42 44 45 43 42 40 38 39 41 41 40 40 38 36 40 34 42 42 39 33 29 30 31 33 39 39 41 41 36 34 29 29
40 42 41 39 40 42 41 39 38 37 38 39 38 39 41 40 41 41 41 40 37 36 35 35 35 36 37 35 42 42 34 31 31 29 31 32 39 40 40 40 32 31 35
40 40 38 38 40 41 39 36 35 37 39 39 40 41 42 43 42 39 37 36 35 34 34 33 32 34 34 41 40 42 41 39 32 31 31 31 38 39 39 37 37 38 37
44 45 42 40 43 44 43 37 36 40 40 40 39 40 40 39 38 35 34 34 34 33 32 31 29 29 32 31 40 39 39 38 34 33 36 38 37 37 34 36 37 36 28
39 40 39 37 36 38 39 39 40 41 41 39 38 37 36 35 35 34 35 33 32 30 29 28 27 26 27 28 29 32 29 34 33 34 29 34 34 35 34 31 30 28 28
41 42 40 38 37 38 39 40 41 42 39 37 34 34 35 34 33 33 31 30 29 30 27 26 27 25 24 29 35 34 32 32 34 34 28 27 26 25 26 27 27 27 27
40 39 38 37 37 39 40 41 42 40 37 34 33 32 32 32 31 30 29 37 37 37 36 36 33 30 34 36 36 35 36 37 36 28 24 23 24 23 24 24 24 25 25

GFSMW_sfc_temp_051.txt.gz
Temp
63 64 65 67 68 67 68 70 69 69 70 71 68 67 66 67 65 68 73 69 66 64 61 59 57 56 56 54 54 51 49 47 47 48 48 48 50 50 50 50 50 51 52
62 63 65 64 64 67 66 66 68 72 73 71 71 69 66 61 63 64 70 68 63 61 60 59 57 56 54 53 53 53 49 50 48 47 44 45 48 49 50 48 51 48 49
59 60 61 62 62 62 64 66 67 67 70 68 61 58 57 56 56 56 59 59 60 58 57 55 53 53 53 52 51 52 51 46 46 46 46 42 42 41 46 47 47 46 45
58 60 63 61 62 62 63 65 67 66 68 66 62 62 62 60 55 53 52 54 57 57 59 55 53 52 51 50 50 51 49 48 45 46 49 43 42 39 39 42 43 44 46
60 61 59 62 62 62 61 62 64 65 66 69 66 64 60 53 52 51 51 52 53 57 58 57 56 54 52 49 49 48 49 48 45 43 42 41 40 39 37 35 38 40 42
55 57 58 59 59 58 58 60 62 63 64 69 64 63 55 51 51 49 50 49 51 53 56 56 54 53 52 48 50 46 46 46 44 43 43 41 39 37 36 33 33 34 37
55 56 56 56 56 57 58 58 60 61 62 64 62 58 56 54 52 51 50 49 50 51 53 53 52 51 51 50 49 44 45 43 42 42 41 41 40 40 38 35 33 32 34
54 55 56 55 55 56 57 57 58 60 60 59 59 56 54 52 51 50 49 51 52 52 54 53 52 52 51 50 46 45 43 42 41 41 41 40 40 40 39 36 33 29 29
54 54 53 55 55 56 56 56 57 58 58 59 54 52 51 50 49 49 50 52 52 53 53 53 51 51 51 49 47 45 45 42 42 41 40 39 39 39 38 37 35 31 26
54 54 53 54 56 55 55 56 57 57 58 58 53 52 50 49 49 49 49 52 54 54 52 51 50 50 49 48 47 45 44 44 41 41 40 38 38 38 36 35 35 33 29
54 54 53 54 54 54 54 54 55 56 55 55 52 50 48 49 49 50 52 54 53 53 52 51 51 49 48 48 46 44 44 43 42 41 39 39 38 36 35 34 33 32 30
56 51 51 52 52 52 53 54 54 53 52 51 50 48 49 50 51 50 53 54 52 53 52 51 50 49 48 46 45 44 43 41 41 40 39 39 42 36 35 33 32 30 30
52 49 49 51 50 51 51 51 51 50 50 50 51 50 50 51 50 51 52 52 52 51 50 50 48 47 46 45 42 42 42 42 40 40 39 38 37 34 33 32 30 30 35
51 49 49 49 48 48 48 48 49 50 48 49 49 49 49 50 51 52 52 51 50 49 48 47 46 45 45 44 42 41 41 39 39 39 38 37 35 33 32 32 31 33 29
50 49 50 47 46 45 46 47 47 48 49 49 48 48 50 50 51 49 49 49 48 47 46 44 43 42 43 43 39 41 38 38 37 37 37 37 38 43 42 38 31 30 28
48 49 47 45 45 46 49 48 47 47 49 48 47 49 49 48 47 47 46 45 45 44 43 42 41 41 44 44 44 41 38 36 35 33 34 34 39 39 43 43 43 41 33
48 47 43 43 44 47 48 46 47 48 47 47 48 47 47 45 44 44 44 43 42 42 40 40 39 39 40 44 43 42 37 33 32 32 33 34 39 36 33 37 41 40 41
46 45 44 43 44 45 46 47 46 47 46 45 44 43 41 40 42 43 42 41 40 39 39 40 40 38 41 43 42 41 33 32 32 33 32 31 31 32 37 33 30 31 30
43 43 44 44 44 44 45 44 42 43 42 42 42 39 40 41 41 40 40 41 41 40 40 40 39 36 37 41 42 38 33 32 30 33 32 33 31 38 41 35 28 29 30
43 42 43 43 43 43 43 40 39 37 34 36 35 41 40 39 36 37 36 37 40 40 39 38 37 39 34 42 42 40 33 30 30 30 31 37 37 40 41 36 33 28 28
40 42 41 40 40 40 40 37 36 34 34 38 37 36 36 35 35 37 39 39 38 37 35 33 33 35 36 34 43 43 33 31 29 28 29 30 38 39 40 39 31 31 35
37 38 36 34 38 39 39 34 34 33 35 36 35 34 37 40 41 38 36 35 34 32 32 32 31 31 32 39 39 41 40 38 30 29 29 30 37 38 38 35 37 38 36
37 37 36 37 37 36 37 34 32 34 35 37 38 39 39 38 36 33 32 32 33 32 29 29 27 27 29 27 36 37 38 37 32 31 34 37 36 35 32 34 35 34 27
39 40 39 37 37 39 39 39 39 40 39 37 36 36 34 33 33 33 33 31 30 28 28 27 25 23 25 26 28 30 28 33 33 33 28 33 32 32 31 29 29 27 26
40 39 37 36 36 37 38 39 40 41 38 36 33 33 33 32 30 31 29 28 28 29 27 25 26 24 24 28 35 34 32 32 34 32 26 25 25 24 25 26 26 26 26
40 38 37 37 37 39 39 40 41 40 36 32 32 31 30 29 29 28 28 37 37 38 37 36 33 30 35 37 36 36 37 36 35 26 23 22 22 22 23 23 23 23 24

GFSMW_sfc_temp_054.txt.gz
Temp
63 61 62 63 64 65 65 65 67 69 70 68 66 65 66 65 66 65 67 68 65 63 62 60 58 56 56 54 53 50 49 46 45 48 47 51 49 49 49 48 48 49 50
58 60 61 61 61 63 63 63 64 69 70 72 71 68 66 65 65 65 64 66 64 63 61 60 58 56 53 52 51 51 47 46 45 45 45 47 48 48 50 48 49 47 47
60 60 58 60 60 60 61 63 63 64 69 72 66 59 59 57 57 59 62 63 62 60 59 57 55 53 52 51 50 50 49 45 44 46 47 42 42 41 45 45 45 45 43
57 59 59 58 59 59 61 61 63 63 64 63 64 63 64 61 60 61 54 55 58 58 57 55 54 53 51 51 49 50 48 46 44 44 48 43 43 41 41 43 43 42 45
55 56 56 59 60 59 58 59 60 62 62 63 64 63 64 60 52 53 53 52 53 55 56 55 53 52 50 51 51 50 49 46 44 43 43 42 41 40 39 38 39 41 41
53 55 56 58 57 56 57 57 57 58 60 61 63 64 58 52 51 50 50 50 50 53 55 55 53 52 51 51 51 50 48 45 46 42 42 41 40 38 37 35 34 34 37
52 52 52 54 55 54 55 57 57 59 58 58 59 61 58 55 54 52 51 50 49 50 52 53 52 50 51 51 49 48 46 46 45 43 41 40 40 40 38 36 34 33 34
52 52 53 53 54 53 54 55 55 56 57 56 58 58 58 56 54 53 51 51 51 49 50 51 53 51 51 50 48 46 44 44 42 42 41 39 39 40 38 36 34 30 30
51 53 51 53 54 55 55 55 55 56 55 56 55 52 53 52 51 49 50 49 49 50 51 52 51 51 50 49 47 46 45 44 44 43 42 39 38 37 37 36 35 32 27
54 52 53 53 54 54 54 53 54 53 54 54 50 50 50 50 49 49 49 50 50 52 52 51 50 49 49 49 47 46 46 45 41 42 41 38 37 36 35 34 34 32 29
50 50 54 53 53 53 52 53 53 52 51 49 48 47 47 47 48 48 49 51 52 52 52 51 50 49 48 48 46 44 45 44 43 42 41 38 38 37 34 33 33 31 29
51 50 50 49 49 50 50 51 51 50 48 48 46 45 46 47 46 48 50 51 51 52 51 51 49 48 47 45 44 45 43 42 41 39 38 38 42 35 34 32 31 30 29
48 48 49 49 49 50 49 49 47 46 46 46 46 45 45 46 46 47 49 51 51 51 50 49 48 47 46 45 45 44 42 42 41 40 38 37 35 33 32 31 30 29 33
51 52 50 50 48 47 46 44 44 44 45 46 46 45 46 47 50 50 51 51 50 48 47 47 46 45 44 43 42 41 39 38 39 38 36 36 35 34 32 32 31 32 29
51 51 50 49 46 43 41 42 42 43 44 45 45 45 47 49 49 49 48 48 47 46 45 43 42 41 40 41 39 38 37 37 38 35 35 35 38 42 41 37 32 30 29
47 49 48 45 44 39 40 42 43 45 45 45 45 47 48 46 46 46 44 43 42 41 40 37 37 39 43 43 43 40 38 37 35 32 33 33 37 36 41 42 43 41 32
46 45 43 43 43 40 42 41 42 43 43 44 44 44 44 42 42 42 41 39 38 38 37 39 40 38 40 44 44 41 35 32 31 30 30 32 37 34 32 36 40 39 41
42 42 42 42 43 44 42 41 41 39 39 39 40 41 40 39 39 38 36 35 35 36 37 37 37 37 40 44 43 40 33 31 31 30 30 29 30 31 35 33 29 30 30
41 42 43 43 43 42 43 41 39 38 37 37 38 38 38 36 36 35 35 37 38 37 37 39 38 38 37 42 42 37 31 31 30 31 31 32 31 36 40 34 28 29 30
42 42 42 42 41 41 41 39 38 37 35 36 35 35 34 33 33 35 35 34 33 34 37 36 35 38 32 42 43 39 32 31 31 30 31 35 35 39 40 35 30 26 28
40 41 40 38 39 41 41 36 36 33 33 35 33 33 35 35 34 33 32 33 34 34 34 33 31 31 33 32 42 42 32 31 29 28 29 30 37 38 39 39 29 30 34
37 37 35 35 38 39 37 33 32 33 34 35 35 35 35 36 35 33 33 34 33 30 29 29 28 29 29 37 38 39 38 37 29 29 29 29 37 37 36 34 35 37 34
36 37 36 36 35 37 36 33 33 35 34 34 33 34 36 38 37 34 31 30 30 29 28 28 26 26 28 26 35 36 37 36 32 30 34 36 35 34 31 33 34 33 25
38 38 37 35 34 36 37 34 35 37 38 37 36 35 32 32 32 32 32 30 28 27 27 27 24 23 25 26 28 30 28 33 32 32 26 31 31 31 30 28 28 27 26
40 39 37 36 36 37 37 39 39 39 38 35 31 31 32 30 29 29 28 27 27 29 27 25 26 24 24 29 34 34 32 30 32 29 25 24 24 23 24 24 25 25 25
39 37 37 36 37 38 38 39 39 38 34 30 30 30 29 28 27 26 26 37 37 38 37 36 32 31 35 37 36 36 36 34 34 25 22 20 21 21 21 21 22 22 23

GFSMW_sfc_temp_057.txt.gz
Temp
62 59 60 61 61 60 61 63 64 69 69 67 66 66 65 66 64 66 68 67 66 63 63 60 58 57 57 56 53 50 49 47 45 46 46 46 47 47 46 48 48 49 49
56 57 59 59 60 61 59 60 63 68 69 69 68 67 67 66 66 65 64 66 65 63 62 59 58 58 54 52 51 51 47 46 44 45 43 43 46 46 46 46 48 46 46
58 59 55 58 58 58 60 61 60 62 68 70 67 61 60 60 60 60 63 64 63 62 62 59 59 57 57 54 52 50 49 45 43 44 45 41 42 40 43 43 43 44 43
57 56 56 55 56 58 59 60 61 60 63 67 66 64 64 63 63 64 64 61 59 58 57 57 56 55 53 51 51 52 50 49 47 44 46 42 42 41 40 41 41 41 44
50 53 54 56 57 57 57 57 58 59 59 62 67 65 63 63 60 56 58 53 54 58 55 55 52 52 52 52 52 51 51 51 48 46 43 41 41 42 42 37 38 40 40
51 52 53 54 54 55 56 56 57 59 58 58 61 63 64 56 54 53 55 53 52 53 53 53 53 53 52 51 51 52 51 49 48 46 45 42 43 38 39 35 34 34 37
51 52 52 52 53 55 55 56 56 57 57 56 56 59 60 56 57 56 56 52 51 50 50 52 51 52 52 52 51 49 47 47 46 46 44 41 42 40 38 35 32 32 34
48 51 53 52 51 52 54 54 55 56 56 54 54 55 58 57 56 54 55 54 53 51 51 51 51 52 52 51 49 48 46 46 44 44 43 41 41 40 37 38 33 30 29
48 48 52 53 52 53 54 53 53 54 55 54 52 53 54 53 53 51 51 50 49 50 49 50 50 51 50 50 48 46 46 45 44 43 42 42 40 40 39 36 34 32 27
49 48 49 51 53 53 54 53 52 53 53 52 51 51 52 52 49 49 47 47 48 49 49 48 49 50 50 49 48 46 46 45 43 43 42 41 39 37 38 37 35 32 30
47 48 48 48 48 51 49 50 50 51 52 50 47 47 46 45 46 46 47 47 49 49 49 49 50 49 48 48 47 46 45 42 42 42 41 41 41 39 35 34 32 30 29
47 47 47 49 47 47 48 48 48 49 49 45 44 43 44 44 44 45 46 48 48 49 49 51 50 49 48 47 46 45 44 42 41 41 40 40 42 38 36 35 31 30 29
52 51 52 54 49 45 44 43 42 42 43 43 42 42 42 43 47 49 50 51 50 50 50 49 47 46 46 45 45 44 42 42 41 40 38 38 38 36 34 33 30 30 33
48 47 47 50 48 43 44 44 43 41 43 43 42 42 45 47 47 48 49 50 50 48 47 46 45 44 44 43 42 41 39 39 39 39 38 38 37 35 34 33 31 32 28
45 45 48 47 42 44 43 41 42 42 44 44 45 45 47 47 48 48 48 47 46 45 44 42 41 40 40 41 38 38 36 36 37 37 37 36 37 41 40 37 30 29 28
43 46 45 44 41 40 37 39 39 42 44 45 44 46 46 45 44 43 42 42 41 40 39 38 38 38 40 40 40 38 37 37 35 33 32 32 36 35 40 41 42 40 31
42 41 41 42 41 40 38 37 39 43 42 41 41 42 42 41 41 41 40 38 37 37 36 35 37 36 38 40 40 38 35 32 32 31 30 32 35 33 31 36 40 39 41
41 41 42 42 41 41 41 41 40 39 39 38 38 39 39 38 38 37 35 34 34 34 33 33 33 33 37 41 40 39 34 33 32 31 29 28 29 30 34 32 29 29 30
41 41 42 42 42 40 40 39 38 38 37 36 35 36 38 36 35 33 33 33 33 32 32 32 34 36 38 42 42 37 32 33 30 30 30 31 29 35 39 33 29 30 30
42 41 40 41 39 40 41 39 38 37 35 36 35 36 35 35 33 33 32 32 33 32 33 33 33 37 34 41 42 39 33 30 30 30 30 35 34 38 40 36 29 25 27
39 40 39 38 39 39 38 35 34 32 33 36 35 35 35 34 33 32 32 32 33 32 31 32 31 32 34 33 42 40 32 31 29 29 29 30 36 38 39 38 27 29 33
37 37 36 36 38 38 36 33 32 33 33 33 33 33 33 35 35 33 33 30 30 30 31 30 29 29 28 36 37 38 38 37 30 29 29 29 36 36 36 33 34 36 34
37 37 36 36 37 37 35 33 33 35 35 34 34 34 35 36 34 31 29 28 28 27 26 29 26 26 29 26 35 36 37 37 32 30 33 34 34 33 29 32 34 33 24
37 37 36 35 34 36 35 35 36 37 36 34 35 32 30 29 29 30 29 27 26 26 28 27 25 24 26 27 28 30 27 33 31 30 25 30 30 30 29 28 27 26 25
38 37 37 36 35 36 36 38 38 39 37 31 30 29 29 27 27 28 26 26 26 29 27 26 26 24 24 29 34 33 31 28 31 28 24 23 22 21 23 23 24 24 24
37 36 37 36 36 37 38 39 39 37 31 29 29 28 27 27 27 26 25 38 37 38 37 35 32 31 35 36 36 35 35 33 34 24 20 19 19 20 20 20 21 21 22

GFSMW_sfc_temp_060.txt.gz
Temp
59 58 59 59 60 58 58 61 61 66 67 66 66 66 66 66 66 65 67 63 64 62 62 60 58 57 56 55 54 49 49 46 46 46 45 45 45 45 45 45 45 47 47
55 56 57 57 58 59 57 58 60 65 66 67 67 69 68 67 67 66 65 64 63 61 62 60 59 57 54 52 53 50 46 46 45 46 43 43 45 44 45 44 46 44 44
55 58 54 55 56 56 57 57 58 62 65 68 67 62 62 61 63 64 64 63 63 62 62 59 58 58 57 53 51 51 50 46 45 44 46 40 42 40 42 42 42 42 41
49 51 53 54 53 55 56 57 58 58 60 64 65 64 65 64 65 65 65 63 62 61 61 59 58 56 54 52 51 51 51 50 46 46 49 46 46 41 39 40 39 40 41
49 51 51 53 54 54 53 55 56 57 58 59 64 63 63 63 59 61 62 62 58 61 60 58 55 53 53 52 52 50 51 51 48 47 45 46 44 43 43 41 39 39 39
49 51 50 52 51 52 52 52 54 56 56 56 58 62 63 59 55 56 60 57 56 57 56 56 54 53 52 51 51 51 51 50 48 48 47 46 44 42 41 40 37 36 39
48 50 51 51 52 52 52 54 53 54 55 54 55 60 62 59 58 58 59 57 55 54 54 54 52 51 52 51 50 51 49 48 47 46 45 45 44 43 41 40 36 35 34
46 47 49 50 50 51 51 52 53 53 54 53 53 53 56 57 58 56 57 57 56 56 54 53 52 51 51 51 50 49 47 47 46 46 45 43 43 43 42 39 37 33 31
47 47 47 48 50 50 51 50 51 52 52 52 51 51 52 54 55 53 53 52 51 50 51 51 51 50 51 51 50 47 47 47 45 44 44 42 41 41 41 40 39 37 30
46 46 47 48 49 49 49 48 48 49 50 49 49 50 50 52 52 49 49 47 47 48 49 49 48 50 50 50 49 47 47 45 44 43 43 41 41 40 39 37 37 35 34
46 46 47 47 47 47 47 46 46 47 47 47 46 46 46 46 46 45 44 45 46 47 47 48 48 48 49 49 47 46 45 44 43 43 42 40 40 38 37 36 36 35 33
47 47 47 46 47 45 44 43 42 42 43 43 43 44 47 47 46 45 45 46 47 49 48 49 49 49 48 47 46 45 44 42 41 40 39 38 40 37 37 36 35 35 31
45 45 46 45 45 41 41 40 40 40 41 42 41 44 45 47 47 47 48 49 49 49 50 49 47 47 46 45 45 43 41 40 39 38 37 37 36 36 36 35 34 31 34
43 43 42 43 40 40 40 40 40 41 41 42 43 45 46 46 47 48 48 49 49 47 46 46 45 44 43 42 41 40 38 38 36 37 37 36 36 35 34 35 33 32 29
40 41 40 37 37 39 41 42 39 40 42 41 42 44 46 46 46 45 45 45 44 44 44 42 42 41 41 40 38 37 36 35 34 33 33 32 34 40 39 37 33 31 29
42 42 40 41 39 39 36 37 37 39 40 40 42 43 43 42 42 42 41 40 40 41 41 40 39 39 41 42 40 36 34 33 32 31 33 34 36 36 38 40 41 39 31
41 41 39 40 40 40 40 38 39 42 41 41 41 41 41 40 39 39 38 38 37 37 36 37 38 37 39 40 39 36 32 31 31 33 33 34 36 33 31 35 39 38 40
40 40 41 40 40 40 40 40 40 39 39 39 39 40 39 37 37 37 36 35 35 35 35 34 35 34 37 39 38 36 33 33 32 32 30 28 29 30 34 32 30 30 30
41 41 40 40 40 39 40 39 38 38 37 36 36 37 37 36 35 33 33 34 33 33 33 32 33 34 36 40 38 34 33 33 32 32 30 31 30 35 39 33 29 29 29
41 40 40 40 39 39 40 37 35 35 34 35 35 36 35 34 33 33 32 32 33 32 32 32 33 36 32 38 40 36 33 30 30 31 30 35 34 38 39 35 28 24 25
39 39 39 37 38 38 37 34 34 33 34 36 35 35 35 34 33 33 32 32 32 31 30 30 31 32 34 36 41 39 31 31 29 29 30 30 36 38 38 37 27 27 31
38 38 37 36 37 38 36 33 32 33 34 35 34 33 33 34 34 32 32 31 31 30 29 28 28 28 27 37 38 38 38 37 30 29 29 29 36 35 35 33 34 36 33
37 37 36 36 36 36 35 33 33 36 35 34 34 34 34 35 33 30 29 27 28 27 26 28 25 25 28 26 36 36 37 36 31 31 32 34 33 32 29 31 33 32 23
36 37 36 35 34 35 36 35 36 36 35 33 33 30 28 28 28 29 28 26 26 25 27 27 25 23 25 26 27 30 27 33 31 30 25 30 29 29 29 27 26 25 24
38 38 36 35 34 36 36 37 38 39 34 29 29 28 28 26 26 27 25 25 25 28 26 25 26 24 24 29 34 33 31 28 30 27 23 21 21 20 22 22 23 23 23
34 37 36 36 36 37 37 38 38 33 30 28 28 27 26 25 26 25 24 38 37 38 37 35 32 30 34 36 36 35 34 33 33 23 19 18 18 19 20 20 20 21 21

GFSMW_sfc_temp_063.txt.gz
Temp
62 63 65 65 65 65 64 66 67 71 71 68 66 66 65 67 67 68 70 69 69 68 67 68 69 67 66 65 64 62 59 58 60 58 58 58 58 58 59 59 60 58 58
59 60 62 63 63 65 65 64 65 69 70 71 71 70 69 68 69 68 68 69 69 67 67 67 66 66 65 64 62 61 57 58 58 59 57 55 56 56 56 57 57 58 57
53 55 57 59 60 60 62 64 64 66 69 71 70 67 68 66 67 66 66 67 68 67 67 67 65 65 65 62 60 60 59 56 54 56 60 51 54 53 54 54 55 55 55
53 54 56 57 58 59 59 60 62 63 65 69 69 68 68 66 68 68 68 67 66 67 66 66 65 63 61 61 58 57 59 56 52 51 53 53 55 53 47 51 52 52 53
52 54 55 56 57 56 56 58 59 61 63 66 69 68 67 68 69 68 68 67 64 65 65 65 64 63 61 60 57 55 56 57 54 53 49 52 51 51 50 46 44 48 49
52 54 55 55 56 56 56 57 58 59 60 61 63 66 66 66 63 64 64 66 63 62 63 63 63 62 61 59 58 58 57 56 55 54 51 50 48 49 49 44 42 44 45
51 52 53 54 55 55 55 57 57 58 59 60 60 62 65 66 64 65 64 65 59 58 60 61 60 59 59 58 58 56 55 54 53 51 50 50 50 50 44 45 41 43 44
51 51 52 52 53 54 55 55 55 56 57 58 59 59 60 63 63 64 63 64 62 61 61 59 59 58 57 56 56 54 54 52 50 50 48 47 48 48 45 42 44 38 38
50 50 52 53 53 53 54 52 53 54 56 56 56 57 57 57 59 61 61 62 61 59 59 58 56 56 56 55 54 52 51 50 48 46 44 42 45 44 45 43 43 41 36
49 50 51 51 52 53 52 52 52 51 52 52 53 54 54 55 56 58 57 57 56 55 55 54 53 52 52 53 51 49 49 47 46 45 44 42 43 40 41 40 38 38 36
49 49 50 51 51 50 49 49 49 49 49 50 50 49 49 50 51 52 52 53 52 52 53 52 51 51 50 50 48 47 47 45 45 44 42 41 40 39 38 37 36 35 35
48 48 48 48 48 47 47 46 46 47 47 47 47 48 50 51 50 49 49 50 50 51 51 51 50 49 49 49 47 47 46 44 42 41 40 39 40 37 36 35 34 35 35
46 45 46 45 45 44 44 44 45 45 46 47 48 49 49 50 49 49 50 50 50 50 50 50 48 47 47 46 46 45 43 42 40 40 38 37 36 34 33 33 33 34 37
43 44 43 42 42 42 43 44 44 45 45 46 46 46 47 47 47 48 49 49 49 48 47 47 45 44 44 44 43 41 39 39 37 37 36 34 33 32 33 33 33 35 34
42 43 42 41 41 41 40 41 42 42 44 44 44 43 45 45 44 43 43 43 43 43 43 42 41 42 42 42 39 38 37 35 34 33 33 33 34 35 37 38 37 37 37
42 43 42 41 40 40 39 40 40 41 43 42 42 43 42 42 40 40 40 40 40 41 41 40 40 40 41 43 41 38 35 34 33 32 32 33 37 35 36 38 40 41 38
42 42 41 40 39 39 40 39 40 42 41 41 41 41 40 39 38 39 38 37 36 37 37 38 38 38 40 42 40 37 32 32 32 34 36 36 36 34 35 37 39 39 39
40 41 41 40 40 40 40 41 41 40 39 38 38 39 38 37 37 36 34 33 34 34 33 32 33 36 37 38 38 36 34 36 35 32 33 34 35 35 38 37 35 35 36
40 41 41 41 41 40 41 40 38 38 37 36 36 37 37 36 35 33 33 34 33 32 32 33 34 35 36 39 37 36 36 35 34 34 35 36 35 36 40 37 33 35 35
41 40 40 40 39 39 39 37 35 35 34 35 35 36 35 35 33 33 33 32 32 32 33 32 33 36 35 38 38 37 37 35 34 35 35 36 37 38 39 37 33 30 33
39 40 39 37 38 39 37 34 34 33 34 36 35 35 35 34 34 33 33 32 31 31 30 30 32 35 38 40 40 38 36 35 34 33 33 34 36 37 37 37 33 33 37
38 38 37 36 37 37 35 34 32 34 35 35 34 33 34 35 34 33 33 33 33 32 31 32 32 33 33 38 39 39 38 38 33 32 33 34 35 35 34 33 35 36 33
37 38 38 36 37 36 36 34 34 36 36 35 34 34 35 35 34 34 33 32 32 32 31 31 30 30 32 33 37 37 37 36 33 34 34 33 33 32 30 32 32 31 30
37 37 37 35 34 36 36 36 36 37 36 35 33 33 32 31 32 33 32 31 31 30 31 31 29 29 31 32 33 34 33 34 33 31 30 31 30 29 29 29 29 29 29
38 38 37 35 34 36 36 37 38 38 34 33 32 32 31 30 30 31 32 32 31 33 31 30 30 30 30 33 36 35 34 34 34 30 28 27 26 26 27 27 27 27 27
38 37 37 36 36 36 36 38 39 35 33 31 31 31 30 31 31 31 31 38 38 38 37 35 33 33 35 36 35 35 34 33 32 27 24 24 24 24 24 24 25 25 25

GFSMW_sfc_temp_066.txt.gz
Temp
75 75 76 77 77 78 79 80 80 81 82 74 68 68 67 69 70 72 78 79 79 78 77 77 78 78 76 74 74 72 69 67 71 68 66 66 67 67 68 69 69 67 67
70 71 72 74 75 76 78 77 79 80 81 81 76 76 74 72 71 70 70 75 76 76 76 75 76 76 74 74 73 71 67 68 68 66 67 62 63 65 66 67 67 67 67
63 66 68 69 70 71 73 75 76 76 78 80 81 77 76 72 70 68 69 71 72 74 75 74 74 73 74 73 72 70 66 64 64 68 67 60 60 62 64 63 64 64 63
65 66 66 66 66 67 68 69 71 73 74 76 77 76 73 71 72 74 74 74 72 69 73 73 74 72 71 71 70 68 68 67 61 63 64 62 66 62 57 60 61 62 62
63 64 64 65 66 65 65 67 68 70 72 73 74 75 74 75 75 75 74 74 72 68 67 70 71 71 70 69 69 64 65 66 65 61 59 61 60 61 57 60 54 55 57
63 64 64 66 66 67 66 66 68 68 69 70 72 72 73 73 72 73 72 73 71 67 66 65 66 67 67 67 68 65 63 62 64 60 60 58 56 54 57 55 55 54 53
62 63 63 64 64 64 65 66 67 67 68 68 69 70 71 72 72 72 71 71 68 65 64 65 64 64 65 65 66 64 61 61 61 59 58 57 56 54 54 52 48 49 48
61 61 62 62 63 64 64 65 65 66 67 68 68 70 70 70 70 71 71 71 71 67 66 65 64 63 63 62 63 62 61 60 59 59 56 51 49 49 48 48 44 42 42
59 59 61 62 62 62 62 62 62 63 64 64 65 67 68 66 67 69 70 69 69 67 67 64 62 61 60 59 58 57 58 58 56 50 48 46 44 46 44 44 47 45 39
58 59 59 60 61 61 61 61 61 60 60 61 62 63 63 64 64 65 66 67 67 66 62 61 59 58 57 56 55 53 54 50 48 44 43 42 42 43 41 41 40 40 37
57 58 58 59 58 58 58 58 58 58 58 59 58 56 57 59 59 59 60 60 60 59 59 58 55 54 53 53 52 48 47 45 42 44 41 39 41 40 40 39 38 36 36
55 55 56 56 56 55 56 55 56 56 56 57 58 56 58 59 58 58 58 58 56 57 56 55 54 52 51 50 48 47 46 44 43 43 41 40 42 38 38 37 35 34 33
54 55 54 53 53 53 53 53 54 54 55 55 56 56 56 56 56 56 56 54 53 52 52 52 50 49 48 47 47 45 44 43 43 42 40 39 38 36 35 34 33 33 33
51 53 53 52 52 50 50 51 52 53 53 53 53 51 50 51 52 51 51 49 50 49 48 48 47 46 46 45 44 43 41 41 40 38 38 37 36 34 33 34 34 35 37
50 50 48 49 50 49 50 50 50 50 51 50 49 48 48 48 46 45 44 45 45 44 44 43 43 43 42 42 40 41 40 37 35 34 34 34 35 36 36 38 40 39 38
47 48 46 46 49 48 47 48 48 49 50 48 47 47 45 44 42 42 41 41 41 41 41 41 41 41 42 43 42 39 36 35 33 32 32 34 37 38 37 38 39 41 39
48 46 45 44 46 47 47 47 47 48 47 44 45 44 44 43 41 40 40 36 36 36 36 37 39 38 39 41 40 37 33 33 33 33 34 35 38 36 38 38 39 40 40
46 47 45 44 45 47 47 47 47 46 44 43 43 42 41 39 38 37 35 34 34 33 33 32 32 32 34 37 36 35 34 35 35 37 36 38 38 38 39 40 39 39 40
47 46 46 44 44 45 45 44 43 43 42 40 39 40 39 37 36 35 34 35 34 33 33 33 33 34 34 36 37 37 35 33 35 36 38 38 39 38 40 40 36 38 39
47 44 44 44 44 43 43 42 40 38 36 37 36 37 37 36 34 35 34 33 34 33 35 33 36 39 39 39 37 39 40 39 39 39 39 36 38 39 39 38 37 34 36
43 43 43 42 42 41 40 37 36 34 36 37 37 36 36 35 34 33 33 33 34 34 35 37 39 41 42 42 40 39 40 39 38 37 37 38 36 37 36 36 37 35 38
43 41 40 39 41 41 38 35 34 35 35 36 35 35 35 36 36 35 37 38 38 38 38 38 38 39 40 40 39 39 38 38 37 36 37 37 35 35 34 35 35 36 35
41 41 41 40 39 39 38 35 35 37 37 37 36 37 40 42 43 42 40 40 40 40 39 38 38 37 38 39 37 37 37 36 36 37 35 34 33 33 34 33 32 33 35
41 40 39 38 36 38 38 37 37 40 41 40 41 42 41 41 41 41 42 41 40 40 39 37 36 37 38 38 39 38 39 36 37 34 36 33 31 31 32 33 34 34 34
41 40 39 38 36 37 38 39 41 44 42 42 41 41 40 40 40 40 42 41 40 40 38 37 37 36 36 37 37 36 36 36 36 33 34 33 33 33 33 33 33 33 33
42 41 41 38 38 40 41 42 42 44 42 40 39 39 39 40 40 40 39 39 38 37 36 35 37 37 36 36 35 34 34 33 32 32 31 31 31 30 30 30 31 31 30

GFSMW_sfc_temp_069.txt.gz
Temp
79 81 81 82 81 82 82 84 83 84 84 83 73 69 67 70 76 81 83 82 83 81 80 79 79 79 78 74 73 74 72 71 73 69 66 67 67 67 67 68 69 68 67
77 77 77 78 79 79 80 80 82 83 84 84 81 74 72 70 72 71 74 78 81 80 79 78 77 78 77 76 71 71 70 69 70 65 63 59 62 64 66 67 67 67 65
69 71 73 73 74 74 77 78 80 81 82 83 84 79 78 78 72 69 70 72 75 78 77 77 76 76 76 74 74 71 69 65 66 68 65 58 58 59 63 63 65 66 65
67 68 68 68 68 70 72 73 75 77 79 80 80 80 77 74 76 76 75 73 73 72 72 74 74 73 73 73 73 73 70 67 63 63 67 65 64 59 54 60 62 64 63
66 66 66 67 68 67 67 69 70 72 74 76 76 77 76 78 78 78 76 77 76 72 69 69 69 70 69 70 69 70 69 67 65 61 59 61 60 60 56 53 53 58 60
66 67 67 69 68 68 68 69 70 70 72 72 73 73 73 75 74 74 74 76 76 75 71 68 67 66 67 66 66 67 66 65 65 63 62 58 57 54 52 53 52 50 52
65 66 65 66 66 66 67 68 69 69 71 71 71 72 72 73 73 73 74 73 73 70 68 68 66 65 65 65 65 65 63 63 62 63 60 58 57 55 55 51 47 46 46
64 64 64 65 66 65 65 66 66 67 68 69 70 71 72 71 72 73 74 74 73 73 71 66 65 64 64 63 63 62 61 60 60 60 58 56 51 49 48 48 44 41 40
62 62 64 64 65 64 64 64 64 65 65 65 67 69 70 69 68 70 71 71 72 70 68 65 63 63 62 62 60 58 57 57 57 55 50 46 45 44 43 42 42 41 38
61 62 62 62 63 63 63 63 63 62 62 63 64 63 64 64 65 66 67 67 68 68 66 62 60 59 58 57 56 55 54 53 47 46 45 42 43 40 40 40 40 39 38
59 60 61 62 61 61 61 61 61 60 60 61 61 60 61 62 62 62 62 62 63 62 62 61 60 58 56 55 52 49 48 44 43 43 41 40 41 39 39 39 38 37 37
57 58 58 59 59 58 58 58 59 58 59 60 61 60 61 61 61 60 60 60 59 60 58 59 57 55 53 51 49 47 45 43 41 40 41 40 41 40 38 37 36 35 34
57 57 57 57 56 56 56 56 56 56 57 58 58 56 56 57 56 56 56 56 55 54 53 52 51 50 49 48 48 46 44 42 41 41 40 40 39 37 35 35 34 34 34
56 56 56 55 55 54 54 54 54 55 55 55 54 52 52 52 51 51 51 50 50 48 47 47 46 45 45 44 44 43 41 40 40 39 39 38 37 35 34 34 34 34 34
54 54 53 54 54 53 53 53 52 53 54 52 51 49 49 48 47 46 45 45 45 46 45 44 43 43 42 42 40 39 38 36 35 35 36 35 37 38 38 38 37 38 37
51 52 50 51 52 52 51 51 51 51 52 50 49 48 48 46 44 44 44 44 43 43 43 41 41 41 42 43 42 38 35 35 33 32 34 36 38 39 39 38 37 38 37
51 51 50 50 50 50 51 50 50 51 49 48 47 47 46 43 42 42 41 39 38 37 36 36 35 35 38 40 39 37 32 32 31 32 33 35 37 36 37 38 39 39 40
49 50 50 48 49 50 50 50 50 48 46 46 45 45 43 40 38 37 35 35 35 34 34 33 33 33 35 38 37 36 32 32 33 33 34 37 37 38 37 38 37 37 38
50 51 51 49 47 48 48 46 46 45 44 42 40 41 40 37 36 35 34 35 34 33 33 34 34 35 36 38 37 36 34 34 33 34 36 38 39 38 40 38 34 36 36
50 48 47 46 46 45 46 43 42 42 39 38 38 38 37 36 35 35 34 33 34 34 35 35 39 41 38 39 40 40 41 38 38 38 38 37 37 39 39 36 35 32 33
47 46 45 44 44 43 43 39 38 35 36 38 37 37 36 35 35 34 34 35 35 36 37 39 41 42 42 40 40 40 39 37 36 36 36 36 37 37 37 37 34 33 36
44 44 42 41 43 42 39 35 34 36 36 37 36 35 37 38 38 36 38 39 39 39 40 39 38 40 41 40 39 39 38 38 36 35 35 36 36 35 35 34 36 36 36
45 43 41 42 40 40 38 35 36 37 37 37 38 39 41 43 44 43 42 42 43 42 40 38 38 37 38 39 37 37 37 37 35 35 34 35 34 34 34 34 34 34 32
44 45 44 39 37 39 39 38 38 41 42 42 42 43 43 43 43 42 44 42 42 40 38 37 36 36 37 37 38 37 37 37 36 34 35 34 32 33 32 33 34 33 32
44 43 41 39 38 39 38 41 42 44 44 44 43 42 42 42 41 41 42 41 39 38 38 36 36 35 35 35 36 35 34 34 34 32 33 32 32 31 32 32 32 32 31
44 41 42 39 38 39 40 42 45 46 44 42 41 40 40 41 40 38 37 38 38 37 37 37 36 36 36 36 35 35 34 33 33 31 30 30 30 29 30 29 29 30 30

GFSMW_sfc_temp_072.txt.gz
Temp
68 70 71 69 69 71 72 72 73 74 73 73 67 66 68 66 67 70 74 74 73 73 70 70 68 69 67 66 66 64 63 60 61 59 56 56 59 59 58 59 59 60 61
66 68 68 64 68 69 69 69 70 71 72 72 71 68 67 67 70 66 68 69 70 70 71 69 69 67 66 65 66 66 64 61 60 56 53 50 53 56 59 57 59 58 58
60 62 63 64 63 63 64 67 69 70 71 72 71 68 67 65 64 66 69 69 68 68 68 67 67 66 66 64 65 64 64 63 58 58 55 50 50 51 55 57 56 57 55
58 60 61 61 60 59 60 61 63 64 67 68 68 66 67 65 65 65 67 68 69 69 67 66 66 65 64 64 62 64 63 61 59 56 62 56 55 51 47 53 55 56 56
58 58 59 61 60 59 58 60 62 63 64 65 65 63 62 64 66 66 65 65 65 67 66 67 63 66 66 65 65 62 63 63 60 58 53 56 52 52 49 45 49 52 53
58 59 60 62 60 60 59 60 62 62 63 62 62 61 60 61 62 63 63 63 64 65 65 65 65 65 64 64 63 63 61 60 62 59 56 54 52 52 49 47 45 47 49
57 57 57 57 58 57 58 61 60 60 61 61 61 61 61 60 60 62 62 63 62 63 63 63 64 63 63 63 63 62 61 61 60 61 56 55 54 53 52 51 47 45 44
56 56 56 56 57 57 56 56 57 58 58 58 59 59 60 58 58 60 61 61 62 62 64 62 63 63 62 62 62 61 60 60 59 58 56 54 52 51 50 49 44 40 37
55 55 56 56 56 55 55 55 55 56 56 56 56 55 55 55 55 57 58 58 59 61 58 59 59 61 60 60 60 59 57 57 57 56 52 46 45 45 44 44 45 45 37
55 54 54 54 54 54 54 54 55 54 54 54 53 54 54 54 54 55 54 55 55 56 55 55 55 56 56 56 56 54 54 51 48 46 45 44 43 42 42 42 42 42 40
53 53 54 54 53 52 52 52 52 52 52 53 53 51 52 53 53 51 51 52 52 52 52 54 57 54 53 52 51 48 47 45 43 43 42 40 41 40 40 40 40 39 38
52 53 52 52 51 50 50 50 50 50 50 51 51 50 50 50 49 48 49 50 48 49 48 51 50 49 49 48 48 46 45 43 41 41 40 39 41 39 39 38 38 36 35
52 52 51 51 49 49 48 48 48 48 49 49 48 47 46 46 44 45 46 46 45 44 45 45 45 44 44 45 45 44 42 41 41 40 40 39 38 36 35 35 34 34 35
52 51 49 48 47 47 47 46 46 47 48 47 45 43 42 42 42 43 43 43 42 41 42 42 43 43 43 42 42 41 39 38 38 38 38 37 37 35 35 35 34 35 34
50 50 49 47 47 46 46 45 45 46 46 45 43 42 42 42 41 40 41 41 40 41 42 42 42 42 40 40 39 38 37 36 35 35 36 36 38 39 37 35 36 36 35
49 48 48 47 45 44 44 46 44 44 45 43 42 43 42 41 41 42 41 41 40 40 40 39 40 41 42 43 41 37 34 34 34 33 33 34 34 36 39 38 39 39 35
50 49 46 46 45 44 45 43 43 44 43 42 42 42 41 40 39 39 38 37 35 35 35 35 36 37 39 42 40 38 33 33 32 32 32 33 34 34 34 37 40 39 39
49 49 48 44 44 46 45 44 43 42 41 40 40 42 39 37 37 36 35 34 34 33 33 33 33 34 37 40 39 37 33 33 32 32 33 33 34 35 36 36 33 34 34
47 48 44 43 43 46 46 42 42 40 39 38 39 39 38 36 36 34 34 34 33 32 33 34 34 33 33 39 39 34 30 29 29 32 33 35 35 39 40 34 32 32 32
46 42 42 45 44 44 44 42 41 39 37 38 37 38 37 36 34 34 33 33 34 33 36 33 32 37 31 41 41 38 33 29 31 32 33 38 36 39 38 32 28 27 28
42 42 41 43 42 43 42 38 37 35 36 38 37 36 36 35 35 34 33 32 30 28 27 31 32 32 34 35 41 40 33 30 29 30 30 31 37 37 36 36 27 29 31
41 41 40 39 41 41 38 35 34 36 36 36 36 35 35 36 35 32 30 31 31 30 30 30 29 30 31 39 39 39 38 36 29 29 28 29 36 36 35 33 36 36 35
40 39 39 40 40 39 38 35 35 37 37 36 36 37 36 35 34 32 32 32 32 31 30 29 27 28 31 29 38 38 37 37 30 30 33 35 35 35 32 35 35 35 27
39 39 38 37 37 38 38 37 37 38 39 38 38 35 34 34 34 35 35 33 32 31 30 29 28 27 28 28 28 30 28 35 32 32 28 33 34 35 33 32 31 29 27
40 39 38 38 37 38 38 38 39 41 40 37 35 34 34 33 31 31 31 30 29 32 29 27 28 27 26 29 34 32 30 28 31 30 26 26 27 26 27 27 27 27 27
39 38 41 39 38 38 38 40 42 43 38 34 32 31 31 32 31 30 29 38 37 38 38 37 33 31 35 36 35 35 34 34 34 26 25 23 22 23 25 25 25 25 29

GFSMW_sfc_temp_075.txt.gz
Temp
67 68 68 67 66 66 67 67 67 72 71 66 64 64 65 66 66 67 68 70 71 72 69 68 66 65 65 66 63 62 61 58 58 57 54 54 55 56 57 58 57 58 59
60 61 63 61 64 64 64 65 67 68 68 71 69 65 65 65 66 66 67 68 68 68 71 68 68 65 63 62 63 62 59 58 58 55 51 50 53 54 57 56 58 57 57
58 58 59 59 60 59 59 61 61 62 65 67 67 65 65 64 63 64 66 66 66 66 66 65 65 66 65 63 63 63 60 60 57 58 55 47 48 49 52 56 56 56 54
58 57 57 57 58 57 57 59 60 61 63 63 63 64 63 63 63 63 65 65 65 65 65 64 64 62 62 61 61 63 62 58 57 55 59 55 53 49 48 51 52 54 54
56 56 57 58 59 58 57 57 59 61 61 61 61 59 60 61 62 63 63 64 64 65 65 64 63 63 62 62 61 60 60 60 59 57 54 54 53 52 48 46 48 52 53
55 57 58 59 57 57 57 57 59 59 59 59 59 59 57 57 58 59 61 62 62 62 63 63 65 64 63 63 63 63 61 62 62 60 57 54 53 54 49 46 45 47 47
54 55 55 55 55 55 55 58 56 56 56 56 56 56 56 55 55 56 57 59 60 60 62 63 62 62 62 64 63 62 61 60 60 60 58 58 56 54 54 50 46 44 42
52 53 55 54 54 54 53 54 54 54 55 54 53 53 53 53 54 54 55 56 57 58 59 59 60 62 62 62 61 60 60 60 59 58 56 55 54 52 52 50 46 40 39
51 52 53 52 52 52 52 52 52 52 52 52 52 52 52 52 51 52 52 52 53 57 55 56 58 58 58 58 58 57 57 57 55 53 52 48 46 47 47 47 47 48 38
51 51 51 51 51 52 51 51 51 51 51 51 51 51 50 51 50 50 49 50 50 51 52 52 52 51 52 54 54 53 52 51 48 47 46 44 43 43 43 44 45 45 42
50 50 49 50 50 49 48 48 49 50 49 50 49 48 48 48 48 47 47 46 47 47 48 49 49 49 51 50 49 48 47 45 44 43 42 41 42 41 41 41 41 40 40
50 49 49 48 47 46 46 46 47 47 47 48 47 46 46 45 44 44 44 45 43 44 44 45 44 43 43 43 46 45 45 43 41 41 40 40 41 39 39 39 38 37 37
49 48 48 47 46 46 46 45 46 45 46 45 44 43 42 42 40 41 42 43 41 41 41 42 41 40 41 40 40 42 42 41 41 40 39 39 38 36 36 35 35 35 36
50 48 46 45 45 45 45 44 45 45 45 44 42 40 39 39 39 40 40 40 40 39 39 39 39 39 39 39 39 38 37 38 38 38 38 37 36 35 35 35 34 35 33
49 48 45 44 44 44 43 44 44 44 44 42 41 39 39 39 39 38 38 38 38 39 40 40 40 39 40 39 36 37 36 36 35 36 37 37 39 40 39 36 34 34 33
48 47 46 45 43 42 43 44 43 43 43 41 40 40 40 42 40 40 39 39 38 38 39 40 40 40 41 43 41 36 34 35 34 33 33 34 35 37 39 38 38 37 34
47 46 45 44 43 43 43 41 41 42 40 39 40 39 40 39 38 38 37 36 35 35 35 37 38 39 40 42 41 38 31 30 30 31 32 34 36 34 33 36 39 39 40
46 46 46 45 45 43 42 42 41 40 39 38 39 40 38 37 36 36 35 34 34 33 33 33 34 35 39 41 40 37 32 31 32 31 30 29 29 31 34 34 32 33 33
46 46 47 43 41 42 45 42 38 37 37 36 38 38 37 36 36 34 34 34 33 33 33 32 30 30 33 40 39 33 28 28 28 30 30 31 31 39 40 31 28 28 30
45 43 41 41 41 42 44 41 38 38 37 36 37 38 37 36 34 34 33 33 34 32 30 27 29 37 30 42 41 34 30 27 29 29 30 38 34 38 38 29 26 25 26
43 41 40 39 42 42 41 38 37 35 36 37 37 36 36 35 35 33 33 31 25 26 25 29 29 30 32 34 40 39 31 29 28 29 29 30 37 37 37 36 27 28 30
40 39 38 39 41 41 39 36 34 36 36 36 35 35 35 36 35 32 29 29 28 27 27 27 27 28 30 38 39 39 38 35 29 28 28 28 36 36 36 33 36 36 34
38 38 37 39 39 39 38 35 35 37 36 36 35 36 37 33 32 29 29 28 29 28 27 28 26 26 29 28 39 39 38 37 30 30 33 36 36 35 31 35 36 35 26
37 37 36 34 35 38 38 37 37 37 37 37 37 33 32 31 30 31 31 30 28 28 28 28 27 25 26 26 27 29 27 33 31 31 27 32 34 35 33 31 30 28 26
38 37 35 35 37 38 37 37 38 39 39 38 35 32 31 30 29 30 28 27 28 30 28 28 28 26 25 29 33 32 30 27 31 30 26 26 26 25 26 26 26 26 26
39 37 36 36 37 38 38 38 40 41 37 35 31 30 30 28 28 27 27 38 37 39 38 37 32 31 35 36 35 35 35 34 34 26 24 22 21 22 24 24 24 24 28

GFSMW_sfc_temp_078.txt.gz
Temp
63 65 65 62 60 62 64 65 66 68 66 65 64 64 64 65 65 66 67 68 69 68 67 65 64 63 65 66 62 60 60 57 57 56 54 54 54 55 54 55 55 57 59
57 58 61 58 61 60 61 63 64 65 67 66 65 65 64 64 65 66 66 67 67 66 67 65 65 64 62 61 61 61 58 58 56 56 52 54 53 54 56 54 56 55 56
57 53 56 57 56 56 57 60 60 62 63 65 65 64 64 63 63 63 64 65 66 65 65 64 63 62 63 63 62 61 60 61 56 55 55 48 49 48 52 52 53 53 52
55 54 55 55 55 55 55 57 59 60 61 61 61 63 64 63 62 63 63 63 64 64 65 64 63 62 61 61 61 62 61 57 57 55 58 53 52 50 48 49 51 54 55
54 54 55 57 56 56 56 55 57 58 58 59 59 58 59 60 61 62 62 63 63 64 64 64 62 62 61 60 60 61 60 61 61 56 53 52 53 53 51 52 47 49 50
53 54 55 56 55 54 54 55 55 55 55 55 55 57 57 56 56 57 58 60 61 62 63 62 62 62 62 61 61 60 61 60 61 61 59 57 54 54 50 48 47 48 46
51 52 53 54 53 53 54 55 54 53 53 52 51 52 53 53 54 55 56 58 58 59 62 61 61 60 60 62 62 62 61 60 59 60 58 58 58 55 54 53 47 46 44
50 51 52 53 52 53 52 53 52 52 52 52 51 50 50 51 51 51 53 54 56 57 57 59 59 60 62 62 61 60 59 59 59 59 59 58 56 53 53 51 49 42 41
49 50 50 50 51 50 51 51 51 51 51 50 50 49 49 50 49 49 50 50 52 55 54 54 55 55 56 57 57 55 53 55 52 50 49 48 47 47 48 48 48 48 41
49 48 48 48 49 50 49 49 49 48 49 49 48 47 47 47 47 47 46 47 48 50 50 50 50 49 51 51 50 47 49 49 46 46 46 44 44 44 44 45 45 45 44
49 48 47 47 47 47 46 47 48 47 47 46 45 44 44 44 44 43 43 44 44 45 46 47 46 45 45 48 49 48 47 45 44 43 42 42 42 41 41 41 41 41 41
49 47 47 46 45 45 45 45 45 45 45 45 44 43 43 42 42 42 42 43 41 42 43 43 42 41 41 40 45 45 45 44 42 42 41 40 42 39 39 39 37 37 37
47 47 46 45 45 44 44 44 44 43 43 43 42 41 40 40 39 39 40 41 40 39 40 40 39 39 39 38 38 38 37 40 40 39 39 39 39 37 36 36 35 35 37
47 46 45 44 44 44 43 43 43 43 42 42 40 38 38 38 38 38 38 39 38 38 38 38 37 37 37 37 36 36 35 36 35 36 37 37 37 36 35 35 35 36 35
47 46 44 43 43 42 42 42 42 42 42 40 39 38 38 38 38 38 38 38 38 38 38 37 37 37 38 38 35 36 36 36 36 36 37 37 40 41 39 34 34 34 34
47 47 46 43 42 40 41 42 41 41 41 40 39 40 41 41 40 39 38 39 38 39 40 41 38 40 42 42 41 36 35 34 33 33 34 35 34 38 41 41 40 38 33
47 46 46 44 42 42 42 40 40 41 39 39 38 39 41 39 38 38 37 36 35 36 36 37 38 39 40 42 41 38 29 28 31 30 26 31 36 35 33 37 39 38 41
46 45 44 42 43 44 43 41 40 39 38 37 37 40 39 37 37 36 35 34 34 34 34 34 34 35 39 41 40 37 29 27 26 25 26 28 28 31 32 31 30 30 30
46 45 45 44 44 41 41 40 40 38 37 36 38 38 37 36 35 34 33 34 33 33 33 33 31 30 32 40 39 32 27 28 27 29 29 30 29 39 39 30 28 28 29
44 44 44 43 41 40 41 39 38 37 35 37 37 37 37 36 34 34 33 33 30 27 28 27 28 36 30 41 39 33 30 27 28 29 30 39 33 38 38 29 26 25 26
41 41 41 39 40 41 41 39 38 35 37 38 37 37 36 35 35 34 34 32 25 26 24 27 27 29 32 34 40 38 31 29 28 29 29 30 37 37 37 36 27 28 29
41 39 37 37 39 41 40 37 35 36 37 37 36 35 35 36 36 34 28 28 27 26 25 26 26 28 28 38 39 39 37 35 29 28 28 28 36 37 36 33 35 36 32
40 39 36 36 38 39 39 36 36 37 37 36 35 35 36 36 35 29 28 27 27 26 25 27 26 26 29 27 38 39 38 37 30 30 32 36 36 35 31 35 36 34 26
39 37 36 34 33 36 38 38 37 38 37 36 36 36 34 32 29 30 29 27 26 26 27 27 26 25 26 26 28 30 27 33 31 32 27 32 34 35 32 31 29 28 26
39 37 35 34 33 34 35 37 38 38 37 37 35 34 31 30 28 29 27 26 27 29 27 27 27 25 26 29 32 31 30 27 31 29 26 25 25 25 25 26 26 25 26
37 37 35 34 34 35 37 38 39 39 38 36 32 30 28 27 27 27 26 36 37 39 39 37 31 31 35 37 37 36 35 35 35 26 23 21 21 21 24 24 24 24 28

GFSMW_sfc_temp_081.txt.gz
Temp
64 65 63 63 61 61 64 65 65 66 65 64 63 63 63 64 64 64 66 66 68 67 65 65 62 62 62 62 61 59 58 56 56 56 54 54 55 54 54 54 54 55 57
60 58 58 58 62 61 59 62 64 65 65 64 64 64 64 64 65 65 65 66 65 65 65 64 63 62 62 61 60 60 57 57 55 56 55 55 58 53 55 53 55 53 54
55 53 54 53 54 57 57 60 61 62 64 64 64 63 63 63 62 63 64 65 64 64 64 63 62 61 61 61 61 60 59 59 55 55 58 52 51 48 52 51 51 52 50
53 53 54 55 55 53 55 57 58 59 60 60 62 63 63 61 62 62 63 63 63 64 64 63 62 61 61 60 60 60 60 60 60 55 57 55 54 53 51 50 49 50 53
54 54 54 55 54 54 54 54 55 56 56 57 58 59 60 61 61 61 62 62 62 63 64 64 62 61 60 60 59 59 61 61 61 58 56 55 53 53 51 53 52 50 48
53 53 54 54 52 52 54 54 54 53 53 53 54 55 55 56 55 56 57 59 60 61 62 62 62 62 61 60 60 59 59 60 60 59 58 57 54 52 51 49 52 49 48
49 50 51 52 52 51 52 54 53 51 51 51 51 51 52 53 54 54 54 55 56 57 59 60 60 60 60 60 60 61 60 58 59 59 59 58 57 56 54 53 51 47 45
49 49 50 50 50 51 51 51 50 50 50 50 49 49 50 50 50 51 52 53 54 57 56 57 58 59 59 59 59 60 59 58 57 56 56 57 54 54 53 52 50 43 42
47 49 49 49 49 49 49 48 48 48 48 48 48 47 48 48 48 48 49 49 51 54 55 56 56 56 56 56 57 54 54 52 51 49 49 48 46 47 48 48 49 48 43
46 47 47 47 48 48 47 48 47 46 46 46 46 45 44 45 45 45 45 46 47 49 49 49 50 51 51 51 50 49 51 47 46 46 46 43 44 44 44 45 45 45 44
46 46 47 46 46 45 46 46 47 46 44 44 43 42 41 42 42 41 42 42 44 44 45 45 45 44 45 46 46 46 47 46 44 44 43 42 43 40 42 42 41 41 41
45 45 45 45 43 44 44 44 44 44 44 43 41 40 41 40 39 39 40 41 40 41 41 42 41 40 40 40 43 42 45 43 42 42 42 41 42 39 39 38 38 37 38
45 43 44 45 44 43 43 43 43 42 42 42 40 39 39 39 37 38 39 39 38 39 39 39 38 38 38 37 37 37 40 40 40 40 39 39 39 36 36 35 32 31 37
46 43 43 43 44 43 42 42 41 42 41 40 39 38 37 36 36 37 37 38 37 37 36 37 37 37 36 36 36 36 36 36 35 35 35 34 34 33 32 32 32 33 33
44 44 42 42 42 42 42 42 42 41 40 39 38 37 37 37 37 37 37 37 37 37 37 36 37 36 37 37 37 37 37 36 36 36 37 37 40 42 38 34 32 32 31
46 45 43 42 42 41 40 41 40 40 40 38 37 38 40 40 38 39 39 39 39 39 37 37 39 40 41 42 40 38 36 35 34 33 34 35 35 38 42 41 41 38 30
46 46 46 44 41 42 42 40 40 40 38 37 38 39 41 39 38 38 38 37 36 37 37 38 39 39 40 42 40 37 30 32 32 27 25 30 34 33 31 37 38 39 41
45 45 44 42 43 42 41 40 40 39 38 36 37 39 39 37 37 36 35 34 35 35 35 34 34 35 39 41 39 36 27 26 25 24 25 27 28 31 31 30 29 29 30
47 45 44 42 41 42 42 41 38 37 37 36 36 38 38 36 35 34 34 34 34 33 33 33 31 30 32 40 38 32 26 28 27 29 28 29 29 39 38 30 28 27 29
44 43 42 41 41 40 42 39 37 37 37 37 37 38 37 36 34 34 33 33 33 32 30 28 28 36 30 40 39 33 30 27 29 28 30 38 33 38 38 28 26 25 26
42 40 40 40 41 40 38 36 37 36 37 38 38 37 36 35 35 34 33 30 27 26 23 27 26 28 31 34 39 38 31 29 27 29 29 30 37 38 37 35 27 28 29
40 39 38 38 38 39 38 37 36 37 37 37 36 35 35 36 35 34 32 28 27 26 25 25 26 27 27 38 39 39 37 35 29 28 29 29 36 37 37 33 35 37 31
41 40 39 37 37 38 40 37 36 37 37 36 35 35 36 36 36 31 27 26 26 25 24 27 25 26 29 26 38 39 39 37 31 31 32 36 37 36 31 35 36 34 26
39 39 38 34 34 36 38 39 37 38 37 36 35 36 35 34 33 30 29 26 25 24 27 27 26 24 25 26 27 29 27 33 31 32 26 31 33 34 32 30 29 27 26
40 38 37 34 34 34 36 38 38 38 37 37 36 35 34 34 30 28 26 25 26 28 27 26 27 25 25 28 31 31 30 27 31 28 25 25 25 24 25 25 25 24 25
38 37 35 35 34 34 35 38 39 39 37 35 35 35 33 30 27 26 25 36 36 38 39 38 31 30 35 37 38 37 36 36 35 26 23 21 20 20 23 23 23 23 25

GFSMW_sfc_temp_084.txt.gz
Temp
64 66 65 63 63 63 63 64 65 66 65 63 62 62 64 63 63 63 65 66 67 65 64 62 61 60 59 60 58 57 57 56 55 55 54 54 55 55 54 54 54 55 56
59 61 63 61 62 63 61 62 63 64 65 65 63 64 63 63 64 64 64 64 63 63 63 63 61 60 60 59 58 58 56 56 55 55 54 55 59 54 54 52 54 53 54
63 58 57 59 57 59 60 60 62 63 64 64 64 63 63 62 62 63 63 63 63 63 62 62 62 60 61 60 59 59 58 57 55 55 58 52 52 52 56 55 51 51 50
55 55 53 53 53 53 56 58 59 60 61 62 62 62 62 62 62 62 62 63 63 63 63 63 61 61 60 60 60 59 59 59 59 55 57 56 56 53 52 51 49 49 52
56 55 53 54 53 53 52 54 55 55 56 58 58 60 61 61 61 61 61 61 62 63 63 63 61 60 59 59 59 58 58 58 58 56 54 53 53 53 52 53 54 52 48
55 55 53 52 50 50 51 52 53 52 53 53 53 54 55 57 57 57 58 59 60 61 61 62 62 61 60 60 59 59 58 58 58 59 58 57 55 52 51 50 51 51 48
54 53 51 49 48 49 49 51 51 50 50 51 50 50 50 51 52 53 53 54 55 57 58 59 60 60 60 60 60 59 58 58 58 58 58 57 57 56 54 53 52 49 47
51 52 51 49 48 49 48 49 49 49 49 49 48 48 49 49 49 49 51 52 53 57 58 56 58 58 59 59 59 58 59 58 56 55 55 55 52 53 53 52 50 46 44
47 49 48 48 47 47 48 47 47 47 47 47 47 46 47 47 47 47 48 48 49 55 55 55 55 56 57 58 57 55 53 52 51 49 49 48 47 46 47 49 49 48 44
44 45 46 46 46 46 45 46 46 45 44 44 44 43 43 44 44 44 43 44 45 47 50 51 51 52 52 52 52 50 49 46 47 47 46 44 43 43 44 44 46 46 45
43 44 44 44 44 44 44 44 45 44 43 42 41 41 40 41 41 41 40 41 42 43 43 44 45 47 48 49 48 47 48 46 45 45 44 43 44 42 41 40 39 39 39
44 43 42 42 42 42 43 42 43 43 42 42 41 40 39 39 38 38 39 40 39 40 40 41 41 41 40 41 42 42 43 43 43 43 42 41 43 40 39 39 38 35 38
43 42 41 41 41 41 42 42 42 41 41 41 40 39 38 37 36 36 37 38 38 38 38 38 38 37 38 37 37 38 41 41 41 41 40 40 39 37 37 36 35 34 35
43 41 40 41 41 41 42 42 41 41 40 40 38 37 36 36 36 36 36 36 36 36 36 36 36 36 36 36 36 37 37 36 36 36 35 34 34 32 31 31 31 32 31
42 42 41 40 41 40 41 42 41 40 39 38 37 36 36 36 36 36 36 36 36 36 36 36 36 36 37 39 38 38 37 37 36 37 38 38 40 41 38 33 31 31 30
44 43 43 41 40 40 39 41 40 40 40 37 37 37 37 37 37 38 38 37 37 37 37 37 38 40 41 41 41 39 36 36 35 34 34 35 36 40 43 42 42 36 30
45 45 44 43 41 40 40 40 39 39 38 38 37 38 40 39 39 39 38 37 37 37 37 38 39 39 40 42 39 38 33 33 30 27 27 31 34 32 30 37 38 39 41
46 45 45 42 42 41 40 39 40 38 37 36 37 38 39 38 37 37 36 35 36 35 35 34 35 36 40 41 39 36 28 26 25 25 25 27 28 31 30 29 29 29 30
46 47 46 43 42 42 41 38 37 37 37 35 37 37 39 37 36 34 34 35 34 33 33 34 33 32 34 40 38 32 27 28 27 29 28 29 29 39 37 29 28 27 28
46 44 42 41 41 39 40 38 37 38 35 36 38 38 38 36 35 34 34 33 34 33 33 29 30 37 32 40 39 33 30 27 28 29 29 38 33 39 38 28 26 24 25
41 41 41 41 40 40 39 38 37 36 37 38 38 37 37 36 35 34 33 33 32 30 26 28 27 29 32 34 39 37 31 29 27 29 29 30 37 38 37 34 26 28 28
40 40 38 37 38 38 38 36 35 37 38 38 37 36 36 36 35 34 32 31 29 27 26 26 27 27 27 38 39 39 36 34 29 28 28 29 36 37 37 32 36 37 32
39 40 38 37 37 37 37 35 36 38 37 36 36 35 36 36 35 33 30 27 27 26 25 28 26 26 29 26 39 40 39 37 30 30 32 36 37 36 31 35 36 33 26
38 38 37 37 37 36 37 37 37 38 37 36 35 36 35 34 34 33 31 27 25 25 27 27 26 25 26 26 27 29 27 34 32 32 26 31 33 33 31 30 28 27 25
38 37 38 36 37 34 35 36 38 38 37 36 35 35 35 34 32 30 28 26 26 29 27 27 27 25 24 28 31 30 29 26 31 27 25 24 24 24 24 24 24 24 24
38 37 38 38 35 34 36 38 38 38 37 35 34 34 34 32 32 28 26 35 35 37 38 38 31 31 35 37 38 37 37 37 36 26 23 20 19 20 23 23 23 22 24

GFSMW_sfc_temp_087.txt.gz
Temp
66 67 69 67 66 67 65 67 68 67 66 66 66 67 68 68 69 70 71 71 73 71 70 70 69 68 68 68 68 67 67 67 66 66 68 69 70 69 69 69 69 68 68
64 65 68 67 67 67 65 65 67 68 69 67 67 67 67 68 70 69 69 70 70 70 69 69 68 68 67 67 67 66 66 66 65 67 64 63 68 69 67 68 67 67 67
64 66 65 66 64 65 66 65 66 67 68 68 67 66 66 66 66 68 68 67 67 67 68 68 68 67 67 66 67 65 65 64 62 64 63 55 56 61 66 64 64 64 65
63 61 61 63 63 62 61 63 64 65 66 67 67 67 67 65 67 68 68 68 68 67 67 67 67 67 66 66 65 65 65 65 63 60 60 63 62 56 58 60 60 57 62
62 62 61 59 60 58 58 59 59 61 62 63 66 67 66 67 67 67 67 67 68 68 67 67 66 66 65 66 65 64 64 64 64 63 58 58 58 58 54 52 56 59 55
61 61 58 57 56 56 56 57 57 57 59 60 61 62 63 63 63 64 64 65 65 66 66 66 67 66 65 65 65 65 64 64 63 64 61 60 58 54 54 52 54 55 55
61 60 57 54 55 54 55 56 57 55 56 57 57 58 59 59 60 59 60 61 62 63 63 63 65 65 65 65 65 64 63 63 62 63 63 62 62 60 58 56 54 53 51
55 56 56 56 54 53 54 54 54 54 55 55 54 54 55 56 55 56 57 58 59 60 61 61 62 63 64 64 64 64 63 62 60 59 57 56 54 55 56 56 53 50 49
52 54 55 54 53 52 53 53 52 52 53 53 53 52 52 52 52 52 53 54 55 57 57 58 59 58 59 61 60 58 55 55 54 54 53 52 50 50 51 53 55 53 48
48 50 51 51 51 52 51 52 52 51 50 50 50 49 49 49 49 50 49 50 51 52 53 54 54 53 53 54 54 52 52 51 50 50 51 49 48 49 49 49 49 50 50
46 48 49 49 49 49 49 49 50 49 48 48 48 48 47 47 47 47 47 48 48 49 49 50 51 51 51 51 53 52 52 50 49 50 48 45 46 45 45 45 47 46 46
47 47 47 47 47 47 47 48 47 48 47 47 46 46 46 46 46 45 45 46 46 46 46 47 46 46 47 49 50 49 49 49 48 47 46 44 45 43 44 44 42 42 43
45 45 46 46 47 46 46 46 46 46 46 45 45 44 44 44 43 43 43 44 44 43 44 44 43 43 43 44 45 46 46 46 46 45 44 43 43 40 40 40 39 39 41
45 45 45 45 46 45 45 45 45 46 45 44 43 42 42 42 42 42 42 42 42 42 42 42 41 41 41 41 42 43 42 41 40 40 40 40 40 39 38 38 39 40 41
44 45 44 45 45 45 45 45 45 44 44 43 42 41 40 41 41 40 40 40 41 41 41 41 40 40 41 41 41 41 40 40 39 40 40 40 40 41 40 39 38 39 39
46 45 45 44 44 44 44 44 43 43 43 42 40 40 40 41 40 41 40 40 40 41 41 41 42 41 42 43 42 41 39 38 38 36 37 38 38 43 44 43 42 41 39
47 46 46 46 45 45 45 43 43 43 42 41 40 40 41 40 41 41 41 40 39 40 40 40 41 40 41 42 42 40 35 34 33 33 33 35 37 37 38 40 40 41 41
47 48 48 47 46 46 44 43 42 41 40 40 40 41 41 40 40 39 37 37 37 37 37 35 36 38 41 41 40 38 33 33 33 33 34 35 36 37 36 37 35 36 38
49 49 50 48 46 45 45 43 41 40 39 39 39 40 40 39 38 36 35 36 35 34 34 36 36 37 39 40 38 35 34 33 33 34 35 36 37 39 37 35 33 34 35
48 47 46 45 45 44 43 41 40 39 39 39 40 40 40 38 36 36 35 34 35 33 34 33 35 38 38 40 39 36 36 34 34 34 36 38 38 39 37 35 34 32 33
45 44 43 43 43 42 42 40 39 38 39 40 40 39 39 37 36 34 34 33 33 33 32 33 34 35 37 40 40 38 35 35 33 34 34 36 38 39 38 35 34 34 35
42 41 41 40 40 41 41 39 37 38 39 39 38 37 37 37 36 34 34 34 32 32 32 32 32 34 35 39 40 39 36 36 34 33 34 35 37 38 37 36 36 38 34
41 41 40 39 39 40 41 38 38 38 38 38 37 36 36 36 36 34 33 32 32 32 31 32 32 32 34 34 40 41 39 37 34 35 35 36 37 37 35 37 38 35 33
41 40 39 38 38 39 39 40 38 39 39 37 36 36 35 35 35 35 33 32 31 31 31 32 31 31 32 32 33 35 37 38 35 36 34 34 34 33 33 34 33 32 32
40 40 39 39 40 39 39 39 39 40 38 38 36 35 35 35 33 34 33 32 33 34 32 32 32 30 30 32 34 34 33 33 34 31 31 31 30 30 30 30 30 30 31
40 39 39 40 40 38 38 38 39 39 38 37 35 35 35 33 33 32 30 36 36 37 38 37 34 34 37 38 38 38 37 36 37 31 29 28 28 28 29 29 29 29 30

GFSMW_sfc_temp_090.txt.gz
Temp
81 79 77 74 73 76 78 78 77 74 73 70 69 70 70 73 76 78 79 81 81 81 80 80 79 79 77 77 77 75 73 74 75 73 74 75 78 78 79 80 79 78 76
77 77 76 75 71 73 75 75 76 76 73 74 71 71 71 70 73 74 76 78 79 79 79 78 77 78 76 75 75 73 72 73 75 71 71 67 74 77 78 78 77 76 76
73 75 74 71 71 69 72 70 72 71 72 72 70 71 70 68 68 70 71 73 74 74 73 75 76 75 74 73 74 73 70 70 71 71 69 61 62 68 73 72 74 73 73
74 76 74 71 71 71 73 73 69 71 70 71 69 68 68 68 69 71 73 74 73 73 73 74 74 74 73 72 72 72 71 70 69 68 69 71 68 61 57 66 70 68 67
72 73 71 72 71 69 67 70 71 71 71 71 70 70 69 71 71 70 70 72 73 74 72 72 72 72 72 72 72 71 71 72 69 69 67 64 62 61 57 55 64 65 63
71 73 73 69 67 67 67 64 66 66 67 68 69 69 68 69 68 68 69 72 73 74 73 72 72 71 71 71 72 72 71 70 69 69 68 65 64 62 59 56 58 59 61
71 72 72 67 65 64 65 65 66 62 65 66 64 64 67 68 68 69 70 70 71 69 70 70 69 68 68 69 70 70 69 68 67 67 66 67 67 66 65 60 60 58 59
70 71 72 71 65 61 64 64 65 64 65 64 64 64 64 64 64 64 65 67 68 68 67 67 67 68 67 68 68 67 66 66 65 65 64 63 58 58 59 58 57 54 56
65 68 70 68 67 65 64 64 64 64 64 64 64 64 63 62 62 61 63 63 62 63 64 64 65 65 65 64 64 63 61 61 58 57 56 54 54 55 55 54 55 55 55
64 65 66 66 65 63 61 63 64 63 62 62 63 61 61 60 60 61 59 59 60 59 60 61 61 61 61 60 60 56 55 54 53 53 53 53 53 53 53 53 54 54 53
60 62 63 63 62 60 59 59 60 60 60 60 60 60 59 58 59 58 58 57 58 58 58 57 59 58 58 56 55 54 54 52 51 55 55 53 51 49 49 49 52 53 53
58 59 60 60 59 59 58 57 57 57 57 57 58 57 57 57 58 56 55 56 55 55 55 56 56 55 55 55 55 54 55 55 55 53 52 49 49 48 50 52 50 50 50
56 58 58 59 59 59 59 58 57 56 55 55 56 55 54 55 55 55 54 54 54 54 53 53 53 52 52 53 55 55 54 54 53 52 51 50 49 46 45 47 45 46 46
55 57 58 58 59 58 58 57 57 56 55 54 54 53 53 53 53 52 52 52 52 52 52 51 50 49 50 50 51 52 51 50 49 48 47 47 46 45 45 44 45 47 47
55 56 57 58 58 57 57 57 56 55 55 52 51 50 50 49 49 49 49 49 50 50 49 49 48 47 47 48 48 47 46 45 44 43 44 44 43 43 44 45 45 45 46
55 56 57 58 58 58 57 56 55 53 53 52 50 49 48 48 48 48 47 48 47 48 48 47 47 45 45 43 44 46 45 44 42 41 42 43 44 44 44 43 43 45 45
57 56 57 57 58 58 58 55 55 54 52 51 50 48 48 47 47 47 47 46 45 46 45 44 44 44 44 44 44 43 40 37 36 36 37 40 41 43 44 43 43 42 42
58 59 59 59 59 59 57 57 55 52 50 50 49 48 48 47 46 45 43 41 41 41 40 38 39 40 42 43 42 40 38 39 39 40 41 41 41 41 41 42 40 41 42
62 62 62 61 60 58 57 54 52 50 49 48 47 47 47 45 44 41 39 39 37 36 36 38 39 40 40 41 40 40 40 38 38 40 42 42 42 39 39 39 37 40 39
59 59 60 59 58 57 56 53 51 49 47 48 48 48 46 44 42 41 37 35 37 35 36 36 39 41 40 40 39 41 40 39 39 40 40 40 42 40 38 40 40 37 39
52 53 55 55 55 54 52 50 50 46 47 47 46 46 44 42 41 37 35 35 35 35 35 36 40 42 43 42 40 40 41 41 39 38 39 41 40 39 38 38 40 39 40
50 50 50 49 50 50 50 48 45 46 46 46 44 43 42 41 38 36 35 35 35 34 35 39 39 40 42 42 41 40 39 40 39 38 39 40 38 38 38 38 38 38 37
49 49 49 48 48 48 49 45 47 46 45 44 43 42 41 39 38 36 35 33 34 34 36 38 38 38 39 42 41 40 39 39 39 39 39 37 38 38 38 37 38 38 38
50 48 48 47 47 47 48 50 47 46 45 45 43 41 38 37 36 36 35 34 33 34 37 37 37 38 38 39 40 41 41 39 37 36 38 37 38 38 38 37 38 37 38
47 46 48 49 48 47 46 46 47 47 45 44 42 39 38 37 35 35 35 35 36 37 38 38 39 37 36 37 40 39 39 39 38 37 36 36 36 35 35 36 36 36 36
47 46 44 46 47 44 44 43 44 44 45 43 40 38 37 36 35 34 33 38 38 39 40 40 40 39 40 40 39 39 38 38 37 35 34 35 35 35 35 34 34 35 34

GFSMW_sfc_temp_093.txt.gz
Temp
81 83 79 78 78 79 79 80 77 78 74 72 72 72 71 72 76 78 80 81 82 82 80 80 81 80 78 78 78 76 74 73 74 72 72 73 76 76 77 78 78 79 77
79 81 79 78 77 77 77 78 79 79 76 73 73 74 74 74 75 74 77 79 79 78 79 79 78 79 78 77 77 75 72 72 73 69 70 65 72 74 75 76 77 77 76
76 78 78 76 76 75 76 76 77 80 78 75 72 72 71 69 69 71 73 73 72 75 76 77 78 77 77 74 74 73 71 69 72 72 68 62 61 67 71 71 72 73 72
76 79 77 74 74 74 73 76 76 72 71 73 72 69 69 68 69 72 72 73 72 71 69 69 72 74 73 72 72 73 72 70 67 68 70 70 69 62 61 67 68 68 68
75 76 76 73 74 74 71 74 70 73 71 71 71 68 67 71 69 68 68 71 74 70 68 69 69 69 71 71 72 71 71 71 69 69 66 66 66 64 59 57 62 65 64
74 77 74 74 73 72 70 70 71 69 69 70 67 69 67 67 67 65 66 70 72 72 71 71 70 70 70 70 70 71 71 70 70 69 68 64 61 60 59 57 59 60 61
74 74 75 71 71 69 68 66 70 67 66 69 68 70 69 71 69 67 67 67 70 68 69 70 68 68 68 68 69 70 69 68 67 67 66 66 65 65 64 62 60 58 59
74 74 75 74 71 68 62 63 62 63 67 66 67 67 66 65 65 66 65 69 70 70 70 68 69 69 68 66 66 65 65 65 64 65 64 62 60 61 60 59 59 54 54
71 73 74 76 75 66 65 65 65 65 66 66 67 66 66 65 63 62 65 65 65 65 65 65 66 67 67 66 64 63 63 63 61 59 59 57 55 56 56 55 56 55 50
69 70 72 74 73 71 68 67 64 66 66 66 66 65 65 63 64 64 62 62 62 62 63 63 63 63 63 62 62 58 56 54 52 53 52 51 52 53 53 53 53 53 52
67 68 69 72 71 69 66 66 65 62 61 62 63 62 61 61 62 61 60 60 60 60 61 60 61 61 61 58 56 55 54 52 52 53 53 52 54 51 51 50 52 52 51
64 66 68 66 65 63 63 63 62 61 61 60 62 60 60 60 60 59 58 59 58 58 58 58 59 58 58 59 56 53 53 53 53 53 52 49 50 49 50 51 51 51 51
61 63 63 62 62 62 62 62 62 60 60 60 60 59 58 59 58 58 57 57 57 56 56 56 55 55 55 56 57 57 57 55 55 53 51 49 49 48 47 47 46 46 46
59 61 61 62 63 63 62 62 61 60 59 59 58 57 56 56 56 55 55 54 55 55 54 54 53 52 52 53 54 55 54 53 51 50 50 49 49 46 46 45 45 46 46
59 59 61 62 62 61 61 62 60 59 59 57 56 54 54 53 53 52 52 52 52 52 52 51 51 51 50 50 51 51 50 48 45 45 45 45 45 46 47 46 45 45 45
59 60 61 62 61 61 61 60 58 58 57 56 55 53 52 51 51 50 50 50 50 50 50 49 49 48 48 44 46 48 46 46 44 43 43 43 44 44 45 44 44 45 43
60 60 61 61 62 62 62 59 58 58 56 55 54 52 52 51 50 50 49 48 47 48 46 45 46 45 45 45 45 45 40 38 37 36 38 41 43 44 42 44 43 43 43
61 62 62 62 63 63 62 61 59 57 54 54 53 52 52 50 49 48 47 44 44 43 42 39 40 41 43 44 43 41 39 40 40 40 41 40 41 41 41 40 38 38 39
64 65 65 65 64 62 61 60 57 55 53 53 52 51 51 50 48 45 42 42 40 37 37 38 39 40 41 43 42 40 40 38 38 40 42 41 40 40 42 38 36 37 36
63 64 65 65 63 62 61 58 55 54 51 52 52 52 50 49 46 45 41 37 38 36 37 36 39 41 40 41 41 41 40 39 38 39 39 42 42 40 40 37 37 34 35
55 57 61 61 61 61 59 55 54 51 52 52 51 50 48 46 45 41 38 36 36 35 35 36 38 40 42 41 41 42 40 39 37 37 37 38 41 40 39 39 37 37 37
53 53 54 53 55 55 54 51 50 50 49 49 47 46 45 45 42 39 37 36 35 34 34 36 37 41 43 43 41 41 41 42 37 36 37 38 40 39 39 37 39 39 39
52 53 53 52 52 52 53 51 50 49 48 47 46 45 45 43 42 39 36 34 35 34 34 35 36 38 39 41 42 41 40 41 38 38 39 40 39 39 38 39 39 39 34
52 52 51 51 50 51 51 53 52 50 49 47 47 46 43 41 40 38 37 35 34 33 33 35 36 38 37 38 39 38 38 40 37 38 36 37 37 38 37 36 36 35 35
50 51 51 52 52 51 50 51 50 49 47 48 47 44 42 40 38 36 36 35 36 35 33 35 37 37 36 37 40 40 38 37 37 36 34 33 33 32 33 33 34 34 33
50 49 49 48 48 47 47 46 46 46 45 44 45 43 40 40 37 35 34 38 38 38 38 40 41 39 42 42 41 41 41 41 40 34 32 32 32 32 33 32 32 32 33

GFSMW_sfc_temp_096.txt.gz
Temp
71 72 71 71 72 71 73 74 72 71 72 70 67 66 66 69 71 73 74 76 77 75 73 71 71 71 69 68 68 67 65 63 64 62 62 63 66 66 67 67 68 69 69
68 69 69 69 69 69 70 71 72 71 71 70 69 67 67 67 67 69 71 73 73 74 73 71 70 71 69 69 68 67 64 65 65 61 60 58 62 64 67 66 67 65 65
66 67 67 66 68 68 68 69 71 72 70 70 67 67 66 66 66 67 66 68 69 69 70 70 67 68 68 67 67 67 65 62 63 64 61 56 55 60 62 63 64 63 60
66 68 67 64 64 65 67 69 69 70 69 68 66 64 64 62 63 65 66 67 67 67 67 67 67 66 66 65 64 65 63 63 61 62 64 62 61 56 55 59 60 60 60
64 66 65 66 65 63 60 64 67 67 66 66 66 64 65 66 65 66 67 66 67 67 66 66 66 66 66 66 66 64 64 64 62 62 60 60 59 59 56 54 55 56 55
64 66 65 65 62 61 61 61 62 65 65 65 64 63 64 64 64 64 63 65 66 66 66 66 65 65 65 65 65 65 65 63 63 63 63 61 59 57 56 55 56 54 53
63 63 63 61 60 59 59 58 59 59 62 63 64 65 65 65 65 64 63 64 64 64 65 66 64 64 65 65 66 65 65 65 65 65 64 63 62 62 60 57 55 53 52
62 63 63 62 60 59 57 57 59 57 59 59 60 60 61 60 60 61 62 63 63 63 63 63 63 64 64 64 64 63 64 64 63 63 62 61 60 60 60 58 55 52 52
61 62 63 62 60 57 56 56 56 57 57 58 58 60 60 58 57 58 58 58 59 61 60 60 60 61 61 61 62 61 62 62 62 61 60 57 55 55 55 55 55 54 50
57 59 62 62 61 58 57 58 57 57 59 60 59 60 58 58 58 56 55 55 56 57 57 58 58 58 57 56 57 57 56 56 54 54 53 51 52 52 52 52 52 52 52
59 59 59 61 59 57 56 56 56 57 57 58 59 57 56 55 54 53 52 52 52 53 55 55 55 55 54 54 54 54 54 53 52 52 52 51 51 49 48 48 48 49 50
57 57 57 56 55 54 55 54 53 53 53 55 56 56 55 55 52 51 51 52 51 51 51 52 53 53 52 52 53 52 52 51 51 51 50 48 49 46 48 48 48 48 47
53 54 54 54 52 53 53 52 52 51 52 52 51 52 53 53 52 51 52 52 52 51 50 50 49 49 49 50 50 52 53 52 51 50 49 48 48 46 45 43 41 42 43
53 53 52 52 52 53 52 52 51 51 51 51 50 49 49 50 48 48 49 48 49 48 47 47 47 46 47 47 48 50 50 48 48 48 48 47 47 44 41 41 40 41 40
52 52 51 51 51 51 52 52 51 50 50 49 48 46 46 46 46 46 46 46 46 46 46 46 45 45 45 45 44 45 43 42 42 43 43 42 43 46 44 41 39 40 39
53 53 54 52 50 50 51 51 50 50 50 48 46 46 46 45 44 44 44 44 44 44 45 44 44 42 45 46 47 46 41 41 39 37 38 41 43 45 46 46 46 44 39
53 53 53 52 52 52 52 49 49 49 49 48 47 46 46 45 44 44 43 42 41 41 40 40 41 42 43 45 46 44 39 38 36 36 37 39 41 40 38 44 44 44 45
54 54 53 53 53 53 52 51 50 48 47 47 46 47 46 45 44 43 41 39 39 41 39 36 38 40 43 45 44 42 37 37 38 38 38 36 36 37 37 35 33 32 35
55 55 55 54 54 53 52 50 48 47 46 46 45 46 46 44 42 39 39 41 39 36 36 37 38 39 40 44 43 39 37 36 36 37 37 36 35 42 43 34 32 32 33
51 52 55 55 53 52 51 49 47 45 44 46 45 46 45 43 40 39 39 36 38 35 37 36 38 41 38 43 43 40 36 35 33 34 36 42 37 42 42 33 32 29 30
47 50 52 52 52 52 50 47 46 44 45 47 45 44 43 41 40 37 37 36 35 35 35 35 37 39 39 40 42 43 36 34 32 33 32 34 41 41 40 40 32 33 33
46 47 45 45 46 48 47 45 44 44 44 44 43 42 40 41 39 38 36 36 35 34 34 35 35 37 39 41 42 42 42 40 33 32 32 34 41 40 40 37 41 42 38
46 46 45 44 44 45 46 43 42 43 43 42 40 40 40 40 41 37 36 34 35 34 33 33 33 34 36 35 42 42 42 42 34 34 36 40 40 40 38 39 40 40 31
44 46 45 44 42 43 45 45 44 44 42 40 40 39 38 40 39 37 36 35 34 33 33 33 33 34 34 33 32 34 35 40 37 38 34 36 36 37 35 35 35 31 31
45 44 43 43 43 43 43 43 44 45 42 42 43 41 40 40 37 36 36 35 36 36 34 34 34 34 33 34 37 35 33 32 34 33 31 30 30 29 30 30 30 30 31
44 43 43 43 43 43 42 44 45 45 44 43 42 40 38 38 36 35 34 40 39 40 40 39 38 36 40 42 42 42 41 40 40 32 29 28 28 29 30 30 30 29 31

GFSMW_sfc_temp_099.txt.gz
Temp
65 66 67 67 68 68 67 70 69 69 69 68 66 66 68 68 69 72 73 75 75 71 70 68 68 67 66 66 66 65 64 62 62 62 61 63 64 64 64 65 65 66 69
62 63 64 64 67 66 69 66 68 70 70 70 67 67 65 66 67 69 71 72 72 71 70 69 68 68 67 66 66 65 62 63 62 60 58 56 60 61 63 63 64 62 65
62 63 61 62 63 64 64 68 68 69 69 68 65 65 65 65 65 65 66 66 67 67 68 68 68 67 68 66 66 65 64 61 61 61 60 54 54 56 60 61 62 62 59
62 62 64 61 62 63 64 66 66 67 68 66 66 64 63 62 64 66 66 66 66 66 67 66 66 65 66 65 64 65 64 62 60 61 62 60 59 57 57 59 59 59 56
60 60 61 65 62 62 62 63 64 66 66 66 64 63 63 63 64 63 65 65 66 67 66 65 65 65 65 65 64 64 63 63 62 61 60 59 59 60 57 55 56 56 52
61 60 64 62 59 57 59 59 62 63 63 64 63 62 61 60 61 62 62 63 64 65 66 65 64 64 64 64 64 64 64 64 64 62 61 59 58 57 56 55 55 55 53
61 58 57 56 56 56 57 57 59 59 61 60 60 61 60 61 62 62 62 61 61 62 64 65 64 63 64 65 64 63 63 63 62 62 62 63 61 60 59 57 55 53 49
57 56 59 58 58 56 55 57 57 56 58 59 60 60 61 59 60 61 61 62 62 61 62 62 62 63 63 64 63 62 62 62 62 62 62 61 60 60 59 58 55 52 50
57 56 58 60 56 55 55 55 55 56 56 56 55 55 55 56 55 56 56 56 58 60 58 59 59 58 59 59 59 59 59 60 60 60 60 59 58 57 57 57 57 55 49
56 56 61 59 56 56 54 54 54 54 54 54 54 54 54 55 54 54 54 54 55 56 56 56 56 55 55 55 55 55 55 56 55 55 57 54 53 53 53 52 53 53 53
55 56 55 55 55 53 52 52 53 53 53 53 53 53 56 54 52 51 52 53 52 53 53 53 54 53 52 53 52 52 53 54 53 53 53 52 52 50 49 50 50 50 51
54 54 52 51 52 51 51 51 51 52 52 52 52 52 54 54 53 52 51 51 50 50 51 51 51 50 50 50 51 50 50 52 51 51 50 49 49 48 48 49 48 46 48
51 50 50 50 50 49 49 49 49 49 49 50 49 49 50 48 48 49 50 51 51 49 50 49 47 47 47 47 48 49 52 50 51 51 49 48 48 46 46 46 45 45 45
51 50 48 48 48 49 49 48 48 49 49 48 47 46 46 45 45 46 47 47 46 47 46 45 45 44 45 45 45 47 48 49 48 48 48 47 47 46 45 43 43 41 40
50 50 49 47 47 48 47 47 47 47 47 46 45 44 44 44 44 44 44 44 44 45 44 43 44 43 43 45 43 44 43 44 43 43 44 44 45 46 45 42 39 39 38
51 51 50 48 46 46 47 48 47 47 47 45 44 44 44 43 43 42 42 42 42 42 42 41 42 41 44 46 47 45 40 40 39 38 39 42 44 46 48 47 46 42 37
51 51 50 49 48 48 48 46 46 46 46 44 44 44 44 43 42 42 41 40 39 39 38 38 39 39 40 46 46 45 41 39 37 36 37 38 41 41 41 45 45 46 46
52 52 51 49 49 49 48 47 47 46 45 44 44 44 43 42 42 41 39 38 38 38 37 36 36 37 41 45 45 42 38 38 38 38 39 38 36 36 36 34 32 33 35
49 52 52 51 50 49 48 47 45 45 44 43 43 44 43 42 40 38 37 38 39 37 37 38 35 35 39 44 43 40 37 36 36 38 38 38 35 42 42 33 32 31 32
47 47 51 52 50 49 48 47 44 43 43 43 43 44 43 41 39 38 37 36 38 36 36 35 36 40 39 44 43 40 37 35 35 36 37 41 38 44 43 32 31 29 29
45 46 47 48 49 49 48 45 43 42 44 45 44 43 42 40 39 36 36 37 36 35 35 35 37 39 40 40 43 43 37 35 34 34 33 33 42 43 43 39 31 32 32
45 45 44 43 44 46 46 44 42 44 43 43 42 41 40 40 38 36 37 36 36 35 35 35 35 37 39 41 42 43 42 39 33 32 32 33 41 41 41 38 39 41 38
43 44 42 42 42 43 44 42 42 42 41 41 40 39 38 38 37 37 36 35 35 34 34 33 33 34 35 37 42 43 43 43 33 32 35 38 41 41 39 40 41 41 31
43 43 42 41 41 42 43 43 41 42 41 39 38 38 37 38 39 37 37 35 34 34 33 33 33 34 34 34 35 36 37 41 37 38 36 38 37 38 35 36 36 32 31
43 42 41 41 41 42 41 42 42 41 39 39 40 41 40 40 37 37 36 36 37 36 34 34 34 33 33 35 38 36 33 32 34 32 32 31 30 30 30 30 31 30 30
41 41 40 40 40 40 40 41 41 41 41 41 41 40 39 38 36 35 35 40 40 40 41 40 37 35 39 41 40 41 41 40 40 32 30 30 29 29 30 30 29 30 32

GFSMW_sfc_temp_102.txt.gz
Temp
64 63 63 64 65 65 66 68 68 68 70 68 67 66 65 67 68 70 70 72 72 70 68 66 66 65 64 64 64 63 63 61 61 61 60 60 62 62 61 62 62 64 66
61 61 61 62 64 66 66 65 67 68 70 69 68 66 65 66 67 69 70 71 71 71 68 67 66 66 65 65 65 64 62 62 62 60 57 56 59 60 61 61 62 61 63
60 58 58 60 62 63 65 66 67 68 69 68 65 64 65 64 64 66 67 67 68 68 68 66 66 66 66 64 63 63 62 61 60 60 59 54 54 56 58 57 58 59 58
60 60 59 59 60 63 64 65 66 67 67 66 66 65 65 63 64 65 64 65 67 66 66 66 66 65 65 64 64 64 63 61 60 60 61 60 59 57 56 59 58 58 57
58 59 61 62 62 61 62 63 64 65 64 65 65 64 62 63 63 64 64 64 66 66 65 65 65 64 64 64 64 63 63 62 61 61 59 59 59 59 56 55 54 55 54
57 58 59 60 59 58 59 61 62 63 63 63 62 62 62 60 61 60 61 63 63 64 64 64 64 64 63 64 64 63 63 63 62 62 62 60 58 57 56 55 55 55 52
56 56 56 56 56 56 57 59 61 60 60 61 61 61 61 61 61 61 60 60 60 61 63 64 64 63 64 64 63 63 63 62 62 62 62 62 62 60 58 57 55 53 50
56 56 55 56 57 55 54 56 58 59 58 58 59 59 59 59 59 60 60 59 59 60 61 62 61 61 61 62 62 61 62 62 61 62 62 61 61 60 58 58 55 52 50
55 55 55 57 55 54 55 55 56 56 57 58 57 57 57 57 56 55 56 55 56 57 57 58 58 59 59 59 58 58 57 57 58 60 59 59 58 58 58 58 57 57 50
53 52 55 57 55 55 55 54 55 54 55 55 55 55 55 54 53 53 53 53 53 54 55 55 55 55 56 55 55 54 54 53 54 55 56 57 56 56 55 55 55 54 54
51 51 53 54 54 52 53 52 52 52 52 52 52 52 51 51 51 51 51 52 53 53 52 54 53 52 52 51 51 52 52 52 52 53 54 54 53 52 51 51 51 52 52
50 50 52 51 51 51 50 51 50 50 50 50 50 49 50 49 49 49 49 49 48 48 51 49 49 49 49 49 49 50 49 49 52 52 50 51 50 50 49 49 49 49 49
48 47 48 49 49 49 49 50 49 48 49 49 48 48 48 48 47 47 49 49 47 47 47 47 47 47 47 46 47 47 49 50 51 51 49 50 49 47 47 47 47 46 46
48 46 47 46 47 48 48 48 47 48 47 48 47 46 45 45 45 45 45 45 45 44 44 44 44 44 43 43 43 45 46 48 49 49 48 48 47 47 46 45 44 44 43
48 47 47 47 47 47 47 47 47 46 46 46 45 44 44 44 43 43 43 43 43 42 42 42 42 41 42 44 42 42 43 42 42 43 44 45 46 47 46 44 42 42 41
48 49 48 47 46 46 46 47 45 45 46 44 43 43 43 42 42 41 41 41 41 41 41 40 41 40 43 47 47 45 40 40 39 38 41 42 45 46 48 47 46 43 37
50 50 49 49 48 47 47 45 45 44 44 43 43 43 42 42 41 41 40 39 39 39 38 37 38 38 39 46 47 46 41 40 39 37 37 39 42 42 42 46 45 46 46
49 50 49 49 48 48 47 46 45 44 43 43 42 42 42 41 40 40 38 37 37 36 36 37 36 36 39 45 46 44 39 39 39 39 39 39 38 38 38 36 34 33 34
48 49 51 50 49 47 47 46 44 43 43 42 42 42 42 40 39 38 37 36 36 35 37 38 37 34 36 44 45 41 38 37 36 38 39 39 38 42 41 33 31 31 33
46 47 51 51 50 48 46 45 43 42 41 42 42 42 42 40 39 37 36 34 36 37 37 35 34 37 36 43 44 41 37 35 35 36 37 41 39 43 43 33 30 31 31
44 45 47 48 48 48 48 45 43 42 44 44 43 42 41 40 39 36 36 35 36 36 35 35 36 39 40 40 44 43 37 35 34 34 34 36 42 43 44 38 31 31 31
43 44 42 42 44 46 46 43 43 44 44 43 42 41 40 40 38 35 35 35 36 36 35 35 35 37 39 42 42 44 43 40 34 33 34 35 42 42 43 39 38 40 37
42 42 42 43 42 43 45 43 43 43 42 41 40 39 38 37 38 37 34 35 36 35 35 34 34 35 36 37 42 43 43 43 35 35 36 38 41 41 39 41 41 42 30
41 41 41 40 40 41 42 43 42 41 40 39 38 37 36 36 37 38 37 36 35 34 33 33 33 34 34 34 35 36 37 41 39 38 35 38 38 38 35 36 37 31 30
41 40 40 41 40 41 41 41 41 40 39 38 37 39 39 40 38 37 37 36 37 36 34 34 34 33 33 35 38 37 33 32 35 34 32 31 30 30 30 31 31 30 31
39 38 38 39 38 39 39 40 40 40 39 40 39 39 38 39 37 36 36 41 40 41 41 41 38 35 39 40 41 41 40 41 40 33 30 30 29 29 30 30 30 30 32

GFSMW_sfc_temp_105.txt.gz
Temp
58 61 63 65 65 65 67 69 67 69 69 67 66 65 65 64 65 66 68 69 69 68 66 65 64 63 63 62 62 61 61 60 60 60 61 61 62 60 60 60 61 62 63
56 59 59 61 66 66 66 66 67 67 68 68 68 66 66 65 66 66 67 68 68 67 66 65 64 63 63 63 62 62 61 63 61 60 57 55 58 59 58 59 60 58 60
53 56 55 59 61 63 64 66 66 67 68 67 65 65 65 64 64 65 65 67 68 68 68 67 65 64 63 62 62 63 63 61 60 61 60 54 54 55 56 56 56 56 56
54 56 57 58 60 62 64 65 65 67 66 66 65 65 66 64 64 64 65 65 67 67 67 66 65 65 64 63 63 64 62 61 60 60 61 60 59 56 55 56 56 56 56
55 58 58 59 60 61 62 63 64 64 63 65 65 63 62 63 63 63 64 64 64 65 66 65 64 64 64 64 64 63 63 62 61 60 59 59 59 59 57 54 54 54 53
58 62 58 59 58 58 59 61 62 63 63 64 63 63 61 61 61 61 61 61 63 64 64 64 64 64 64 63 63 64 63 63 62 61 61 59 58 57 57 56 55 54 51
58 58 56 55 56 57 58 59 60 60 62 61 61 61 61 61 61 60 60 60 60 61 62 63 62 62 62 62 61 61 60 61 61 61 61 62 61 60 59 57 55 53 49
58 57 56 55 56 56 57 58 59 60 61 60 59 59 60 60 60 60 59 59 59 59 60 60 60 61 61 61 60 59 59 60 61 60 60 60 61 60 60 60 57 52 50
54 56 55 54 54 54 55 57 58 59 58 58 57 58 57 58 57 57 57 57 57 58 58 59 58 58 58 58 58 57 57 57 58 59 59 59 60 60 59 57 56 55 50
54 54 55 55 54 54 53 54 55 56 56 56 56 56 56 56 54 54 54 54 54 55 55 55 55 55 54 54 54 53 54 53 53 53 53 54 56 57 56 56 56 55 55
52 52 55 54 52 52 51 51 53 53 54 54 52 53 52 52 52 52 51 51 51 52 52 52 52 52 51 52 50 51 51 50 50 53 53 53 54 53 53 52 52 53 53
50 50 53 52 50 51 50 50 51 51 51 50 51 50 49 49 48 48 48 49 48 50 48 49 48 48 48 48 47 47 48 48 49 52 52 51 51 51 51 50 51 50 50
46 46 47 48 49 49 49 49 49 48 48 48 48 47 46 46 46 46 46 47 46 46 48 46 45 45 44 44 44 45 46 47 48 48 50 50 49 49 48 48 47 47 47
46 45 44 45 46 47 48 47 46 47 47 47 46 45 45 45 44 44 45 45 45 46 43 43 43 42 42 42 42 42 43 44 44 45 45 45 46 47 47 46 46 45 45
46 46 45 44 45 46 46 46 45 46 46 46 45 44 43 43 43 43 42 42 42 42 42 41 41 40 41 43 41 41 40 40 40 41 41 42 44 47 47 45 44 43 43
46 45 45 44 44 45 45 46 45 45 46 44 44 44 43 42 42 41 40 41 40 40 40 39 40 39 42 47 48 45 39 39 38 38 38 40 43 45 48 48 47 45 41
45 46 46 47 46 45 46 45 45 44 44 44 43 42 42 41 40 40 40 39 38 38 37 36 37 37 38 46 47 46 39 38 39 38 38 40 42 42 42 44 44 45 46
46 47 47 46 47 48 46 46 45 44 44 43 42 42 41 40 39 39 38 37 36 36 35 37 37 34 38 44 46 45 36 36 38 39 39 39 39 39 39 38 36 36 37
45 46 47 48 47 47 47 45 44 43 43 42 41 42 41 40 39 38 36 36 36 35 35 38 37 35 35 42 45 43 36 35 36 38 39 39 38 40 41 36 34 34 34
44 44 45 49 48 46 46 45 43 42 42 42 42 42 41 40 38 37 36 34 35 35 36 36 37 36 35 41 44 43 38 34 36 36 38 41 39 41 42 35 34 32 32
43 44 45 46 46 46 46 44 42 42 43 43 42 41 40 40 38 36 36 35 33 34 36 36 36 34 37 40 43 44 38 35 34 34 34 36 41 42 43 40 34 34 34
42 42 41 41 43 45 45 43 42 43 44 43 42 41 40 39 38 35 35 34 36 36 36 36 35 35 38 41 42 44 44 40 33 33 34 35 40 42 43 41 39 40 37
40 41 41 41 41 42 44 43 42 43 42 41 40 39 38 37 36 35 35 36 36 36 35 34 34 34 35 35 42 43 44 44 36 34 36 40 40 42 40 42 41 41 30
39 40 40 41 41 42 43 42 41 42 41 39 39 37 37 36 36 37 37 36 35 35 34 33 33 35 33 34 35 36 38 40 39 39 35 38 39 40 36 37 35 31 30
40 40 40 41 39 39 39 40 40 41 39 39 38 37 37 37 36 37 38 36 37 37 34 35 34 34 33 35 38 37 35 34 36 33 31 30 31 32 31 31 31 30 30
37 37 37 38 38 37 36 37 39 39 38 38 38 38 38 36 36 36 36 41 41 41 41 42 39 36 40 41 41 41 41 41 41 32 29 28 30 30 30 30 30 29 31

GFSMW_sfc_temp_108.txt.gz
Temp
57 60 63 64 66 68 68 70 69 69 68 66 65 64 64 62 62 63 65 66 66 65 64 64 63 62 62 63 61 60 60 58 59 59 60 61 62 59 58 58 59 60 61
55 58 60 63 64 64 66 66 68 68 69 67 68 66 66 64 66 65 65 67 67 66 66 64 62 62 61 61 61 61 59 60 59 59 58 57 59 58 57 57 59 57 58
54 55 57 61 63 64 64 65 66 67 67 66 65 64 64 64 63 63 64 65 66 65 65 64 63 62 62 61 60 60 61 59 59 61 59 55 55 56 58 56 57 57 56
52 54 56 57 61 63 64 66 66 66 67 67 66 65 64 63 63 64 65 65 65 66 66 66 65 63 62 62 62 62 62 61 59 60 60 60 59 56 55 56 55 56 56
51 52 54 58 59 62 63 63 64 65 65 66 67 65 65 66 64 64 64 65 65 66 65 65 64 63 63 64 64 63 62 62 61 60 59 59 59 59 57 54 54 54 54
53 53 55 57 58 59 61 63 64 64 64 65 64 64 64 63 63 63 63 64 63 63 64 65 65 64 64 64 63 63 63 62 62 61 61 59 57 57 57 56 56 54 53
54 54 53 54 56 58 58 60 61 62 63 64 63 63 62 62 62 62 62 62 62 62 62 62 62 62 62 62 62 61 61 60 61 61 60 60 60 60 58 57 56 54 51
56 55 55 54 54 57 57 59 59 60 62 61 61 61 61 60 60 60 61 60 60 60 61 60 60 60 60 60 59 58 59 60 59 58 59 58 58 59 58 57 55 53 51
56 56 57 55 54 55 57 58 58 60 60 61 58 59 58 58 58 58 58 57 57 58 59 59 59 58 58 57 57 56 56 57 58 58 58 58 58 59 59 59 58 55 53
55 56 56 54 55 56 55 56 57 59 58 56 56 56 56 56 56 56 55 55 54 55 55 55 54 54 53 53 53 52 52 51 51 51 52 54 53 54 54 56 56 56 55
53 54 55 53 51 51 52 52 54 54 54 54 53 54 53 52 53 52 51 51 51 51 51 51 51 51 50 50 50 50 50 51 51 51 53 53 53 51 51 52 52 53 53
49 49 51 53 50 50 50 51 50 52 51 51 51 50 50 50 49 48 48 49 47 48 48 48 47 46 46 45 46 46 46 46 47 48 50 51 51 49 50 50 50 50 51
48 47 47 49 49 49 48 48 48 48 48 49 48 48 47 47 46 46 46 46 46 45 45 45 44 44 43 43 42 43 43 44 45 45 45 47 47 46 47 48 47 47 47
46 46 46 46 47 48 47 47 46 46 46 46 46 45 45 45 44 44 44 45 45 44 43 43 43 42 41 41 41 41 41 41 42 42 42 41 42 43 46 46 46 46 45
46 45 44 44 44 45 46 47 45 46 45 45 44 43 42 42 42 42 41 42 42 41 42 41 40 40 41 43 41 40 39 39 39 39 40 40 43 46 47 45 44 44 43
45 46 46 44 43 44 45 45 44 45 45 44 42 42 42 41 41 40 40 40 39 39 39 39 39 39 41 47 48 43 39 38 37 37 38 38 42 43 47 48 48 46 42
44 46 46 45 45 45 45 44 43 44 44 43 42 42 41 40 40 39 39 38 38 38 37 36 37 36 37 46 47 45 37 36 36 36 36 39 41 42 42 43 43 44 45
42 44 44 44 45 45 45 43 43 43 42 41 41 41 41 39 39 39 38 36 37 36 36 37 37 35 37 44 46 45 36 35 35 35 36 37 38 39 40 38 37 37 38
43 44 45 45 45 45 44 43 42 41 42 40 40 41 41 39 38 37 36 36 36 34 34 37 38 36 34 42 45 42 37 35 33 36 39 39 38 41 42 36 35 35 35
42 42 43 46 45 44 43 42 41 41 41 41 41 41 41 39 39 37 36 34 36 35 34 36 37 38 35 40 44 43 39 36 35 34 37 40 41 42 43 36 34 33 34
42 42 42 42 44 44 44 43 42 41 42 42 41 41 40 40 39 36 36 36 34 34 35 36 37 36 34 36 43 44 39 36 34 31 32 35 40 42 42 40 34 34 35
41 41 40 39 41 43 44 42 42 43 43 42 41 40 39 39 38 35 36 34 34 34 35 36 34 34 36 40 42 44 44 42 35 34 31 32 40 41 42 41 40 40 39
38 39 39 39 40 42 44 42 41 42 42 41 41 40 39 38 37 36 35 34 35 35 36 35 34 35 36 36 41 43 44 44 37 35 36 40 41 41 40 42 41 41 33
38 39 38 40 40 42 42 42 42 42 41 40 39 38 37 36 35 36 36 35 36 36 34 34 34 35 34 35 36 36 37 41 39 39 35 36 38 40 37 36 36 33 32
37 38 38 39 38 38 38 40 41 42 41 40 39 38 38 38 36 36 36 35 37 36 33 34 34 33 33 35 38 36 34 35 36 36 30 29 29 29 30 30 30 30 31
36 36 36 36 37 35 34 35 37 38 38 38 38 38 37 37 36 35 37 41 41 42 42 42 38 36 39 41 42 42 42 42 42 35 31 27 27 27 29 29 29 29 31

GFSMW_sfc_temp_111.txt.gz
Temp
58 61 68 68 68 70 71 70 69 70 69 67 66 66 67 67 68 69 70 70 71 70 70 70 70 69 69 69 69 68 68 67 68 68 69 69 68 68 64 67 71 71 72
56 59 64 65 65 67 70 69 69 69 69 69 69 69 68 67 68 67 68 70 70 69 70 69 68 68 68 67 68 68 66 67 67 66 63 63 64 62 62 63 67 67 67
55 56 61 66 64 64 67 69 69 69 69 68 68 67 67 67 67 66 67 67 68 67 67 68 67 67 67 67 67 66 67 65 64 65 64 58 56 58 59 58 59 60 60
56 57 58 61 63 64 65 66 66 66 67 66 66 66 66 65 67 67 66 66 67 67 67 67 67 66 65 65 65 65 64 62 62 63 63 64 64 57 58 58 57 58 58
57 57 58 59 60 64 64 65 65 64 66 65 66 64 62 64 64 65 65 65 66 68 67 67 67 65 64 64 63 62 63 64 64 64 62 62 61 60 58 55 57 56 55
56 58 60 59 59 62 63 64 64 64 66 66 64 62 62 63 66 65 65 64 65 65 66 65 66 66 65 65 65 64 64 64 64 65 65 62 59 58 58 56 57 57 57
56 57 57 57 58 60 62 63 64 63 64 64 64 65 63 64 64 64 64 64 63 64 64 65 65 65 65 65 65 64 63 64 63 64 64 65 64 61 60 57 57 56 59
57 58 58 58 58 59 60 61 63 62 63 64 63 63 63 63 64 64 64 64 63 63 64 64 64 64 65 65 65 63 63 64 64 63 63 63 63 63 63 61 60 57 58
56 59 59 58 58 59 60 61 62 62 62 63 62 63 64 62 61 62 62 61 62 62 63 63 62 63 63 62 62 61 60 62 61 60 59 59 59 59 60 59 58 56 53
54 57 58 58 57 58 59 60 61 61 61 60 60 60 60 60 60 61 59 59 60 61 61 60 60 58 58 59 59 58 57 57 55 57 56 56 57 58 58 59 58 57 55
52 56 57 57 56 56 56 57 58 58 57 58 58 59 58 58 58 58 57 57 58 58 58 58 57 56 55 55 56 56 55 55 55 56 57 56 58 56 57 57 57 55 54
50 51 54 55 54 55 55 55 56 56 56 56 56 56 56 57 56 55 55 56 55 55 55 55 53 53 52 53 53 52 52 53 53 53 54 55 54 54 55 55 54 53 52
48 49 51 52 53 53 53 53 53 53 53 54 54 53 53 53 53 53 53 53 53 52 52 52 51 50 49 50 50 50 50 51 51 50 50 50 50 50 51 51 51 51 49
48 47 48 49 50 51 51 51 50 50 51 51 51 51 51 51 51 50 50 50 51 49 49 49 48 47 47 47 47 47 48 48 48 47 47 47 47 48 49 49 49 48 48
47 47 47 47 48 49 49 49 49 49 50 49 49 48 48 48 48 47 47 48 48 47 47 46 46 46 47 46 46 46 46 46 45 45 45 46 46 46 48 48 48 48 47
45 46 47 47 47 48 48 48 48 48 49 48 46 46 46 46 45 45 45 45 45 45 45 45 45 45 46 48 47 45 44 43 43 43 44 44 44 46 47 48 48 48 46
44 44 45 47 48 47 48 47 48 49 48 47 46 46 46 45 44 44 44 43 43 43 41 42 43 43 45 47 47 44 42 41 41 40 41 43 44 44 45 45 44 43 44
43 44 45 46 48 48 47 46 47 47 46 46 45 45 45 44 43 43 42 41 41 39 39 39 39 40 43 46 47 44 41 41 41 41 41 42 43 43 43 42 41 38 39
43 44 45 45 47 47 46 46 45 45 44 44 44 44 44 42 42 41 40 40 40 37 38 40 40 39 41 44 46 43 41 40 40 41 42 42 42 42 43 39 38 37 37
42 43 44 46 48 46 46 45 44 45 44 44 44 44 43 43 42 41 39 37 39 38 39 39 41 40 40 42 44 44 42 41 40 40 41 41 42 43 43 39 39 37 36
42 43 43 42 44 46 46 45 44 44 45 44 44 43 43 42 41 39 38 38 37 38 39 39 40 40 39 41 44 45 42 41 40 39 38 40 41 42 43 42 39 38 38
41 42 41 41 42 45 46 44 44 44 44 44 43 42 42 42 40 39 39 38 38 38 38 39 38 39 39 41 43 44 45 43 39 39 38 38 40 41 42 43 41 41 40
40 41 41 41 42 43 45 43 42 44 43 43 42 42 41 41 40 39 38 38 38 38 38 37 37 38 39 40 42 43 44 45 40 38 39 40 41 41 41 42 42 42 36
39 40 40 40 40 41 42 42 43 44 44 43 42 41 41 40 40 39 39 39 38 38 37 36 36 38 38 39 39 39 40 41 41 41 38 39 40 40 39 39 39 37 37
38 39 39 39 38 39 38 39 40 42 41 41 40 39 39 40 39 39 39 40 41 40 37 37 36 37 37 37 40 38 37 38 38 37 35 34 35 35 36 35 36 36 35
37 37 36 36 36 36 36 36 37 39 40 40 40 39 39 39 37 38 39 42 41 42 42 42 40 38 40 41 42 42 43 43 43 37 34 33 33 33 34 34 34 34 35

GFSMW_sfc_temp_114.txt.gz
Temp
62 64 61 60 63 68 70 71 70 72 71 71 69 70 72 74 76 79 79 78 79 78 77 78 77 77 76 76 76 75 74 73 74 74 76 76 76 75 75 76 74 75 76
60 61 62 62 61 66 69 70 70 69 71 72 71 70 72 75 76 76 76 77 78 77 77 76 76 76 75 75 74 73 70 74 76 73 72 70 71 73 72 71 71 69 70
59 59 61 63 63 64 67 69 69 69 70 71 70 70 71 71 71 72 73 74 75 74 74 75 74 74 73 71 73 74 73 72 71 70 70 66 66 69 70 68 64 65 67
59 59 61 63 63 63 66 68 68 68 70 73 69 68 68 67 70 72 72 71 73 72 72 70 71 72 72 71 71 72 70 64 63 67 69 70 69 65 64 68 67 65 62
55 58 62 65 65 63 62 64 65 66 66 69 68 67 69 71 71 71 70 70 70 72 71 71 73 71 70 66 64 63 64 66 67 67 66 65 66 66 61 56 58 58 57
55 60 65 63 63 62 62 63 64 63 65 65 65 65 64 64 64 67 67 67 67 66 67 67 68 67 65 65 67 69 67 67 68 68 67 66 63 61 61 57 59 59 59
55 60 61 60 63 63 63 64 63 62 62 63 65 63 63 62 64 65 65 66 66 66 65 66 65 65 65 66 68 69 67 65 65 66 67 69 69 69 66 64 63 60 59
55 59 64 62 61 62 63 63 63 63 63 63 63 63 63 62 62 62 63 63 63 65 65 64 65 65 66 68 67 65 65 66 66 67 67 69 68 66 64 61 62 60 64
51 59 62 63 63 62 62 63 62 63 63 63 62 62 63 60 62 62 63 63 63 63 64 64 64 65 67 68 68 67 67 68 66 65 64 63 63 61 62 62 61 59 56
56 63 62 62 62 63 61 62 63 63 64 63 62 63 61 60 62 62 62 62 61 62 63 63 65 65 66 66 67 66 65 65 64 63 63 61 61 62 63 62 60 59 56
50 59 60 61 61 63 62 61 62 62 61 63 64 64 64 64 63 62 61 61 61 62 63 63 63 62 63 64 64 63 63 63 61 62 62 61 62 62 62 61 60 57 58
49 56 59 60 60 61 61 58 59 59 61 61 61 61 60 60 59 59 60 61 61 63 62 62 61 62 62 64 63 61 62 62 61 60 61 60 59 60 59 60 58 56 57
50 56 57 60 59 58 59 57 58 59 61 61 59 58 59 59 58 58 59 60 61 60 61 61 59 58 59 60 61 61 60 60 59 58 58 57 57 56 55 55 53 54 53
51 51 53 53 57 58 57 57 55 57 59 60 59 58 58 58 58 58 58 59 60 59 59 59 58 57 57 57 57 57 57 56 55 54 54 54 54 54 54 54 55 53 52
51 52 52 53 55 57 56 56 55 56 57 58 57 57 57 57 57 57 57 57 58 56 56 55 55 55 55 54 54 54 54 53 52 51 51 51 49 46 50 52 52 50 49
51 50 53 56 55 55 56 55 54 55 57 56 55 54 53 54 54 53 54 55 54 54 54 53 53 53 52 47 49 52 51 50 50 49 50 50 46 48 47 48 47 48 48
50 49 53 53 55 56 57 56 56 56 55 54 53 53 53 52 52 52 52 51 51 51 51 51 52 51 51 48 47 47 49 48 47 46 47 48 49 48 50 48 46 46 44
50 52 52 54 56 56 56 56 56 56 54 53 52 53 53 52 51 51 50 48 48 47 47 46 48 48 49 47 46 45 48 48 47 47 47 48 49 49 47 47 46 46 46
50 51 53 54 55 56 56 56 55 54 53 53 52 52 52 50 51 48 48 48 46 43 43 45 46 47 47 46 46 47 48 47 47 47 48 48 48 45 44 44 41 45 45
50 50 52 55 56 54 55 55 55 55 54 53 53 53 52 51 50 49 47 45 47 42 45 44 46 46 48 45 46 47 49 47 47 47 47 42 45 44 44 44 43 43 44
49 51 52 50 52 54 55 53 53 52 52 52 52 52 52 51 50 48 46 45 44 43 42 44 46 47 48 48 45 46 48 49 47 46 45 46 42 43 43 44 42 42 44
48 49 49 48 50 52 53 51 50 50 50 51 50 50 50 49 48 47 44 47 47 47 45 46 44 47 48 44 44 45 46 46 46 45 45 44 41 42 42 43 43 42 42
47 49 49 48 47 46 49 48 48 51 51 51 50 50 50 49 50 49 46 48 48 48 46 42 44 46 46 48 44 44 45 45 44 42 43 42 41 42 42 42 43 42 43
46 48 48 47 43 42 41 41 43 46 49 47 48 49 49 49 49 48 48 49 47 47 45 43 43 46 45 46 46 45 46 44 44 43 42 41 41 41 42 41 42 43 43
46 46 46 45 44 45 44 42 41 42 41 41 41 41 41 43 43 44 46 47 49 47 45 44 45 44 43 44 45 44 43 44 43 42 39 38 38 36 38 40 41 41 41
45 45 44 44 43 43 42 42 43 44 45 44 42 41 41 40 38 38 39 41 42 42 42 42 41 40 43 43 42 42 42 43 42 38 38 37 36 34 36 39 39 40 39

GFSMW_sfc_temp_117.txt.gz
Temp
66 67 66 65 63 63 62 65 67 71 71 68 66 68 72 77 77 78 78 78 80 79 79 79 78 78 76 77 77 76 74 73 75 73 73 75 77 76 76 77 77 77 76
64 66 65 64 60 62 62 63 68 70 71 69 70 72 75 76 76 75 77 78 79 78 78 78 77 77 76 75 75 75 72 72 74 71 71 67 70 73 74 73 72 72 69
62 65 65 63 61 59 62 64 66 69 70 71 71 72 73 74 73 74 75 75 77 77 77 76 76 76 76 74 74 73 72 70 73 73 69 65 63 68 70 69 67 65 66
64 65 63 62 60 60 61 65 66 67 70 72 69 69 68 68 72 72 73 72 76 75 75 74 74 74 72 72 71 73 73 70 64 67 69 70 69 62 62 68 68 68 66
63 61 62 63 63 63 62 64 65 66 68 69 70 69 68 70 71 72 70 71 73 73 72 72 70 69 71 72 71 69 66 66 66 67 67 66 66 67 62 60 60 61 63
59 60 63 65 64 63 62 63 62 65 67 69 69 68 69 70 68 68 68 69 69 69 69 70 70 69 70 68 66 63 65 68 68 69 68 66 64 62 62 59 61 61 65
56 60 62 62 62 62 61 61 61 62 64 64 65 64 63 65 68 68 68 66 65 66 66 67 67 67 67 67 65 64 65 67 67 67 67 67 67 68 66 63 60 60 64
54 59 63 61 62 61 61 61 60 60 61 61 62 62 63 63 64 64 67 66 66 67 68 67 66 64 64 65 65 65 66 65 64 65 65 67 67 66 65 62 60 57 61
52 56 62 61 62 61 60 61 62 62 62 62 61 62 61 62 61 62 63 63 63 65 66 65 65 65 65 64 65 64 63 64 66 66 65 65 64 64 64 63 61 59 55
52 54 59 62 64 64 64 64 64 63 62 62 62 61 62 62 63 62 61 62 62 63 63 63 63 63 63 63 65 64 66 64 63 63 63 63 62 62 62 61 60 59 55
49 52 55 61 61 62 62 62 63 61 61 62 61 61 62 62 62 62 62 61 61 62 62 62 62 62 61 63 64 63 64 63 61 61 62 61 62 60 60 60 59 57 55
49 54 55 60 60 59 59 59 60 60 61 62 62 62 61 62 61 62 62 62 62 62 62 61 60 60 61 63 63 62 62 62 61 61 61 60 60 59 59 59 58 54 54
50 53 54 57 56 57 56 57 58 59 59 61 63 60 59 61 60 59 59 60 60 60 60 61 60 61 61 62 63 62 62 62 61 60 59 59 58 57 55 54 53 53 52
48 51 55 56 55 55 56 55 56 57 58 58 58 58 58 58 57 58 58 58 58 59 60 60 59 59 60 60 60 60 60 59 58 57 57 57 56 55 55 53 54 52 51
49 49 50 55 57 57 57 55 54 55 57 58 57 57 57 57 56 55 56 57 58 58 58 57 57 57 56 56 56 56 55 54 53 51 53 51 48 47 48 51 51 50 49
52 53 53 53 55 56 56 56 55 55 57 57 55 56 56 56 55 55 55 54 54 54 55 54 54 53 53 50 52 54 52 52 51 50 50 51 46 48 48 48 47 46 46
52 53 53 55 56 57 58 56 56 57 55 54 54 54 55 54 54 54 54 53 52 53 52 52 52 51 49 49 50 51 50 49 47 47 47 48 50 47 50 48 47 46 45
51 53 54 55 57 59 58 58 57 56 55 54 53 54 54 53 53 52 51 50 50 49 49 49 50 49 48 47 47 48 47 48 48 48 48 48 49 48 47 47 45 45 46
52 53 55 57 57 57 58 58 57 56 54 54 53 54 53 51 52 49 48 49 47 46 46 48 48 48 46 46 46 47 48 46 46 48 49 48 48 46 44 44 39 43 44
52 53 55 57 57 57 59 58 56 56 54 54 53 54 53 52 50 50 48 47 46 44 46 46 48 48 47 46 46 47 49 46 47 47 48 44 47 45 44 43 43 38 41
51 54 53 52 53 56 58 55 54 51 52 53 53 52 53 51 51 48 47 46 44 44 45 45 47 47 49 46 46 46 48 48 47 45 44 46 44 44 44 44 42 40 41
50 52 50 48 49 52 55 50 49 52 53 53 52 51 51 50 49 47 46 46 45 45 44 46 46 47 48 46 46 46 46 47 45 44 45 44 43 42 42 42 44 43 42
50 52 50 47 46 45 45 42 43 48 51 53 52 51 51 51 51 49 48 48 48 48 47 45 44 45 47 48 45 45 46 46 43 44 43 44 42 42 42 42 43 43 38
49 51 50 48 46 45 44 42 42 46 45 45 45 46 49 50 51 50 50 50 49 48 47 44 42 46 45 46 46 44 44 45 44 43 41 42 42 42 42 40 40 38 38
49 50 49 48 46 47 46 47 47 47 42 41 40 40 40 41 41 42 44 45 48 46 45 45 45 45 43 44 47 45 44 44 43 42 37 36 35 36 36 36 37 37 36
49 48 47 47 46 46 45 45 46 46 46 46 45 43 42 40 39 38 39 42 42 42 42 42 41 40 42 43 44 44 44 44 44 38 36 36 36 34 34 34 35 36 37